<?xml version="1.0" encoding="UTF-8" standalone="no" ?>
<gpx xmlns="http://www.topografix.com/GPX/1/1" xmlns:xsi="http://www.w3.org/2001/XMLSchema-instance" xsi:schemaLocation="http://www.topografix.com/GPX/1/1 http://www.topografix.com/GPX/1/1/gpx.xsd" version="1.1" creator="VisuGPX - https://www.visugpx.com">
  <metadata>
    <name>la Montagnette</name>
  </metadata>
  <trk>
    <name><![CDATA[la Montagnette]]></name>
    <trkseg>
      <trkpt lat="42.92707" lon="0.19853">
        <ele>1305</ele>
        <time>2014-03-29T08:17:41Z</time>
      </trkpt>
      <trkpt lat="42.92709" lon="0.19848">
        <ele>1305</ele>
        <time>2014-03-29T08:18:04Z</time>
      </trkpt>
      <trkpt lat="42.92708" lon="0.19847">
        <ele>1301</ele>
        <time>2014-03-29T08:18:17Z</time>
      </trkpt>
      <trkpt lat="42.92706" lon="0.19849">
        <ele>1297</ele>
        <time>2014-03-29T08:18:21Z</time>
      </trkpt>
      <trkpt lat="42.92705" lon="0.19849">
        <ele>1297</ele>
        <time>2014-03-29T08:18:22Z</time>
      </trkpt>
      <trkpt lat="42.92705" lon="0.19851">
        <ele>1295</ele>
        <time>2014-03-29T08:18:25Z</time>
      </trkpt>
      <trkpt lat="42.92705" lon="0.19851">
        <ele>1297</ele>
        <time>2014-03-29T08:18:41Z</time>
      </trkpt>
      <trkpt lat="42.92707" lon="0.19849">
        <ele>1298</ele>
        <time>2014-03-29T08:18:51Z</time>
      </trkpt>
      <trkpt lat="42.92703" lon="0.19848">
        <ele>1297</ele>
        <time>2014-03-29T08:19:12Z</time>
      </trkpt>
      <trkpt lat="42.92705" lon="0.19853">
        <ele>1296</ele>
        <time>2014-03-29T08:19:35Z</time>
      </trkpt>
      <trkpt lat="42.92708" lon="0.19849">
        <ele>1295</ele>
        <time>2014-03-29T08:19:56Z</time>
      </trkpt>
      <trkpt lat="42.9271" lon="0.19851">
        <ele>1293</ele>
        <time>2014-03-29T08:20:00Z</time>
      </trkpt>
      <trkpt lat="42.92705" lon="0.19854">
        <ele>1292</ele>
        <time>2014-03-29T08:20:15Z</time>
      </trkpt>
      <trkpt lat="42.92706" lon="0.19854">
        <ele>1292</ele>
        <time>2014-03-29T08:20:17Z</time>
      </trkpt>
      <trkpt lat="42.92705" lon="0.19853">
        <ele>1289</ele>
        <time>2014-03-29T08:20:31Z</time>
      </trkpt>
      <trkpt lat="42.92707" lon="0.19844">
        <ele>1289</ele>
        <time>2014-03-29T08:20:44Z</time>
      </trkpt>
      <trkpt lat="42.9271" lon="0.19835">
        <ele>1289</ele>
        <time>2014-03-29T08:20:56Z</time>
      </trkpt>
      <trkpt lat="42.92713" lon="0.19831">
        <ele>1289</ele>
        <time>2014-03-29T08:21:04Z</time>
      </trkpt>
      <trkpt lat="42.92716" lon="0.19824">
        <ele>1291</ele>
        <time>2014-03-29T08:21:18Z</time>
      </trkpt>
      <trkpt lat="42.92721" lon="0.19818">
        <ele>1293</ele>
        <time>2014-03-29T08:21:31Z</time>
      </trkpt>
      <trkpt lat="42.92726" lon="0.1981">
        <ele>1295</ele>
        <time>2014-03-29T08:21:45Z</time>
      </trkpt>
      <trkpt lat="42.92727" lon="0.19805">
        <ele>1295</ele>
        <time>2014-03-29T08:21:56Z</time>
      </trkpt>
      <trkpt lat="42.92721" lon="0.19806">
        <ele>1297</ele>
        <time>2014-03-29T08:22:07Z</time>
      </trkpt>
      <trkpt lat="42.92714" lon="0.19808">
        <ele>1300</ele>
        <time>2014-03-29T08:22:22Z</time>
      </trkpt>
      <trkpt lat="42.92706" lon="0.198">
        <ele>1301</ele>
        <time>2014-03-29T08:22:37Z</time>
      </trkpt>
      <trkpt lat="42.92698" lon="0.19794">
        <ele>1303</ele>
        <time>2014-03-29T08:22:51Z</time>
      </trkpt>
      <trkpt lat="42.92691" lon="0.19784">
        <ele>1305</ele>
        <time>2014-03-29T08:23:04Z</time>
      </trkpt>
      <trkpt lat="42.92688" lon="0.19774">
        <ele>1306</ele>
        <time>2014-03-29T08:23:18Z</time>
      </trkpt>
      <trkpt lat="42.92688" lon="0.19766">
        <ele>1308</ele>
        <time>2014-03-29T08:23:32Z</time>
      </trkpt>
      <trkpt lat="42.92689" lon="0.19755">
        <ele>1310</ele>
        <time>2014-03-29T08:23:48Z</time>
      </trkpt>
      <trkpt lat="42.92691" lon="0.1975">
        <ele>1311</ele>
        <time>2014-03-29T08:24:01Z</time>
      </trkpt>
      <trkpt lat="42.92691" lon="0.1974">
        <ele>1313</ele>
        <time>2014-03-29T08:24:18Z</time>
      </trkpt>
      <trkpt lat="42.92687" lon="0.19728">
        <ele>1315</ele>
        <time>2014-03-29T08:24:32Z</time>
      </trkpt>
      <trkpt lat="42.92684" lon="0.19718">
        <ele>1317</ele>
        <time>2014-03-29T08:24:48Z</time>
      </trkpt>
      <trkpt lat="42.92682" lon="0.19707">
        <ele>1319</ele>
        <time>2014-03-29T08:25:05Z</time>
      </trkpt>
      <trkpt lat="42.92678" lon="0.19699">
        <ele>1321</ele>
        <time>2014-03-29T08:25:19Z</time>
      </trkpt>
      <trkpt lat="42.92677" lon="0.19692">
        <ele>1323</ele>
        <time>2014-03-29T08:25:33Z</time>
      </trkpt>
      <trkpt lat="42.92675" lon="0.19684">
        <ele>1326</ele>
        <time>2014-03-29T08:25:48Z</time>
      </trkpt>
      <trkpt lat="42.92679" lon="0.19677">
        <ele>1329</ele>
        <time>2014-03-29T08:26:05Z</time>
      </trkpt>
      <trkpt lat="42.92684" lon="0.19676">
        <ele>1331</ele>
        <time>2014-03-29T08:26:19Z</time>
      </trkpt>
      <trkpt lat="42.92689" lon="0.19671">
        <ele>1333</ele>
        <time>2014-03-29T08:26:32Z</time>
      </trkpt>
      <trkpt lat="42.92691" lon="0.1967">
        <ele>1334</ele>
        <time>2014-03-29T08:26:47Z</time>
      </trkpt>
      <trkpt lat="42.92692" lon="0.19664">
        <ele>1337</ele>
        <time>2014-03-29T08:27:02Z</time>
      </trkpt>
      <trkpt lat="42.9269" lon="0.19658">
        <ele>1339</ele>
        <time>2014-03-29T08:27:15Z</time>
      </trkpt>
      <trkpt lat="42.92689" lon="0.19651">
        <ele>1340</ele>
        <time>2014-03-29T08:27:28Z</time>
      </trkpt>
      <trkpt lat="42.9269" lon="0.19641">
        <ele>1342</ele>
        <time>2014-03-29T08:27:42Z</time>
      </trkpt>
      <trkpt lat="42.92685" lon="0.19632">
        <ele>1343</ele>
        <time>2014-03-29T08:27:57Z</time>
      </trkpt>
      <trkpt lat="42.92683" lon="0.19628">
        <ele>1344</ele>
        <time>2014-03-29T08:28:10Z</time>
      </trkpt>
      <trkpt lat="42.92676" lon="0.19628">
        <ele>1346</ele>
        <time>2014-03-29T08:28:25Z</time>
      </trkpt>
      <trkpt lat="42.92668" lon="0.19625">
        <ele>1347</ele>
        <time>2014-03-29T08:28:40Z</time>
      </trkpt>
      <trkpt lat="42.92662" lon="0.19618">
        <ele>1350</ele>
        <time>2014-03-29T08:28:52Z</time>
      </trkpt>
      <trkpt lat="42.92656" lon="0.19617">
        <ele>1352</ele>
        <time>2014-03-29T08:29:08Z</time>
      </trkpt>
      <trkpt lat="42.92652" lon="0.19607">
        <ele>1354</ele>
        <time>2014-03-29T08:29:20Z</time>
      </trkpt>
      <trkpt lat="42.92649" lon="0.19602">
        <ele>1356</ele>
        <time>2014-03-29T08:29:34Z</time>
      </trkpt>
      <trkpt lat="42.92644" lon="0.19597">
        <ele>1358</ele>
        <time>2014-03-29T08:29:50Z</time>
      </trkpt>
      <trkpt lat="42.92637" lon="0.1959">
        <ele>1360</ele>
        <time>2014-03-29T08:30:05Z</time>
      </trkpt>
      <trkpt lat="42.92634" lon="0.19585">
        <ele>1360</ele>
        <time>2014-03-29T08:30:11Z</time>
      </trkpt>
      <trkpt lat="42.92629" lon="0.19578">
        <ele>1362</ele>
        <time>2014-03-29T08:30:22Z</time>
      </trkpt>
      <trkpt lat="42.92625" lon="0.1957">
        <ele>1364</ele>
        <time>2014-03-29T08:30:34Z</time>
      </trkpt>
      <trkpt lat="42.92626" lon="0.19563">
        <ele>1365</ele>
        <time>2014-03-29T08:30:47Z</time>
      </trkpt>
      <trkpt lat="42.92629" lon="0.19557">
        <ele>1368</ele>
        <time>2014-03-29T08:31:01Z</time>
      </trkpt>
      <trkpt lat="42.92631" lon="0.19549">
        <ele>1370</ele>
        <time>2014-03-29T08:31:16Z</time>
      </trkpt>
      <trkpt lat="42.92636" lon="0.19544">
        <ele>1373</ele>
        <time>2014-03-29T08:31:33Z</time>
      </trkpt>
      <trkpt lat="42.92636" lon="0.19537">
        <ele>1375</ele>
        <time>2014-03-29T08:31:47Z</time>
      </trkpt>
      <trkpt lat="42.92639" lon="0.19529">
        <ele>1377</ele>
        <time>2014-03-29T08:32:02Z</time>
      </trkpt>
      <trkpt lat="42.92637" lon="0.19519">
        <ele>1379</ele>
        <time>2014-03-29T08:32:18Z</time>
      </trkpt>
      <trkpt lat="42.92637" lon="0.19507">
        <ele>1381</ele>
        <time>2014-03-29T08:32:34Z</time>
      </trkpt>
      <trkpt lat="42.92637" lon="0.19497">
        <ele>1382</ele>
        <time>2014-03-29T08:32:50Z</time>
      </trkpt>
      <trkpt lat="42.92635" lon="0.1949">
        <ele>1384</ele>
        <time>2014-03-29T08:33:05Z</time>
      </trkpt>
      <trkpt lat="42.92637" lon="0.1948">
        <ele>1386</ele>
        <time>2014-03-29T08:33:19Z</time>
      </trkpt>
      <trkpt lat="42.92643" lon="0.19476">
        <ele>1389</ele>
        <time>2014-03-29T08:33:34Z</time>
      </trkpt>
      <trkpt lat="42.92642" lon="0.19466">
        <ele>1391</ele>
        <time>2014-03-29T08:33:48Z</time>
      </trkpt>
      <trkpt lat="42.92641" lon="0.19457">
        <ele>1393</ele>
        <time>2014-03-29T08:34:03Z</time>
      </trkpt>
      <trkpt lat="42.92642" lon="0.19447">
        <ele>1394</ele>
        <time>2014-03-29T08:34:19Z</time>
      </trkpt>
      <trkpt lat="42.92644" lon="0.19438">
        <ele>1395</ele>
        <time>2014-03-29T08:34:36Z</time>
      </trkpt>
      <trkpt lat="42.92647" lon="0.19431">
        <ele>1399</ele>
        <time>2014-03-29T08:34:48Z</time>
      </trkpt>
      <trkpt lat="42.92654" lon="0.19425">
        <ele>1400</ele>
        <time>2014-03-29T08:35:03Z</time>
      </trkpt>
      <trkpt lat="42.92656" lon="0.19416">
        <ele>1402</ele>
        <time>2014-03-29T08:35:19Z</time>
      </trkpt>
      <trkpt lat="42.92659" lon="0.19413">
        <ele>1403</ele>
        <time>2014-03-29T08:35:32Z</time>
      </trkpt>
      <trkpt lat="42.92658" lon="0.19415">
        <ele>1402</ele>
        <time>2014-03-29T08:35:37Z</time>
      </trkpt>
      <trkpt lat="42.92661" lon="0.19413">
        <ele>1402</ele>
        <time>2014-03-29T08:35:57Z</time>
      </trkpt>
      <trkpt lat="42.92659" lon="0.19409">
        <ele>1398</ele>
        <time>2014-03-29T08:36:19Z</time>
      </trkpt>
      <trkpt lat="42.92659" lon="0.19406">
        <ele>1400</ele>
        <time>2014-03-29T08:36:37Z</time>
      </trkpt>
      <trkpt lat="42.92661" lon="0.19408">
        <ele>1401</ele>
        <time>2014-03-29T08:36:59Z</time>
      </trkpt>
      <trkpt lat="42.92662" lon="0.19409">
        <ele>1401</ele>
        <time>2014-03-29T08:37:27Z</time>
      </trkpt>
      <trkpt lat="42.92662" lon="0.1941">
        <ele>1401</ele>
        <time>2014-03-29T08:37:50Z</time>
      </trkpt>
      <trkpt lat="42.92664" lon="0.1941">
        <ele>1401</ele>
        <time>2014-03-29T08:38:12Z</time>
      </trkpt>
      <trkpt lat="42.92665" lon="0.19415">
        <ele>1402</ele>
        <time>2014-03-29T08:38:39Z</time>
      </trkpt>
      <trkpt lat="42.9267" lon="0.19409">
        <ele>1402</ele>
        <time>2014-03-29T08:39:08Z</time>
      </trkpt>
      <trkpt lat="42.92672" lon="0.19411">
        <ele>1401</ele>
        <time>2014-03-29T08:39:36Z</time>
      </trkpt>
      <trkpt lat="42.92667" lon="0.19407">
        <ele>1401</ele>
        <time>2014-03-29T08:40:08Z</time>
      </trkpt>
      <trkpt lat="42.92663" lon="0.19411">
        <ele>1403</ele>
        <time>2014-03-29T08:40:43Z</time>
      </trkpt>
      <trkpt lat="42.92664" lon="0.19412">
        <ele>1403</ele>
        <time>2014-03-29T08:41:21Z</time>
      </trkpt>
      <trkpt lat="42.92662" lon="0.19414">
        <ele>1403</ele>
        <time>2014-03-29T08:41:49Z</time>
      </trkpt>
      <trkpt lat="42.92661" lon="0.19413">
        <ele>1402</ele>
        <time>2014-03-29T08:42:26Z</time>
      </trkpt>
      <trkpt lat="42.92658" lon="0.19415">
        <ele>1402</ele>
        <time>2014-03-29T08:43:01Z</time>
      </trkpt>
      <trkpt lat="42.92656" lon="0.1941">
        <ele>1403</ele>
        <time>2014-03-29T08:43:13Z</time>
      </trkpt>
      <trkpt lat="42.92658" lon="0.19411">
        <ele>1403</ele>
        <time>2014-03-29T08:43:22Z</time>
      </trkpt>
      <trkpt lat="42.92658" lon="0.19412">
        <ele>1405</ele>
        <time>2014-03-29T08:43:24Z</time>
      </trkpt>
      <trkpt lat="42.92659" lon="0.19414">
        <ele>1406</ele>
        <time>2014-03-29T08:43:40Z</time>
      </trkpt>
      <trkpt lat="42.9266" lon="0.19414">
        <ele>1406</ele>
        <time>2014-03-29T08:43:57Z</time>
      </trkpt>
      <trkpt lat="42.92657" lon="0.19414">
        <ele>1407</ele>
        <time>2014-03-29T08:44:15Z</time>
      </trkpt>
      <trkpt lat="42.92654" lon="0.19406">
        <ele>1408</ele>
        <time>2014-03-29T08:44:28Z</time>
      </trkpt>
      <trkpt lat="42.92649" lon="0.19399">
        <ele>1408</ele>
        <time>2014-03-29T08:44:40Z</time>
      </trkpt>
      <trkpt lat="42.92645" lon="0.19392">
        <ele>1409</ele>
        <time>2014-03-29T08:44:51Z</time>
      </trkpt>
      <trkpt lat="42.92641" lon="0.19381">
        <ele>1410</ele>
        <time>2014-03-29T08:45:06Z</time>
      </trkpt>
      <trkpt lat="42.92637" lon="0.19371">
        <ele>1410</ele>
        <time>2014-03-29T08:45:20Z</time>
      </trkpt>
      <trkpt lat="42.92633" lon="0.19362">
        <ele>1411</ele>
        <time>2014-03-29T08:45:33Z</time>
      </trkpt>
      <trkpt lat="42.9263" lon="0.19353">
        <ele>1413</ele>
        <time>2014-03-29T08:45:45Z</time>
      </trkpt>
      <trkpt lat="42.92626" lon="0.19345">
        <ele>1414</ele>
        <time>2014-03-29T08:45:56Z</time>
      </trkpt>
      <trkpt lat="42.92618" lon="0.19338">
        <ele>1415</ele>
        <time>2014-03-29T08:46:11Z</time>
      </trkpt>
      <trkpt lat="42.9261" lon="0.19334">
        <ele>1419</ele>
        <time>2014-03-29T08:46:24Z</time>
      </trkpt>
      <trkpt lat="42.92606" lon="0.19333">
        <ele>1418</ele>
        <time>2014-03-29T08:46:32Z</time>
      </trkpt>
      <trkpt lat="42.926" lon="0.19333">
        <ele>1420</ele>
        <time>2014-03-29T08:46:45Z</time>
      </trkpt>
      <trkpt lat="42.92599" lon="0.19334">
        <ele>1420</ele>
        <time>2014-03-29T08:46:46Z</time>
      </trkpt>
      <trkpt lat="42.92591" lon="0.19336">
        <ele>1422</ele>
        <time>2014-03-29T08:46:55Z</time>
      </trkpt>
      <trkpt lat="42.92583" lon="0.19323">
        <ele>1423</ele>
        <time>2014-03-29T08:47:09Z</time>
      </trkpt>
      <trkpt lat="42.92572" lon="0.19318">
        <ele>1424</ele>
        <time>2014-03-29T08:47:22Z</time>
      </trkpt>
      <trkpt lat="42.92561" lon="0.19313">
        <ele>1424</ele>
        <time>2014-03-29T08:47:36Z</time>
      </trkpt>
      <trkpt lat="42.92553" lon="0.19307">
        <ele>1426</ele>
        <time>2014-03-29T08:47:48Z</time>
      </trkpt>
      <trkpt lat="42.9255" lon="0.19303">
        <ele>1429</ele>
        <time>2014-03-29T08:47:54Z</time>
      </trkpt>
      <trkpt lat="42.9255" lon="0.19303">
        <ele>1429</ele>
        <time>2014-03-29T08:47:55Z</time>
      </trkpt>
      <trkpt lat="42.92548" lon="0.19302">
        <ele>1428</ele>
        <time>2014-03-29T08:47:57Z</time>
      </trkpt>
      <trkpt lat="42.9254" lon="0.1929">
        <ele>1428</ele>
        <time>2014-03-29T08:48:14Z</time>
      </trkpt>
      <trkpt lat="42.9254" lon="0.19278">
        <ele>1429</ele>
        <time>2014-03-29T08:48:29Z</time>
      </trkpt>
      <trkpt lat="42.92544" lon="0.19263">
        <ele>1429</ele>
        <time>2014-03-29T08:48:43Z</time>
      </trkpt>
      <trkpt lat="42.92545" lon="0.19256">
        <ele>1430</ele>
        <time>2014-03-29T08:48:50Z</time>
      </trkpt>
      <trkpt lat="42.92543" lon="0.19242">
        <ele>1430</ele>
        <time>2014-03-29T08:49:05Z</time>
      </trkpt>
      <trkpt lat="42.92547" lon="0.1923">
        <ele>1432</ele>
        <time>2014-03-29T08:49:19Z</time>
      </trkpt>
      <trkpt lat="42.9255" lon="0.19214">
        <ele>1433</ele>
        <time>2014-03-29T08:49:35Z</time>
      </trkpt>
      <trkpt lat="42.92552" lon="0.19201">
        <ele>1434</ele>
        <time>2014-03-29T08:49:50Z</time>
      </trkpt>
      <trkpt lat="42.92555" lon="0.19186">
        <ele>1435</ele>
        <time>2014-03-29T08:50:03Z</time>
      </trkpt>
      <trkpt lat="42.92558" lon="0.19175">
        <ele>1437</ele>
        <time>2014-03-29T08:50:15Z</time>
      </trkpt>
      <trkpt lat="42.92562" lon="0.19158">
        <ele>1436</ele>
        <time>2014-03-29T08:50:32Z</time>
      </trkpt>
      <trkpt lat="42.92568" lon="0.19141">
        <ele>1437</ele>
        <time>2014-03-29T08:50:48Z</time>
      </trkpt>
      <trkpt lat="42.9257" lon="0.19133">
        <ele>1440</ele>
        <time>2014-03-29T08:51:01Z</time>
      </trkpt>
      <trkpt lat="42.92573" lon="0.19122">
        <ele>1441</ele>
        <time>2014-03-29T08:51:17Z</time>
      </trkpt>
      <trkpt lat="42.92578" lon="0.19115">
        <ele>1442</ele>
        <time>2014-03-29T08:51:30Z</time>
      </trkpt>
      <trkpt lat="42.92582" lon="0.19105">
        <ele>1444</ele>
        <time>2014-03-29T08:51:45Z</time>
      </trkpt>
      <trkpt lat="42.92585" lon="0.19096">
        <ele>1445</ele>
        <time>2014-03-29T08:51:58Z</time>
      </trkpt>
      <trkpt lat="42.92589" lon="0.1908">
        <ele>1447</ele>
        <time>2014-03-29T08:52:13Z</time>
      </trkpt>
      <trkpt lat="42.92593" lon="0.19063">
        <ele>1447</ele>
        <time>2014-03-29T08:52:29Z</time>
      </trkpt>
      <trkpt lat="42.92595" lon="0.19051">
        <ele>1448</ele>
        <time>2014-03-29T08:52:42Z</time>
      </trkpt>
      <trkpt lat="42.92595" lon="0.1905">
        <ele>1449</ele>
        <time>2014-03-29T08:52:44Z</time>
      </trkpt>
      <trkpt lat="42.92598" lon="0.1904">
        <ele>1452</ele>
        <time>2014-03-29T08:52:58Z</time>
      </trkpt>
      <trkpt lat="42.92601" lon="0.19029">
        <ele>1453</ele>
        <time>2014-03-29T08:53:11Z</time>
      </trkpt>
      <trkpt lat="42.92605" lon="0.19018">
        <ele>1455</ele>
        <time>2014-03-29T08:53:25Z</time>
      </trkpt>
      <trkpt lat="42.92608" lon="0.19005">
        <ele>1457</ele>
        <time>2014-03-29T08:53:39Z</time>
      </trkpt>
      <trkpt lat="42.9261" lon="0.18994">
        <ele>1457</ele>
        <time>2014-03-29T08:53:51Z</time>
      </trkpt>
      <trkpt lat="42.92611" lon="0.18982">
        <ele>1459</ele>
        <time>2014-03-29T08:54:07Z</time>
      </trkpt>
      <trkpt lat="42.92611" lon="0.18969">
        <ele>1460</ele>
        <time>2014-03-29T08:54:20Z</time>
      </trkpt>
      <trkpt lat="42.92613" lon="0.18958">
        <ele>1461</ele>
        <time>2014-03-29T08:54:34Z</time>
      </trkpt>
      <trkpt lat="42.92612" lon="0.18947">
        <ele>1462</ele>
        <time>2014-03-29T08:54:47Z</time>
      </trkpt>
      <trkpt lat="42.92612" lon="0.18933">
        <ele>1463</ele>
        <time>2014-03-29T08:55:03Z</time>
      </trkpt>
      <trkpt lat="42.92611" lon="0.18919">
        <ele>1464</ele>
        <time>2014-03-29T08:55:16Z</time>
      </trkpt>
      <trkpt lat="42.92609" lon="0.18904">
        <ele>1466</ele>
        <time>2014-03-29T08:55:30Z</time>
      </trkpt>
      <trkpt lat="42.92604" lon="0.18891">
        <ele>1468</ele>
        <time>2014-03-29T08:55:44Z</time>
      </trkpt>
      <trkpt lat="42.926" lon="0.18881">
        <ele>1469</ele>
        <time>2014-03-29T08:55:58Z</time>
      </trkpt>
      <trkpt lat="42.92595" lon="0.18868">
        <ele>1471</ele>
        <time>2014-03-29T08:56:13Z</time>
      </trkpt>
      <trkpt lat="42.92592" lon="0.18857">
        <ele>1472</ele>
        <time>2014-03-29T08:56:26Z</time>
      </trkpt>
      <trkpt lat="42.9259" lon="0.18846">
        <ele>1475</ele>
        <time>2014-03-29T08:56:41Z</time>
      </trkpt>
      <trkpt lat="42.9259" lon="0.18831">
        <ele>1479</ele>
        <time>2014-03-29T08:56:59Z</time>
      </trkpt>
      <trkpt lat="42.92591" lon="0.1882">
        <ele>1480</ele>
        <time>2014-03-29T08:57:12Z</time>
      </trkpt>
      <trkpt lat="42.92593" lon="0.18812">
        <ele>1482</ele>
        <time>2014-03-29T08:57:28Z</time>
      </trkpt>
      <trkpt lat="42.92596" lon="0.18803">
        <ele>1483</ele>
        <time>2014-03-29T08:57:43Z</time>
      </trkpt>
      <trkpt lat="42.92595" lon="0.18795">
        <ele>1484</ele>
        <time>2014-03-29T08:57:55Z</time>
      </trkpt>
      <trkpt lat="42.92597" lon="0.18785">
        <ele>1486</ele>
        <time>2014-03-29T08:58:08Z</time>
      </trkpt>
      <trkpt lat="42.926" lon="0.18771">
        <ele>1488</ele>
        <time>2014-03-29T08:58:24Z</time>
      </trkpt>
      <trkpt lat="42.92602" lon="0.1876">
        <ele>1490</ele>
        <time>2014-03-29T08:58:38Z</time>
      </trkpt>
      <trkpt lat="42.92606" lon="0.18751">
        <ele>1492</ele>
        <time>2014-03-29T08:58:53Z</time>
      </trkpt>
      <trkpt lat="42.92607" lon="0.18743">
        <ele>1493</ele>
        <time>2014-03-29T08:59:03Z</time>
      </trkpt>
      <trkpt lat="42.92606" lon="0.18736">
        <ele>1494</ele>
        <time>2014-03-29T08:59:16Z</time>
      </trkpt>
      <trkpt lat="42.92607" lon="0.18727">
        <ele>1496</ele>
        <time>2014-03-29T08:59:30Z</time>
      </trkpt>
      <trkpt lat="42.92608" lon="0.18707">
        <ele>1498</ele>
        <time>2014-03-29T08:59:45Z</time>
      </trkpt>
      <trkpt lat="42.92611" lon="0.18693">
        <ele>1499</ele>
        <time>2014-03-29T08:59:58Z</time>
      </trkpt>
      <trkpt lat="42.92612" lon="0.18681">
        <ele>1501</ele>
        <time>2014-03-29T09:00:12Z</time>
      </trkpt>
      <trkpt lat="42.92614" lon="0.18672">
        <ele>1503</ele>
        <time>2014-03-29T09:00:26Z</time>
      </trkpt>
      <trkpt lat="42.92617" lon="0.18663">
        <ele>1506</ele>
        <time>2014-03-29T09:00:41Z</time>
      </trkpt>
      <trkpt lat="42.92619" lon="0.18652">
        <ele>1508</ele>
        <time>2014-03-29T09:00:56Z</time>
      </trkpt>
      <trkpt lat="42.92622" lon="0.18641">
        <ele>1510</ele>
        <time>2014-03-29T09:01:09Z</time>
      </trkpt>
      <trkpt lat="42.92624" lon="0.18632">
        <ele>1513</ele>
        <time>2014-03-29T09:01:22Z</time>
      </trkpt>
      <trkpt lat="42.92628" lon="0.18619">
        <ele>1515</ele>
        <time>2014-03-29T09:01:38Z</time>
      </trkpt>
      <trkpt lat="42.92629" lon="0.18609">
        <ele>1516</ele>
        <time>2014-03-29T09:01:50Z</time>
      </trkpt>
      <trkpt lat="42.92634" lon="0.18598">
        <ele>1518</ele>
        <time>2014-03-29T09:02:04Z</time>
      </trkpt>
      <trkpt lat="42.92638" lon="0.18587">
        <ele>1520</ele>
        <time>2014-03-29T09:02:18Z</time>
      </trkpt>
      <trkpt lat="42.92645" lon="0.18576">
        <ele>1521</ele>
        <time>2014-03-29T09:02:34Z</time>
      </trkpt>
      <trkpt lat="42.9265" lon="0.18566">
        <ele>1523</ele>
        <time>2014-03-29T09:02:47Z</time>
      </trkpt>
      <trkpt lat="42.92655" lon="0.18559">
        <ele>1525</ele>
        <time>2014-03-29T09:02:59Z</time>
      </trkpt>
      <trkpt lat="42.9266" lon="0.18544">
        <ele>1526</ele>
        <time>2014-03-29T09:03:13Z</time>
      </trkpt>
      <trkpt lat="42.92664" lon="0.18533">
        <ele>1527</ele>
        <time>2014-03-29T09:03:28Z</time>
      </trkpt>
      <trkpt lat="42.9267" lon="0.18523">
        <ele>1529</ele>
        <time>2014-03-29T09:03:43Z</time>
      </trkpt>
      <trkpt lat="42.92676" lon="0.18518">
        <ele>1530</ele>
        <time>2014-03-29T09:03:57Z</time>
      </trkpt>
      <trkpt lat="42.92685" lon="0.18506">
        <ele>1532</ele>
        <time>2014-03-29T09:04:12Z</time>
      </trkpt>
      <trkpt lat="42.92692" lon="0.18496">
        <ele>1532</ele>
        <time>2014-03-29T09:04:26Z</time>
      </trkpt>
      <trkpt lat="42.927" lon="0.18486">
        <ele>1534</ele>
        <time>2014-03-29T09:04:40Z</time>
      </trkpt>
      <trkpt lat="42.92702" lon="0.18484">
        <ele>1534</ele>
        <time>2014-03-29T09:04:43Z</time>
      </trkpt>
      <trkpt lat="42.92711" lon="0.18473">
        <ele>1536</ele>
        <time>2014-03-29T09:04:57Z</time>
      </trkpt>
      <trkpt lat="42.92717" lon="0.18466">
        <ele>1537</ele>
        <time>2014-03-29T09:05:10Z</time>
      </trkpt>
      <trkpt lat="42.92727" lon="0.18458">
        <ele>1539</ele>
        <time>2014-03-29T09:05:25Z</time>
      </trkpt>
      <trkpt lat="42.92738" lon="0.18449">
        <ele>1541</ele>
        <time>2014-03-29T09:05:41Z</time>
      </trkpt>
      <trkpt lat="42.92741" lon="0.18447">
        <ele>1541</ele>
        <time>2014-03-29T09:05:46Z</time>
      </trkpt>
      <trkpt lat="42.92751" lon="0.18444">
        <ele>1543</ele>
        <time>2014-03-29T09:05:59Z</time>
      </trkpt>
      <trkpt lat="42.92759" lon="0.18435">
        <ele>1544</ele>
        <time>2014-03-29T09:06:13Z</time>
      </trkpt>
      <trkpt lat="42.92766" lon="0.18421">
        <ele>1546</ele>
        <time>2014-03-29T09:06:28Z</time>
      </trkpt>
      <trkpt lat="42.92774" lon="0.18415">
        <ele>1547</ele>
        <time>2014-03-29T09:06:43Z</time>
      </trkpt>
      <trkpt lat="42.9278" lon="0.18408">
        <ele>1549</ele>
        <time>2014-03-29T09:06:56Z</time>
      </trkpt>
      <trkpt lat="42.92788" lon="0.18394">
        <ele>1549</ele>
        <time>2014-03-29T09:07:11Z</time>
      </trkpt>
      <trkpt lat="42.92793" lon="0.18382">
        <ele>1550</ele>
        <time>2014-03-29T09:07:26Z</time>
      </trkpt>
      <trkpt lat="42.92797" lon="0.18369">
        <ele>1551</ele>
        <time>2014-03-29T09:07:42Z</time>
      </trkpt>
      <trkpt lat="42.92797" lon="0.18365">
        <ele>1554</ele>
        <time>2014-03-29T09:07:50Z</time>
      </trkpt>
      <trkpt lat="42.92798" lon="0.18367">
        <ele>1551</ele>
        <time>2014-03-29T09:08:15Z</time>
      </trkpt>
      <trkpt lat="42.92799" lon="0.18367">
        <ele>1552</ele>
        <time>2014-03-29T09:08:37Z</time>
      </trkpt>
      <trkpt lat="42.92795" lon="0.18368">
        <ele>1552</ele>
        <time>2014-03-29T09:09:08Z</time>
      </trkpt>
      <trkpt lat="42.92796" lon="0.18363">
        <ele>1553</ele>
        <time>2014-03-29T09:09:38Z</time>
      </trkpt>
      <trkpt lat="42.92797" lon="0.18366">
        <ele>1553</ele>
        <time>2014-03-29T09:10:03Z</time>
      </trkpt>
      <trkpt lat="42.92798" lon="0.18366">
        <ele>1553</ele>
        <time>2014-03-29T09:10:18Z</time>
      </trkpt>
      <trkpt lat="42.92798" lon="0.18364">
        <ele>1552</ele>
        <time>2014-03-29T09:10:46Z</time>
      </trkpt>
      <trkpt lat="42.92796" lon="0.18363">
        <ele>1553</ele>
        <time>2014-03-29T09:11:11Z</time>
      </trkpt>
      <trkpt lat="42.92796" lon="0.18364">
        <ele>1553</ele>
        <time>2014-03-29T09:11:31Z</time>
      </trkpt>
      <trkpt lat="42.92797" lon="0.18363">
        <ele>1552</ele>
        <time>2014-03-29T09:11:58Z</time>
      </trkpt>
      <trkpt lat="42.92799" lon="0.18356">
        <ele>1552</ele>
        <time>2014-03-29T09:12:05Z</time>
      </trkpt>
      <trkpt lat="42.92804" lon="0.1834">
        <ele>1555</ele>
        <time>2014-03-29T09:12:22Z</time>
      </trkpt>
      <trkpt lat="42.92806" lon="0.18334">
        <ele>1557</ele>
        <time>2014-03-29T09:12:34Z</time>
      </trkpt>
      <trkpt lat="42.92808" lon="0.18323">
        <ele>1559</ele>
        <time>2014-03-29T09:12:48Z</time>
      </trkpt>
      <trkpt lat="42.92812" lon="0.18313">
        <ele>1560</ele>
        <time>2014-03-29T09:13:03Z</time>
      </trkpt>
      <trkpt lat="42.92814" lon="0.18299">
        <ele>1562</ele>
        <time>2014-03-29T09:13:17Z</time>
      </trkpt>
      <trkpt lat="42.92817" lon="0.1828">
        <ele>1562</ele>
        <time>2014-03-29T09:13:33Z</time>
      </trkpt>
      <trkpt lat="42.92818" lon="0.18274">
        <ele>1562</ele>
        <time>2014-03-29T09:13:39Z</time>
      </trkpt>
      <trkpt lat="42.92823" lon="0.18262">
        <ele>1562</ele>
        <time>2014-03-29T09:13:53Z</time>
      </trkpt>
      <trkpt lat="42.92829" lon="0.18256">
        <ele>1565</ele>
        <time>2014-03-29T09:14:07Z</time>
      </trkpt>
      <trkpt lat="42.92834" lon="0.18245">
        <ele>1564</ele>
        <time>2014-03-29T09:14:21Z</time>
      </trkpt>
      <trkpt lat="42.92838" lon="0.18231">
        <ele>1565</ele>
        <time>2014-03-29T09:14:35Z</time>
      </trkpt>
      <trkpt lat="42.92843" lon="0.1822">
        <ele>1567</ele>
        <time>2014-03-29T09:14:49Z</time>
      </trkpt>
      <trkpt lat="42.92848" lon="0.1821">
        <ele>1567</ele>
        <time>2014-03-29T09:15:04Z</time>
      </trkpt>
      <trkpt lat="42.92853" lon="0.18202">
        <ele>1568</ele>
        <time>2014-03-29T09:15:20Z</time>
      </trkpt>
      <trkpt lat="42.92855" lon="0.18201">
        <ele>1568</ele>
        <time>2014-03-29T09:15:35Z</time>
      </trkpt>
      <trkpt lat="42.92859" lon="0.18193">
        <ele>1569</ele>
        <time>2014-03-29T09:15:55Z</time>
      </trkpt>
      <trkpt lat="42.92865" lon="0.18183">
        <ele>1568</ele>
        <time>2014-03-29T09:16:12Z</time>
      </trkpt>
      <trkpt lat="42.92868" lon="0.18178">
        <ele>1568</ele>
        <time>2014-03-29T09:16:18Z</time>
      </trkpt>
      <trkpt lat="42.92869" lon="0.18176">
        <ele>1567</ele>
        <time>2014-03-29T09:16:20Z</time>
      </trkpt>
      <trkpt lat="42.92878" lon="0.18164">
        <ele>1568</ele>
        <time>2014-03-29T09:16:32Z</time>
      </trkpt>
      <trkpt lat="42.92887" lon="0.18152">
        <ele>1567</ele>
        <time>2014-03-29T09:16:47Z</time>
      </trkpt>
      <trkpt lat="42.92896" lon="0.18137">
        <ele>1565</ele>
        <time>2014-03-29T09:17:02Z</time>
      </trkpt>
      <trkpt lat="42.92905" lon="0.18128">
        <ele>1565</ele>
        <time>2014-03-29T09:17:14Z</time>
      </trkpt>
      <trkpt lat="42.92908" lon="0.18123">
        <ele>1564</ele>
        <time>2014-03-29T09:17:21Z</time>
      </trkpt>
      <trkpt lat="42.92909" lon="0.18117">
        <ele>1564</ele>
        <time>2014-03-29T09:17:26Z</time>
      </trkpt>
      <trkpt lat="42.92911" lon="0.18107">
        <ele>1564</ele>
        <time>2014-03-29T09:17:39Z</time>
      </trkpt>
      <trkpt lat="42.92914" lon="0.18105">
        <ele>1564</ele>
        <time>2014-03-29T09:17:50Z</time>
      </trkpt>
      <trkpt lat="42.92913" lon="0.18104">
        <ele>1564</ele>
        <time>2014-03-29T09:18:08Z</time>
      </trkpt>
      <trkpt lat="42.92913" lon="0.18103">
        <ele>1565</ele>
        <time>2014-03-29T09:18:23Z</time>
      </trkpt>
      <trkpt lat="42.92915" lon="0.18105">
        <ele>1565</ele>
        <time>2014-03-29T09:18:38Z</time>
      </trkpt>
      <trkpt lat="42.92915" lon="0.18106">
        <ele>1564</ele>
        <time>2014-03-29T09:18:54Z</time>
      </trkpt>
      <trkpt lat="42.92915" lon="0.18108">
        <ele>1562</ele>
        <time>2014-03-29T09:19:19Z</time>
      </trkpt>
      <trkpt lat="42.92915" lon="0.18105">
        <ele>1565</ele>
        <time>2014-03-29T09:19:38Z</time>
      </trkpt>
      <trkpt lat="42.92915" lon="0.18102">
        <ele>1567</ele>
        <time>2014-03-29T09:19:53Z</time>
      </trkpt>
      <trkpt lat="42.92915" lon="0.18099">
        <ele>1568</ele>
        <time>2014-03-29T09:20:07Z</time>
      </trkpt>
      <trkpt lat="42.92915" lon="0.18106">
        <ele>1567</ele>
        <time>2014-03-29T09:20:21Z</time>
      </trkpt>
      <trkpt lat="42.92914" lon="0.18107">
        <ele>1565</ele>
        <time>2014-03-29T09:20:35Z</time>
      </trkpt>
      <trkpt lat="42.92915" lon="0.181">
        <ele>1566</ele>
        <time>2014-03-29T09:20:55Z</time>
      </trkpt>
      <trkpt lat="42.92915" lon="0.18099">
        <ele>1569</ele>
        <time>2014-03-29T09:21:11Z</time>
      </trkpt>
      <trkpt lat="42.92914" lon="0.181">
        <ele>1564</ele>
        <time>2014-03-29T09:21:20Z</time>
      </trkpt>
      <trkpt lat="42.92914" lon="0.181">
        <ele>1566</ele>
        <time>2014-03-29T09:21:23Z</time>
      </trkpt>
      <trkpt lat="42.92914" lon="0.18102">
        <ele>1564</ele>
        <time>2014-03-29T09:21:25Z</time>
      </trkpt>
      <trkpt lat="42.92915" lon="0.18105">
        <ele>1562</ele>
        <time>2014-03-29T09:21:36Z</time>
      </trkpt>
      <trkpt lat="42.92914" lon="0.18105">
        <ele>1561</ele>
        <time>2014-03-29T09:21:39Z</time>
      </trkpt>
      <trkpt lat="42.92914" lon="0.18103">
        <ele>1564</ele>
        <time>2014-03-29T09:21:53Z</time>
      </trkpt>
      <trkpt lat="42.92915" lon="0.18104">
        <ele>1567</ele>
        <time>2014-03-29T09:22:00Z</time>
      </trkpt>
      <trkpt lat="42.92915" lon="0.18105">
        <ele>1568</ele>
        <time>2014-03-29T09:22:01Z</time>
      </trkpt>
      <trkpt lat="42.92914" lon="0.18104">
        <ele>1565</ele>
        <time>2014-03-29T09:22:28Z</time>
      </trkpt>
      <trkpt lat="42.92912" lon="0.18101">
        <ele>1568</ele>
        <time>2014-03-29T09:22:55Z</time>
      </trkpt>
      <trkpt lat="42.92913" lon="0.18102">
        <ele>1569</ele>
        <time>2014-03-29T09:23:20Z</time>
      </trkpt>
      <trkpt lat="42.92913" lon="0.18101">
        <ele>1569</ele>
        <time>2014-03-29T09:23:40Z</time>
      </trkpt>
      <trkpt lat="42.92915" lon="0.18105">
        <ele>1566</ele>
        <time>2014-03-29T09:24:11Z</time>
      </trkpt>
      <trkpt lat="42.92913" lon="0.18102">
        <ele>1565</ele>
        <time>2014-03-29T09:24:45Z</time>
      </trkpt>
      <trkpt lat="42.92916" lon="0.18102">
        <ele>1564</ele>
        <time>2014-03-29T09:25:06Z</time>
      </trkpt>
      <trkpt lat="42.92917" lon="0.18106">
        <ele>1565</ele>
        <time>2014-03-29T09:25:29Z</time>
      </trkpt>
      <trkpt lat="42.92917" lon="0.18108">
        <ele>1569</ele>
        <time>2014-03-29T09:25:46Z</time>
      </trkpt>
      <trkpt lat="42.92916" lon="0.18105">
        <ele>1571</ele>
        <time>2014-03-29T09:26:02Z</time>
      </trkpt>
      <trkpt lat="42.92916" lon="0.18105">
        <ele>1569</ele>
        <time>2014-03-29T09:26:11Z</time>
      </trkpt>
      <trkpt lat="42.92916" lon="0.18104">
        <ele>1568</ele>
        <time>2014-03-29T09:26:17Z</time>
      </trkpt>
      <trkpt lat="42.92918" lon="0.18104">
        <ele>1571</ele>
        <time>2014-03-29T09:26:21Z</time>
      </trkpt>
      <trkpt lat="42.92918" lon="0.18104">
        <ele>1571</ele>
        <time>2014-03-29T09:26:22Z</time>
      </trkpt>
      <trkpt lat="42.92917" lon="0.18105">
        <ele>1569</ele>
        <time>2014-03-29T09:26:25Z</time>
      </trkpt>
      <trkpt lat="42.92916" lon="0.18104">
        <ele>1565</ele>
        <time>2014-03-29T09:26:28Z</time>
      </trkpt>
      <trkpt lat="42.92916" lon="0.18103">
        <ele>1566</ele>
        <time>2014-03-29T09:26:34Z</time>
      </trkpt>
      <trkpt lat="42.92918" lon="0.18097">
        <ele>1568</ele>
        <time>2014-03-29T09:26:52Z</time>
      </trkpt>
      <trkpt lat="42.92925" lon="0.18086">
        <ele>1569</ele>
        <time>2014-03-29T09:27:05Z</time>
      </trkpt>
      <trkpt lat="42.92928" lon="0.1808">
        <ele>1570</ele>
        <time>2014-03-29T09:27:11Z</time>
      </trkpt>
      <trkpt lat="42.9293" lon="0.18068">
        <ele>1570</ele>
        <time>2014-03-29T09:27:24Z</time>
      </trkpt>
      <trkpt lat="42.92934" lon="0.18062">
        <ele>1572</ele>
        <time>2014-03-29T09:27:31Z</time>
      </trkpt>
      <trkpt lat="42.92943" lon="0.18048">
        <ele>1572</ele>
        <time>2014-03-29T09:27:43Z</time>
      </trkpt>
      <trkpt lat="42.9295" lon="0.18034">
        <ele>1573</ele>
        <time>2014-03-29T09:27:56Z</time>
      </trkpt>
      <trkpt lat="42.92953" lon="0.18026">
        <ele>1574</ele>
        <time>2014-03-29T09:28:03Z</time>
      </trkpt>
      <trkpt lat="42.92955" lon="0.18018">
        <ele>1574</ele>
        <time>2014-03-29T09:28:12Z</time>
      </trkpt>
      <trkpt lat="42.92957" lon="0.18012">
        <ele>1574</ele>
        <time>2014-03-29T09:28:17Z</time>
      </trkpt>
      <trkpt lat="42.92957" lon="0.18002">
        <ele>1575</ele>
        <time>2014-03-29T09:28:25Z</time>
      </trkpt>
      <trkpt lat="42.92961" lon="0.17995">
        <ele>1576</ele>
        <time>2014-03-29T09:28:36Z</time>
      </trkpt>
      <trkpt lat="42.92966" lon="0.17986">
        <ele>1577</ele>
        <time>2014-03-29T09:28:48Z</time>
      </trkpt>
      <trkpt lat="42.92968" lon="0.17981">
        <ele>1577</ele>
        <time>2014-03-29T09:28:52Z</time>
      </trkpt>
      <trkpt lat="42.92967" lon="0.17977">
        <ele>1577</ele>
        <time>2014-03-29T09:28:57Z</time>
      </trkpt>
      <trkpt lat="42.92971" lon="0.17966">
        <ele>1579</ele>
        <time>2014-03-29T09:29:07Z</time>
      </trkpt>
      <trkpt lat="42.92976" lon="0.17949">
        <ele>1580</ele>
        <time>2014-03-29T09:29:22Z</time>
      </trkpt>
      <trkpt lat="42.92979" lon="0.17936">
        <ele>1581</ele>
        <time>2014-03-29T09:29:34Z</time>
      </trkpt>
      <trkpt lat="42.92984" lon="0.17921">
        <ele>1581</ele>
        <time>2014-03-29T09:29:47Z</time>
      </trkpt>
      <trkpt lat="42.92985" lon="0.1792">
        <ele>1582</ele>
        <time>2014-03-29T09:29:48Z</time>
      </trkpt>
      <trkpt lat="42.92989" lon="0.17913">
        <ele>1583</ele>
        <time>2014-03-29T09:29:55Z</time>
      </trkpt>
      <trkpt lat="42.92991" lon="0.17909">
        <ele>1581</ele>
        <time>2014-03-29T09:29:58Z</time>
      </trkpt>
      <trkpt lat="42.92995" lon="0.17903">
        <ele>1581</ele>
        <time>2014-03-29T09:30:06Z</time>
      </trkpt>
      <trkpt lat="42.92999" lon="0.17892">
        <ele>1582</ele>
        <time>2014-03-29T09:30:18Z</time>
      </trkpt>
      <trkpt lat="42.93001" lon="0.17888">
        <ele>1582</ele>
        <time>2014-03-29T09:30:22Z</time>
      </trkpt>
      <trkpt lat="42.93009" lon="0.17881">
        <ele>1586</ele>
        <time>2014-03-29T09:30:34Z</time>
      </trkpt>
      <trkpt lat="42.93012" lon="0.17876">
        <ele>1590</ele>
        <time>2014-03-29T09:30:40Z</time>
      </trkpt>
      <trkpt lat="42.93012" lon="0.17875">
        <ele>1589</ele>
        <time>2014-03-29T09:30:41Z</time>
      </trkpt>
      <trkpt lat="42.93012" lon="0.17872">
        <ele>1594</ele>
        <time>2014-03-29T09:30:45Z</time>
      </trkpt>
      <trkpt lat="42.93018" lon="0.17862">
        <ele>1594</ele>
        <time>2014-03-29T09:30:57Z</time>
      </trkpt>
      <trkpt lat="42.93022" lon="0.17853">
        <ele>1591</ele>
        <time>2014-03-29T09:31:06Z</time>
      </trkpt>
      <trkpt lat="42.93028" lon="0.17839">
        <ele>1589</ele>
        <time>2014-03-29T09:31:19Z</time>
      </trkpt>
      <trkpt lat="42.93034" lon="0.17828">
        <ele>1589</ele>
        <time>2014-03-29T09:31:31Z</time>
      </trkpt>
      <trkpt lat="42.93041" lon="0.17814">
        <ele>1588</ele>
        <time>2014-03-29T09:31:44Z</time>
      </trkpt>
      <trkpt lat="42.93047" lon="0.17801">
        <ele>1591</ele>
        <time>2014-03-29T09:31:58Z</time>
      </trkpt>
      <trkpt lat="42.93053" lon="0.1779">
        <ele>1592</ele>
        <time>2014-03-29T09:32:12Z</time>
      </trkpt>
      <trkpt lat="42.93059" lon="0.1778">
        <ele>1593</ele>
        <time>2014-03-29T09:32:24Z</time>
      </trkpt>
      <trkpt lat="42.93061" lon="0.17778">
        <ele>1593</ele>
        <time>2014-03-29T09:32:27Z</time>
      </trkpt>
      <trkpt lat="42.93067" lon="0.17765">
        <ele>1593</ele>
        <time>2014-03-29T09:32:40Z</time>
      </trkpt>
      <trkpt lat="42.9307" lon="0.1776">
        <ele>1594</ele>
        <time>2014-03-29T09:32:45Z</time>
      </trkpt>
      <trkpt lat="42.93077" lon="0.17746">
        <ele>1594</ele>
        <time>2014-03-29T09:32:59Z</time>
      </trkpt>
      <trkpt lat="42.93081" lon="0.17738">
        <ele>1596</ele>
        <time>2014-03-29T09:33:06Z</time>
      </trkpt>
      <trkpt lat="42.93084" lon="0.1773">
        <ele>1598</ele>
        <time>2014-03-29T09:33:12Z</time>
      </trkpt>
      <trkpt lat="42.93088" lon="0.17722">
        <ele>1598</ele>
        <time>2014-03-29T09:33:21Z</time>
      </trkpt>
      <trkpt lat="42.9309" lon="0.17718">
        <ele>1599</ele>
        <time>2014-03-29T09:33:25Z</time>
      </trkpt>
      <trkpt lat="42.93093" lon="0.17712">
        <ele>1601</ele>
        <time>2014-03-29T09:33:31Z</time>
      </trkpt>
      <trkpt lat="42.93095" lon="0.17708">
        <ele>1602</ele>
        <time>2014-03-29T09:33:34Z</time>
      </trkpt>
      <trkpt lat="42.93095" lon="0.17706">
        <ele>1601</ele>
        <time>2014-03-29T09:33:36Z</time>
      </trkpt>
      <trkpt lat="42.931" lon="0.17693">
        <ele>1604</ele>
        <time>2014-03-29T09:33:48Z</time>
      </trkpt>
      <trkpt lat="42.93108" lon="0.17679">
        <ele>1606</ele>
        <time>2014-03-29T09:34:00Z</time>
      </trkpt>
      <trkpt lat="42.93115" lon="0.17664">
        <ele>1606</ele>
        <time>2014-03-29T09:34:13Z</time>
      </trkpt>
      <trkpt lat="42.9312" lon="0.1765">
        <ele>1607</ele>
        <time>2014-03-29T09:34:25Z</time>
      </trkpt>
      <trkpt lat="42.93126" lon="0.17638">
        <ele>1606</ele>
        <time>2014-03-29T09:34:37Z</time>
      </trkpt>
      <trkpt lat="42.93127" lon="0.17636">
        <ele>1605</ele>
        <time>2014-03-29T09:34:38Z</time>
      </trkpt>
      <trkpt lat="42.93131" lon="0.17623">
        <ele>1605</ele>
        <time>2014-03-29T09:34:52Z</time>
      </trkpt>
      <trkpt lat="42.93136" lon="0.17606">
        <ele>1605</ele>
        <time>2014-03-29T09:35:06Z</time>
      </trkpt>
      <trkpt lat="42.93139" lon="0.17595">
        <ele>1606</ele>
        <time>2014-03-29T09:35:18Z</time>
      </trkpt>
      <trkpt lat="42.93145" lon="0.17587">
        <ele>1607</ele>
        <time>2014-03-29T09:35:31Z</time>
      </trkpt>
      <trkpt lat="42.93151" lon="0.17578">
        <ele>1608</ele>
        <time>2014-03-29T09:35:41Z</time>
      </trkpt>
      <trkpt lat="42.93157" lon="0.17565">
        <ele>1608</ele>
        <time>2014-03-29T09:35:54Z</time>
      </trkpt>
      <trkpt lat="42.93163" lon="0.17547">
        <ele>1608</ele>
        <time>2014-03-29T09:36:07Z</time>
      </trkpt>
      <trkpt lat="42.93168" lon="0.17539">
        <ele>1608</ele>
        <time>2014-03-29T09:36:18Z</time>
      </trkpt>
      <trkpt lat="42.93172" lon="0.17539">
        <ele>1606</ele>
        <time>2014-03-29T09:36:25Z</time>
      </trkpt>
      <trkpt lat="42.93176" lon="0.17539">
        <ele>1605</ele>
        <time>2014-03-29T09:36:29Z</time>
      </trkpt>
      <trkpt lat="42.93183" lon="0.17537">
        <ele>1604</ele>
        <time>2014-03-29T09:36:39Z</time>
      </trkpt>
      <trkpt lat="42.93184" lon="0.17535">
        <ele>1604</ele>
        <time>2014-03-29T09:36:41Z</time>
      </trkpt>
      <trkpt lat="42.93187" lon="0.17529">
        <ele>1607</ele>
        <time>2014-03-29T09:36:49Z</time>
      </trkpt>
      <trkpt lat="42.93188" lon="0.17518">
        <ele>1607</ele>
        <time>2014-03-29T09:37:01Z</time>
      </trkpt>
      <trkpt lat="42.93192" lon="0.1751">
        <ele>1608</ele>
        <time>2014-03-29T09:37:16Z</time>
      </trkpt>
      <trkpt lat="42.93198" lon="0.17509">
        <ele>1608</ele>
        <time>2014-03-29T09:37:23Z</time>
      </trkpt>
      <trkpt lat="42.93205" lon="0.1751">
        <ele>1610</ele>
        <time>2014-03-29T09:37:32Z</time>
      </trkpt>
      <trkpt lat="42.93208" lon="0.17502">
        <ele>1613</ele>
        <time>2014-03-29T09:37:45Z</time>
      </trkpt>
      <trkpt lat="42.93207" lon="0.17494">
        <ele>1613</ele>
        <time>2014-03-29T09:37:55Z</time>
      </trkpt>
      <trkpt lat="42.93207" lon="0.17483">
        <ele>1615</ele>
        <time>2014-03-29T09:38:07Z</time>
      </trkpt>
      <trkpt lat="42.9321" lon="0.17474">
        <ele>1619</ele>
        <time>2014-03-29T09:38:16Z</time>
      </trkpt>
      <trkpt lat="42.93213" lon="0.17464">
        <ele>1622</ele>
        <time>2014-03-29T09:38:25Z</time>
      </trkpt>
      <trkpt lat="42.93214" lon="0.17451">
        <ele>1622</ele>
        <time>2014-03-29T09:38:35Z</time>
      </trkpt>
      <trkpt lat="42.93218" lon="0.17432">
        <ele>1624</ele>
        <time>2014-03-29T09:38:49Z</time>
      </trkpt>
      <trkpt lat="42.93221" lon="0.17419">
        <ele>1626</ele>
        <time>2014-03-29T09:39:01Z</time>
      </trkpt>
      <trkpt lat="42.93225" lon="0.17407">
        <ele>1623</ele>
        <time>2014-03-29T09:39:11Z</time>
      </trkpt>
      <trkpt lat="42.93225" lon="0.174">
        <ele>1621</ele>
        <time>2014-03-29T09:39:17Z</time>
      </trkpt>
      <trkpt lat="42.93227" lon="0.17393">
        <ele>1621</ele>
        <time>2014-03-29T09:39:25Z</time>
      </trkpt>
      <trkpt lat="42.93228" lon="0.17387">
        <ele>1621</ele>
        <time>2014-03-29T09:39:30Z</time>
      </trkpt>
      <trkpt lat="42.9323" lon="0.17376">
        <ele>1620</ele>
        <time>2014-03-29T09:39:40Z</time>
      </trkpt>
      <trkpt lat="42.93234" lon="0.17363">
        <ele>1620</ele>
        <time>2014-03-29T09:39:53Z</time>
      </trkpt>
      <trkpt lat="42.93235" lon="0.17359">
        <ele>1620</ele>
        <time>2014-03-29T09:39:56Z</time>
      </trkpt>
      <trkpt lat="42.93237" lon="0.17356">
        <ele>1620</ele>
        <time>2014-03-29T09:40:00Z</time>
      </trkpt>
      <trkpt lat="42.93245" lon="0.1734">
        <ele>1619</ele>
        <time>2014-03-29T09:40:13Z</time>
      </trkpt>
      <trkpt lat="42.93247" lon="0.1733">
        <ele>1620</ele>
        <time>2014-03-29T09:40:21Z</time>
      </trkpt>
      <trkpt lat="42.93249" lon="0.17327">
        <ele>1621</ele>
        <time>2014-03-29T09:40:24Z</time>
      </trkpt>
      <trkpt lat="42.93253" lon="0.17315">
        <ele>1621</ele>
        <time>2014-03-29T09:40:36Z</time>
      </trkpt>
      <trkpt lat="42.93254" lon="0.17311">
        <ele>1625</ele>
        <time>2014-03-29T09:40:40Z</time>
      </trkpt>
      <trkpt lat="42.93253" lon="0.17304">
        <ele>1622</ele>
        <time>2014-03-29T09:40:46Z</time>
      </trkpt>
      <trkpt lat="42.93255" lon="0.17298">
        <ele>1622</ele>
        <time>2014-03-29T09:40:52Z</time>
      </trkpt>
      <trkpt lat="42.9326" lon="0.17284">
        <ele>1621</ele>
        <time>2014-03-29T09:41:03Z</time>
      </trkpt>
      <trkpt lat="42.93264" lon="0.17272">
        <ele>1619</ele>
        <time>2014-03-29T09:41:14Z</time>
      </trkpt>
      <trkpt lat="42.93266" lon="0.17264">
        <ele>1620</ele>
        <time>2014-03-29T09:41:21Z</time>
      </trkpt>
      <trkpt lat="42.93267" lon="0.17255">
        <ele>1624</ele>
        <time>2014-03-29T09:41:30Z</time>
      </trkpt>
      <trkpt lat="42.93267" lon="0.1724">
        <ele>1625</ele>
        <time>2014-03-29T09:41:43Z</time>
      </trkpt>
      <trkpt lat="42.93267" lon="0.17228">
        <ele>1627</ele>
        <time>2014-03-29T09:41:55Z</time>
      </trkpt>
      <trkpt lat="42.93267" lon="0.17221">
        <ele>1630</ele>
        <time>2014-03-29T09:42:02Z</time>
      </trkpt>
      <trkpt lat="42.93267" lon="0.17214">
        <ele>1627</ele>
        <time>2014-03-29T09:42:10Z</time>
      </trkpt>
      <trkpt lat="42.93267" lon="0.17206">
        <ele>1630</ele>
        <time>2014-03-29T09:42:18Z</time>
      </trkpt>
      <trkpt lat="42.93267" lon="0.17194">
        <ele>1631</ele>
        <time>2014-03-29T09:42:30Z</time>
      </trkpt>
      <trkpt lat="42.9327" lon="0.17182">
        <ele>1632</ele>
        <time>2014-03-29T09:42:42Z</time>
      </trkpt>
      <trkpt lat="42.93272" lon="0.17171">
        <ele>1632</ele>
        <time>2014-03-29T09:42:52Z</time>
      </trkpt>
      <trkpt lat="42.93273" lon="0.17166">
        <ele>1631</ele>
        <time>2014-03-29T09:42:56Z</time>
      </trkpt>
      <trkpt lat="42.93274" lon="0.1715">
        <ele>1628</ele>
        <time>2014-03-29T09:43:11Z</time>
      </trkpt>
      <trkpt lat="42.93273" lon="0.17149">
        <ele>1628</ele>
        <time>2014-03-29T09:43:12Z</time>
      </trkpt>
      <trkpt lat="42.93272" lon="0.17142">
        <ele>1627</ele>
        <time>2014-03-29T09:43:21Z</time>
      </trkpt>
      <trkpt lat="42.93268" lon="0.17135">
        <ele>1626</ele>
        <time>2014-03-29T09:43:32Z</time>
      </trkpt>
      <trkpt lat="42.93268" lon="0.17133">
        <ele>1628</ele>
        <time>2014-03-29T09:43:34Z</time>
      </trkpt>
      <trkpt lat="42.9327" lon="0.1712">
        <ele>1628</ele>
        <time>2014-03-29T09:43:46Z</time>
      </trkpt>
      <trkpt lat="42.93269" lon="0.17108">
        <ele>1631</ele>
        <time>2014-03-29T09:43:57Z</time>
      </trkpt>
      <trkpt lat="42.93269" lon="0.17102">
        <ele>1631</ele>
        <time>2014-03-29T09:44:02Z</time>
      </trkpt>
      <trkpt lat="42.93269" lon="0.17096">
        <ele>1633</ele>
        <time>2014-03-29T09:44:09Z</time>
      </trkpt>
      <trkpt lat="42.9327" lon="0.17088">
        <ele>1634</ele>
        <time>2014-03-29T09:44:19Z</time>
      </trkpt>
      <trkpt lat="42.93271" lon="0.17076">
        <ele>1638</ele>
        <time>2014-03-29T09:44:30Z</time>
      </trkpt>
      <trkpt lat="42.93272" lon="0.17069">
        <ele>1641</ele>
        <time>2014-03-29T09:44:38Z</time>
      </trkpt>
      <trkpt lat="42.93274" lon="0.17059">
        <ele>1643</ele>
        <time>2014-03-29T09:44:50Z</time>
      </trkpt>
      <trkpt lat="42.93274" lon="0.17048">
        <ele>1644</ele>
        <time>2014-03-29T09:45:03Z</time>
      </trkpt>
      <trkpt lat="42.93274" lon="0.17043">
        <ele>1648</ele>
        <time>2014-03-29T09:45:09Z</time>
      </trkpt>
      <trkpt lat="42.93273" lon="0.17042">
        <ele>1648</ele>
        <time>2014-03-29T09:45:10Z</time>
      </trkpt>
      <trkpt lat="42.93271" lon="0.1703">
        <ele>1650</ele>
        <time>2014-03-29T09:45:23Z</time>
      </trkpt>
      <trkpt lat="42.93272" lon="0.17019">
        <ele>1650</ele>
        <time>2014-03-29T09:45:35Z</time>
      </trkpt>
      <trkpt lat="42.93269" lon="0.17012">
        <ele>1649</ele>
        <time>2014-03-29T09:45:41Z</time>
      </trkpt>
      <trkpt lat="42.9327" lon="0.16996">
        <ele>1650</ele>
        <time>2014-03-29T09:45:55Z</time>
      </trkpt>
      <trkpt lat="42.93275" lon="0.16986">
        <ele>1649</ele>
        <time>2014-03-29T09:46:07Z</time>
      </trkpt>
      <trkpt lat="42.93276" lon="0.16978">
        <ele>1650</ele>
        <time>2014-03-29T09:46:16Z</time>
      </trkpt>
      <trkpt lat="42.93275" lon="0.16967">
        <ele>1651</ele>
        <time>2014-03-29T09:46:29Z</time>
      </trkpt>
      <trkpt lat="42.93271" lon="0.16964">
        <ele>1652</ele>
        <time>2014-03-29T09:46:40Z</time>
      </trkpt>
      <trkpt lat="42.93276" lon="0.16958">
        <ele>1655</ele>
        <time>2014-03-29T09:46:48Z</time>
      </trkpt>
      <trkpt lat="42.93275" lon="0.16955">
        <ele>1654</ele>
        <time>2014-03-29T09:46:53Z</time>
      </trkpt>
      <trkpt lat="42.93273" lon="0.1695">
        <ele>1652</ele>
        <time>2014-03-29T09:47:00Z</time>
      </trkpt>
      <trkpt lat="42.93272" lon="0.16946">
        <ele>1656</ele>
        <time>2014-03-29T09:47:05Z</time>
      </trkpt>
      <trkpt lat="42.9327" lon="0.16943">
        <ele>1657</ele>
        <time>2014-03-29T09:47:08Z</time>
      </trkpt>
      <trkpt lat="42.93269" lon="0.16941">
        <ele>1660</ele>
        <time>2014-03-29T09:47:12Z</time>
      </trkpt>
      <trkpt lat="42.93269" lon="0.1694">
        <ele>1656</ele>
        <time>2014-03-29T09:47:14Z</time>
      </trkpt>
      <trkpt lat="42.93269" lon="0.16939">
        <ele>1656</ele>
        <time>2014-03-29T09:47:15Z</time>
      </trkpt>
      <trkpt lat="42.93267" lon="0.16935">
        <ele>1656</ele>
        <time>2014-03-29T09:47:21Z</time>
      </trkpt>
      <trkpt lat="42.93263" lon="0.1693">
        <ele>1658</ele>
        <time>2014-03-29T09:47:27Z</time>
      </trkpt>
      <trkpt lat="42.93263" lon="0.16925">
        <ele>1659</ele>
        <time>2014-03-29T09:47:31Z</time>
      </trkpt>
      <trkpt lat="42.93263" lon="0.16922">
        <ele>1660</ele>
        <time>2014-03-29T09:47:34Z</time>
      </trkpt>
      <trkpt lat="42.93266" lon="0.1691">
        <ele>1663</ele>
        <time>2014-03-29T09:47:46Z</time>
      </trkpt>
      <trkpt lat="42.93269" lon="0.16906">
        <ele>1665</ele>
        <time>2014-03-29T09:47:59Z</time>
      </trkpt>
      <trkpt lat="42.9327" lon="0.16896">
        <ele>1667</ele>
        <time>2014-03-29T09:48:10Z</time>
      </trkpt>
      <trkpt lat="42.93275" lon="0.16882">
        <ele>1667</ele>
        <time>2014-03-29T09:48:23Z</time>
      </trkpt>
      <trkpt lat="42.93278" lon="0.16867">
        <ele>1669</ele>
        <time>2014-03-29T09:48:36Z</time>
      </trkpt>
      <trkpt lat="42.93282" lon="0.16852">
        <ele>1668</ele>
        <time>2014-03-29T09:48:49Z</time>
      </trkpt>
      <trkpt lat="42.93284" lon="0.16846">
        <ele>1671</ele>
        <time>2014-03-29T09:48:54Z</time>
      </trkpt>
      <trkpt lat="42.93285" lon="0.16841">
        <ele>1672</ele>
        <time>2014-03-29T09:49:00Z</time>
      </trkpt>
      <trkpt lat="42.93288" lon="0.16835">
        <ele>1675</ele>
        <time>2014-03-29T09:49:05Z</time>
      </trkpt>
      <trkpt lat="42.93292" lon="0.16831">
        <ele>1671</ele>
        <time>2014-03-29T09:49:08Z</time>
      </trkpt>
      <trkpt lat="42.93293" lon="0.16827">
        <ele>1668</ele>
        <time>2014-03-29T09:49:11Z</time>
      </trkpt>
      <trkpt lat="42.93294" lon="0.1682">
        <ele>1668</ele>
        <time>2014-03-29T09:49:18Z</time>
      </trkpt>
      <trkpt lat="42.93296" lon="0.16809">
        <ele>1668</ele>
        <time>2014-03-29T09:49:27Z</time>
      </trkpt>
      <trkpt lat="42.93298" lon="0.16806">
        <ele>1668</ele>
        <time>2014-03-29T09:49:30Z</time>
      </trkpt>
      <trkpt lat="42.93309" lon="0.16797">
        <ele>1669</ele>
        <time>2014-03-29T09:49:40Z</time>
      </trkpt>
      <trkpt lat="42.93318" lon="0.16784">
        <ele>1668</ele>
        <time>2014-03-29T09:49:50Z</time>
      </trkpt>
      <trkpt lat="42.93321" lon="0.16774">
        <ele>1665</ele>
        <time>2014-03-29T09:49:59Z</time>
      </trkpt>
      <trkpt lat="42.93322" lon="0.16773">
        <ele>1665</ele>
        <time>2014-03-29T09:50:00Z</time>
      </trkpt>
      <trkpt lat="42.93327" lon="0.16761">
        <ele>1664</ele>
        <time>2014-03-29T09:50:12Z</time>
      </trkpt>
      <trkpt lat="42.93328" lon="0.16759">
        <ele>1666</ele>
        <time>2014-03-29T09:50:15Z</time>
      </trkpt>
      <trkpt lat="42.93328" lon="0.16749">
        <ele>1669</ele>
        <time>2014-03-29T09:50:26Z</time>
      </trkpt>
      <trkpt lat="42.93328" lon="0.16748">
        <ele>1669</ele>
        <time>2014-03-29T09:50:27Z</time>
      </trkpt>
      <trkpt lat="42.93331" lon="0.16735">
        <ele>1670</ele>
        <time>2014-03-29T09:50:39Z</time>
      </trkpt>
      <trkpt lat="42.93337" lon="0.16723">
        <ele>1668</ele>
        <time>2014-03-29T09:50:51Z</time>
      </trkpt>
      <trkpt lat="42.93342" lon="0.16712">
        <ele>1668</ele>
        <time>2014-03-29T09:51:02Z</time>
      </trkpt>
      <trkpt lat="42.93346" lon="0.167">
        <ele>1671</ele>
        <time>2014-03-29T09:51:12Z</time>
      </trkpt>
      <trkpt lat="42.93347" lon="0.16696">
        <ele>1671</ele>
        <time>2014-03-29T09:51:16Z</time>
      </trkpt>
      <trkpt lat="42.9335" lon="0.16685">
        <ele>1675</ele>
        <time>2014-03-29T09:51:30Z</time>
      </trkpt>
      <trkpt lat="42.93352" lon="0.1668">
        <ele>1676</ele>
        <time>2014-03-29T09:51:41Z</time>
      </trkpt>
      <trkpt lat="42.93356" lon="0.16676">
        <ele>1679</ele>
        <time>2014-03-29T09:51:50Z</time>
      </trkpt>
      <trkpt lat="42.9336" lon="0.16669">
        <ele>1679</ele>
        <time>2014-03-29T09:52:00Z</time>
      </trkpt>
      <trkpt lat="42.93362" lon="0.16667">
        <ele>1683</ele>
        <time>2014-03-29T09:52:05Z</time>
      </trkpt>
      <trkpt lat="42.93362" lon="0.16666">
        <ele>1687</ele>
        <time>2014-03-29T09:52:08Z</time>
      </trkpt>
      <trkpt lat="42.93363" lon="0.16666">
        <ele>1686</ele>
        <time>2014-03-29T09:52:09Z</time>
      </trkpt>
      <trkpt lat="42.93369" lon="0.16658">
        <ele>1686</ele>
        <time>2014-03-29T09:52:20Z</time>
      </trkpt>
      <trkpt lat="42.93372" lon="0.16654">
        <ele>1684</ele>
        <time>2014-03-29T09:52:26Z</time>
      </trkpt>
      <trkpt lat="42.93375" lon="0.1665">
        <ele>1682</ele>
        <time>2014-03-29T09:52:32Z</time>
      </trkpt>
      <trkpt lat="42.93383" lon="0.16643">
        <ele>1683</ele>
        <time>2014-03-29T09:52:45Z</time>
      </trkpt>
      <trkpt lat="42.93388" lon="0.16641">
        <ele>1686</ele>
        <time>2014-03-29T09:52:55Z</time>
      </trkpt>
      <trkpt lat="42.93391" lon="0.16641">
        <ele>1688</ele>
        <time>2014-03-29T09:52:57Z</time>
      </trkpt>
      <trkpt lat="42.93395" lon="0.16637">
        <ele>1692</ele>
        <time>2014-03-29T09:53:03Z</time>
      </trkpt>
      <trkpt lat="42.93395" lon="0.16635">
        <ele>1692</ele>
        <time>2014-03-29T09:53:04Z</time>
      </trkpt>
      <trkpt lat="42.93397" lon="0.16634">
        <ele>1695</ele>
        <time>2014-03-29T09:53:06Z</time>
      </trkpt>
      <trkpt lat="42.93401" lon="0.16631">
        <ele>1692</ele>
        <time>2014-03-29T09:53:13Z</time>
      </trkpt>
      <trkpt lat="42.93404" lon="0.16629">
        <ele>1690</ele>
        <time>2014-03-29T09:53:18Z</time>
      </trkpt>
      <trkpt lat="42.9341" lon="0.16622">
        <ele>1691</ele>
        <time>2014-03-29T09:53:30Z</time>
      </trkpt>
      <trkpt lat="42.93414" lon="0.16615">
        <ele>1692</ele>
        <time>2014-03-29T09:53:43Z</time>
      </trkpt>
      <trkpt lat="42.93416" lon="0.16609">
        <ele>1694</ele>
        <time>2014-03-29T09:53:53Z</time>
      </trkpt>
      <trkpt lat="42.93425" lon="0.16602">
        <ele>1694</ele>
        <time>2014-03-29T09:54:05Z</time>
      </trkpt>
      <trkpt lat="42.9343" lon="0.16594">
        <ele>1694</ele>
        <time>2014-03-29T09:54:17Z</time>
      </trkpt>
      <trkpt lat="42.9343" lon="0.16588">
        <ele>1696</ele>
        <time>2014-03-29T09:54:25Z</time>
      </trkpt>
      <trkpt lat="42.93433" lon="0.16584">
        <ele>1697</ele>
        <time>2014-03-29T09:54:36Z</time>
      </trkpt>
      <trkpt lat="42.93435" lon="0.16579">
        <ele>1700</ele>
        <time>2014-03-29T09:54:46Z</time>
      </trkpt>
      <trkpt lat="42.93437" lon="0.16573">
        <ele>1701</ele>
        <time>2014-03-29T09:54:50Z</time>
      </trkpt>
      <trkpt lat="42.93439" lon="0.16569">
        <ele>1699</ele>
        <time>2014-03-29T09:54:54Z</time>
      </trkpt>
      <trkpt lat="42.93443" lon="0.16562">
        <ele>1703</ele>
        <time>2014-03-29T09:55:02Z</time>
      </trkpt>
      <trkpt lat="42.93448" lon="0.16555">
        <ele>1703</ele>
        <time>2014-03-29T09:55:15Z</time>
      </trkpt>
      <trkpt lat="42.9345" lon="0.16548">
        <ele>1704</ele>
        <time>2014-03-29T09:55:26Z</time>
      </trkpt>
      <trkpt lat="42.93456" lon="0.16541">
        <ele>1706</ele>
        <time>2014-03-29T09:55:38Z</time>
      </trkpt>
      <trkpt lat="42.93461" lon="0.16536">
        <ele>1706</ele>
        <time>2014-03-29T09:55:50Z</time>
      </trkpt>
      <trkpt lat="42.9346" lon="0.16531">
        <ele>1707</ele>
        <time>2014-03-29T09:56:11Z</time>
      </trkpt>
      <trkpt lat="42.93462" lon="0.1653">
        <ele>1710</ele>
        <time>2014-03-29T09:56:20Z</time>
      </trkpt>
      <trkpt lat="42.93461" lon="0.16534">
        <ele>1714</ele>
        <time>2014-03-29T09:56:34Z</time>
      </trkpt>
      <trkpt lat="42.93461" lon="0.16532">
        <ele>1715</ele>
        <time>2014-03-29T09:56:36Z</time>
      </trkpt>
      <trkpt lat="42.93462" lon="0.16533">
        <ele>1718</ele>
        <time>2014-03-29T09:56:39Z</time>
      </trkpt>
      <trkpt lat="42.93461" lon="0.16533">
        <ele>1716</ele>
        <time>2014-03-29T09:56:41Z</time>
      </trkpt>
      <trkpt lat="42.93461" lon="0.16533">
        <ele>1715</ele>
        <time>2014-03-29T09:56:47Z</time>
      </trkpt>
      <trkpt lat="42.93465" lon="0.16534">
        <ele>1711</ele>
        <time>2014-03-29T09:56:54Z</time>
      </trkpt>
      <trkpt lat="42.93465" lon="0.16534">
        <ele>1712</ele>
        <time>2014-03-29T09:56:55Z</time>
      </trkpt>
      <trkpt lat="42.93463" lon="0.16532">
        <ele>1708</ele>
        <time>2014-03-29T09:57:03Z</time>
      </trkpt>
      <trkpt lat="42.93462" lon="0.16533">
        <ele>1707</ele>
        <time>2014-03-29T09:57:20Z</time>
      </trkpt>
      <trkpt lat="42.93468" lon="0.16529">
        <ele>1709</ele>
        <time>2014-03-29T09:57:31Z</time>
      </trkpt>
      <trkpt lat="42.93468" lon="0.16528">
        <ele>1709</ele>
        <time>2014-03-29T09:57:32Z</time>
      </trkpt>
      <trkpt lat="42.93469" lon="0.16527">
        <ele>1709</ele>
        <time>2014-03-29T09:57:35Z</time>
      </trkpt>
      <trkpt lat="42.93476" lon="0.1652">
        <ele>1711</ele>
        <time>2014-03-29T09:57:47Z</time>
      </trkpt>
      <trkpt lat="42.9348" lon="0.16519">
        <ele>1713</ele>
        <time>2014-03-29T09:57:51Z</time>
      </trkpt>
      <trkpt lat="42.93482" lon="0.16517">
        <ele>1714</ele>
        <time>2014-03-29T09:57:54Z</time>
      </trkpt>
      <trkpt lat="42.93491" lon="0.16514">
        <ele>1715</ele>
        <time>2014-03-29T09:58:05Z</time>
      </trkpt>
      <trkpt lat="42.93496" lon="0.1651">
        <ele>1717</ele>
        <time>2014-03-29T09:58:18Z</time>
      </trkpt>
      <trkpt lat="42.93503" lon="0.16506">
        <ele>1718</ele>
        <time>2014-03-29T09:58:30Z</time>
      </trkpt>
      <trkpt lat="42.93512" lon="0.165">
        <ele>1719</ele>
        <time>2014-03-29T09:58:42Z</time>
      </trkpt>
      <trkpt lat="42.93514" lon="0.16496">
        <ele>1719</ele>
        <time>2014-03-29T09:58:53Z</time>
      </trkpt>
      <trkpt lat="42.9352" lon="0.16492">
        <ele>1722</ele>
        <time>2014-03-29T09:59:01Z</time>
      </trkpt>
      <trkpt lat="42.93525" lon="0.16485">
        <ele>1722</ele>
        <time>2014-03-29T09:59:14Z</time>
      </trkpt>
      <trkpt lat="42.93528" lon="0.16481">
        <ele>1723</ele>
        <time>2014-03-29T09:59:22Z</time>
      </trkpt>
      <trkpt lat="42.93531" lon="0.16479">
        <ele>1722</ele>
        <time>2014-03-29T09:59:25Z</time>
      </trkpt>
      <trkpt lat="42.93531" lon="0.16477">
        <ele>1725</ele>
        <time>2014-03-29T09:59:29Z</time>
      </trkpt>
      <trkpt lat="42.93537" lon="0.16474">
        <ele>1727</ele>
        <time>2014-03-29T09:59:36Z</time>
      </trkpt>
      <trkpt lat="42.93539" lon="0.16473">
        <ele>1724</ele>
        <time>2014-03-29T09:59:39Z</time>
      </trkpt>
      <trkpt lat="42.9354" lon="0.16472">
        <ele>1726</ele>
        <time>2014-03-29T09:59:42Z</time>
      </trkpt>
      <trkpt lat="42.93543" lon="0.16468">
        <ele>1727</ele>
        <time>2014-03-29T09:59:47Z</time>
      </trkpt>
      <trkpt lat="42.93546" lon="0.16465">
        <ele>1729</ele>
        <time>2014-03-29T09:59:53Z</time>
      </trkpt>
      <trkpt lat="42.93549" lon="0.1646">
        <ele>1727</ele>
        <time>2014-03-29T10:00:03Z</time>
      </trkpt>
      <trkpt lat="42.93558" lon="0.16452">
        <ele>1728</ele>
        <time>2014-03-29T10:00:16Z</time>
      </trkpt>
      <trkpt lat="42.9356" lon="0.16451">
        <ele>1731</ele>
        <time>2014-03-29T10:00:20Z</time>
      </trkpt>
      <trkpt lat="42.93564" lon="0.16443">
        <ele>1731</ele>
        <time>2014-03-29T10:00:32Z</time>
      </trkpt>
      <trkpt lat="42.93565" lon="0.16442">
        <ele>1732</ele>
        <time>2014-03-29T10:00:34Z</time>
      </trkpt>
      <trkpt lat="42.9357" lon="0.16433">
        <ele>1733</ele>
        <time>2014-03-29T10:00:48Z</time>
      </trkpt>
      <trkpt lat="42.9357" lon="0.16425">
        <ele>1735</ele>
        <time>2014-03-29T10:00:55Z</time>
      </trkpt>
      <trkpt lat="42.93575" lon="0.16414">
        <ele>1736</ele>
        <time>2014-03-29T10:01:08Z</time>
      </trkpt>
      <trkpt lat="42.93576" lon="0.16413">
        <ele>1736</ele>
        <time>2014-03-29T10:01:09Z</time>
      </trkpt>
      <trkpt lat="42.93579" lon="0.164">
        <ele>1739</ele>
        <time>2014-03-29T10:01:22Z</time>
      </trkpt>
      <trkpt lat="42.93586" lon="0.16393">
        <ele>1742</ele>
        <time>2014-03-29T10:01:33Z</time>
      </trkpt>
      <trkpt lat="42.93594" lon="0.16386">
        <ele>1745</ele>
        <time>2014-03-29T10:01:45Z</time>
      </trkpt>
      <trkpt lat="42.93597" lon="0.16379">
        <ele>1748</ele>
        <time>2014-03-29T10:01:57Z</time>
      </trkpt>
      <trkpt lat="42.93602" lon="0.16373">
        <ele>1747</ele>
        <time>2014-03-29T10:02:10Z</time>
      </trkpt>
      <trkpt lat="42.93602" lon="0.16375">
        <ele>1751</ele>
        <time>2014-03-29T10:02:19Z</time>
      </trkpt>
      <trkpt lat="42.93608" lon="0.16368">
        <ele>1750</ele>
        <time>2014-03-29T10:02:36Z</time>
      </trkpt>
      <trkpt lat="42.93617" lon="0.16365">
        <ele>1750</ele>
        <time>2014-03-29T10:02:50Z</time>
      </trkpt>
      <trkpt lat="42.93618" lon="0.1636">
        <ele>1749</ele>
        <time>2014-03-29T10:03:04Z</time>
      </trkpt>
      <trkpt lat="42.9363" lon="0.16352">
        <ele>1751</ele>
        <time>2014-03-29T10:03:19Z</time>
      </trkpt>
      <trkpt lat="42.93636" lon="0.16349">
        <ele>1754</ele>
        <time>2014-03-29T10:03:25Z</time>
      </trkpt>
      <trkpt lat="42.93642" lon="0.16346">
        <ele>1754</ele>
        <time>2014-03-29T10:03:32Z</time>
      </trkpt>
      <trkpt lat="42.93651" lon="0.16337">
        <ele>1753</ele>
        <time>2014-03-29T10:03:45Z</time>
      </trkpt>
      <trkpt lat="42.93655" lon="0.16332">
        <ele>1752</ele>
        <time>2014-03-29T10:03:50Z</time>
      </trkpt>
      <trkpt lat="42.93657" lon="0.1633">
        <ele>1752</ele>
        <time>2014-03-29T10:03:52Z</time>
      </trkpt>
      <trkpt lat="42.93658" lon="0.16334">
        <ele>1752</ele>
        <time>2014-03-29T10:04:08Z</time>
      </trkpt>
      <trkpt lat="42.93662" lon="0.16323">
        <ele>1753</ele>
        <time>2014-03-29T10:04:17Z</time>
      </trkpt>
      <trkpt lat="42.93666" lon="0.16319">
        <ele>1752</ele>
        <time>2014-03-29T10:04:22Z</time>
      </trkpt>
      <trkpt lat="42.9367" lon="0.16315">
        <ele>1752</ele>
        <time>2014-03-29T10:04:28Z</time>
      </trkpt>
      <trkpt lat="42.93675" lon="0.1631">
        <ele>1752</ele>
        <time>2014-03-29T10:04:34Z</time>
      </trkpt>
      <trkpt lat="42.93678" lon="0.163">
        <ele>1754</ele>
        <time>2014-03-29T10:04:45Z</time>
      </trkpt>
      <trkpt lat="42.93679" lon="0.16299">
        <ele>1754</ele>
        <time>2014-03-29T10:04:46Z</time>
      </trkpt>
      <trkpt lat="42.9368" lon="0.16299">
        <ele>1758</ele>
        <time>2014-03-29T10:04:49Z</time>
      </trkpt>
      <trkpt lat="42.93681" lon="0.163">
        <ele>1754</ele>
        <time>2014-03-29T10:04:51Z</time>
      </trkpt>
      <trkpt lat="42.93681" lon="0.163">
        <ele>1753</ele>
        <time>2014-03-29T10:04:53Z</time>
      </trkpt>
      <trkpt lat="42.93681" lon="0.16302">
        <ele>1754</ele>
        <time>2014-03-29T10:05:05Z</time>
      </trkpt>
      <trkpt lat="42.93683" lon="0.16301">
        <ele>1750</ele>
        <time>2014-03-29T10:05:17Z</time>
      </trkpt>
      <trkpt lat="42.93684" lon="0.16302">
        <ele>1753</ele>
        <time>2014-03-29T10:05:28Z</time>
      </trkpt>
      <trkpt lat="42.93685" lon="0.16302">
        <ele>1752</ele>
        <time>2014-03-29T10:05:41Z</time>
      </trkpt>
      <trkpt lat="42.93686" lon="0.16302">
        <ele>1753</ele>
        <time>2014-03-29T10:05:53Z</time>
      </trkpt>
      <trkpt lat="42.93684" lon="0.163">
        <ele>1753</ele>
        <time>2014-03-29T10:06:11Z</time>
      </trkpt>
      <trkpt lat="42.93683" lon="0.16301">
        <ele>1751</ele>
        <time>2014-03-29T10:06:14Z</time>
      </trkpt>
      <trkpt lat="42.93685" lon="0.163">
        <ele>1752</ele>
        <time>2014-03-29T10:06:21Z</time>
      </trkpt>
      <trkpt lat="42.93684" lon="0.16299">
        <ele>1753</ele>
        <time>2014-03-29T10:06:33Z</time>
      </trkpt>
      <trkpt lat="42.93686" lon="0.16301">
        <ele>1753</ele>
        <time>2014-03-29T10:06:47Z</time>
      </trkpt>
      <trkpt lat="42.93683" lon="0.16298">
        <ele>1751</ele>
        <time>2014-03-29T10:06:56Z</time>
      </trkpt>
      <trkpt lat="42.93679" lon="0.16276">
        <ele>1753</ele>
        <time>2014-03-29T10:07:08Z</time>
      </trkpt>
      <trkpt lat="42.93678" lon="0.16255">
        <ele>1752</ele>
        <time>2014-03-29T10:07:41Z</time>
      </trkpt>
      <trkpt lat="42.93695" lon="0.16296">
        <ele>1755</ele>
        <time>2014-03-29T10:23:10Z</time>
      </trkpt>
      <trkpt lat="42.93689" lon="0.163">
        <ele>1755</ele>
        <time>2014-03-29T10:23:11Z</time>
      </trkpt>
      <trkpt lat="42.93688" lon="0.163">
        <ele>1757</ele>
        <time>2014-03-29T10:23:14Z</time>
      </trkpt>
      <trkpt lat="42.93687" lon="0.16301">
        <ele>1755</ele>
        <time>2014-03-29T10:23:18Z</time>
      </trkpt>
      <trkpt lat="42.93686" lon="0.163">
        <ele>1754</ele>
        <time>2014-03-29T10:23:20Z</time>
      </trkpt>
      <trkpt lat="42.93686" lon="0.16301">
        <ele>1755</ele>
        <time>2014-03-29T10:23:23Z</time>
      </trkpt>
      <trkpt lat="42.93687" lon="0.16302">
        <ele>1754</ele>
        <time>2014-03-29T10:23:27Z</time>
      </trkpt>
      <trkpt lat="42.93686" lon="0.16302">
        <ele>1754</ele>
        <time>2014-03-29T10:23:34Z</time>
      </trkpt>
      <trkpt lat="42.93685" lon="0.16305">
        <ele>1752</ele>
        <time>2014-03-29T10:23:42Z</time>
      </trkpt>
      <trkpt lat="42.93687" lon="0.16302">
        <ele>1752</ele>
        <time>2014-03-29T10:23:59Z</time>
      </trkpt>
      <trkpt lat="42.93687" lon="0.163">
        <ele>1751</ele>
        <time>2014-03-29T10:24:10Z</time>
      </trkpt>
      <trkpt lat="42.93685" lon="0.16302">
        <ele>1748</ele>
        <time>2014-03-29T10:24:22Z</time>
      </trkpt>
      <trkpt lat="42.93683" lon="0.16302">
        <ele>1751</ele>
        <time>2014-03-29T10:24:33Z</time>
      </trkpt>
      <trkpt lat="42.93683" lon="0.16304">
        <ele>1751</ele>
        <time>2014-03-29T10:24:49Z</time>
      </trkpt>
      <trkpt lat="42.93683" lon="0.16302">
        <ele>1751</ele>
        <time>2014-03-29T10:25:03Z</time>
      </trkpt>
      <trkpt lat="42.93687" lon="0.163">
        <ele>1752</ele>
        <time>2014-03-29T10:25:19Z</time>
      </trkpt>
      <trkpt lat="42.93681" lon="0.16308">
        <ele>1755</ele>
        <time>2014-03-29T10:25:37Z</time>
      </trkpt>
      <trkpt lat="42.93677" lon="0.16313">
        <ele>1754</ele>
        <time>2014-03-29T10:25:51Z</time>
      </trkpt>
      <trkpt lat="42.93678" lon="0.16309">
        <ele>1755</ele>
        <time>2014-03-29T10:26:07Z</time>
      </trkpt>
      <trkpt lat="42.93679" lon="0.16307">
        <ele>1754</ele>
        <time>2014-03-29T10:26:20Z</time>
      </trkpt>
      <trkpt lat="42.93679" lon="0.16312">
        <ele>1755</ele>
        <time>2014-03-29T10:26:25Z</time>
      </trkpt>
      <trkpt lat="42.93674" lon="0.16323">
        <ele>1758</ele>
        <time>2014-03-29T10:26:32Z</time>
      </trkpt>
      <trkpt lat="42.93675" lon="0.16322">
        <ele>1762</ele>
        <time>2014-03-29T10:26:37Z</time>
      </trkpt>
      <trkpt lat="42.93676" lon="0.16322">
        <ele>1761</ele>
        <time>2014-03-29T10:26:38Z</time>
      </trkpt>
      <trkpt lat="42.93677" lon="0.16324">
        <ele>1759</ele>
        <time>2014-03-29T10:26:40Z</time>
      </trkpt>
      <trkpt lat="42.93679" lon="0.16325">
        <ele>1758</ele>
        <time>2014-03-29T10:26:50Z</time>
      </trkpt>
      <trkpt lat="42.93686" lon="0.16324">
        <ele>1756</ele>
        <time>2014-03-29T10:27:00Z</time>
      </trkpt>
      <trkpt lat="42.93692" lon="0.16318">
        <ele>1759</ele>
        <time>2014-03-29T10:27:11Z</time>
      </trkpt>
      <trkpt lat="42.93699" lon="0.16311">
        <ele>1758</ele>
        <time>2014-03-29T10:27:22Z</time>
      </trkpt>
      <trkpt lat="42.9371" lon="0.16299">
        <ele>1759</ele>
        <time>2014-03-29T10:27:38Z</time>
      </trkpt>
      <trkpt lat="42.93718" lon="0.16292">
        <ele>1761</ele>
        <time>2014-03-29T10:27:52Z</time>
      </trkpt>
      <trkpt lat="42.93726" lon="0.16283">
        <ele>1764</ele>
        <time>2014-03-29T10:28:07Z</time>
      </trkpt>
      <trkpt lat="42.93733" lon="0.16271">
        <ele>1766</ele>
        <time>2014-03-29T10:28:21Z</time>
      </trkpt>
      <trkpt lat="42.93743" lon="0.16266">
        <ele>1768</ele>
        <time>2014-03-29T10:28:36Z</time>
      </trkpt>
      <trkpt lat="42.93752" lon="0.16258">
        <ele>1771</ele>
        <time>2014-03-29T10:28:51Z</time>
      </trkpt>
      <trkpt lat="42.93754" lon="0.16258">
        <ele>1772</ele>
        <time>2014-03-29T10:29:04Z</time>
      </trkpt>
      <trkpt lat="42.93755" lon="0.16258">
        <ele>1774</ele>
        <time>2014-03-29T10:29:08Z</time>
      </trkpt>
      <trkpt lat="42.93766" lon="0.16249">
        <ele>1774</ele>
        <time>2014-03-29T10:29:23Z</time>
      </trkpt>
      <trkpt lat="42.93777" lon="0.1624">
        <ele>1776</ele>
        <time>2014-03-29T10:29:38Z</time>
      </trkpt>
      <trkpt lat="42.93781" lon="0.16238">
        <ele>1777</ele>
        <time>2014-03-29T10:29:51Z</time>
      </trkpt>
      <trkpt lat="42.93789" lon="0.16231">
        <ele>1779</ele>
        <time>2014-03-29T10:30:05Z</time>
      </trkpt>
      <trkpt lat="42.93791" lon="0.16229">
        <ele>1780</ele>
        <time>2014-03-29T10:30:07Z</time>
      </trkpt>
      <trkpt lat="42.93799" lon="0.16222">
        <ele>1780</ele>
        <time>2014-03-29T10:30:20Z</time>
      </trkpt>
      <trkpt lat="42.93804" lon="0.16217">
        <ele>1780</ele>
        <time>2014-03-29T10:30:32Z</time>
      </trkpt>
      <trkpt lat="42.93812" lon="0.16211">
        <ele>1782</ele>
        <time>2014-03-29T10:30:46Z</time>
      </trkpt>
      <trkpt lat="42.93814" lon="0.16211">
        <ele>1784</ele>
        <time>2014-03-29T10:30:49Z</time>
      </trkpt>
      <trkpt lat="42.93817" lon="0.16205">
        <ele>1785</ele>
        <time>2014-03-29T10:30:58Z</time>
      </trkpt>
      <trkpt lat="42.93823" lon="0.16199">
        <ele>1786</ele>
        <time>2014-03-29T10:31:10Z</time>
      </trkpt>
      <trkpt lat="42.93826" lon="0.16195">
        <ele>1786</ele>
        <time>2014-03-29T10:31:17Z</time>
      </trkpt>
      <trkpt lat="42.93832" lon="0.16191">
        <ele>1789</ele>
        <time>2014-03-29T10:31:30Z</time>
      </trkpt>
      <trkpt lat="42.9384" lon="0.16187">
        <ele>1790</ele>
        <time>2014-03-29T10:31:44Z</time>
      </trkpt>
      <trkpt lat="42.93841" lon="0.16186">
        <ele>1793</ele>
        <time>2014-03-29T10:31:48Z</time>
      </trkpt>
      <trkpt lat="42.93842" lon="0.16186">
        <ele>1794</ele>
        <time>2014-03-29T10:31:49Z</time>
      </trkpt>
      <trkpt lat="42.93848" lon="0.1619">
        <ele>1792</ele>
        <time>2014-03-29T10:32:01Z</time>
      </trkpt>
      <trkpt lat="42.93848" lon="0.16189">
        <ele>1791</ele>
        <time>2014-03-29T10:32:03Z</time>
      </trkpt>
      <trkpt lat="42.93848" lon="0.16189">
        <ele>1790</ele>
        <time>2014-03-29T10:32:21Z</time>
      </trkpt>
      <trkpt lat="42.93851" lon="0.16193">
        <ele>1793</ele>
        <time>2014-03-29T10:32:31Z</time>
      </trkpt>
      <trkpt lat="42.93854" lon="0.16195">
        <ele>1796</ele>
        <time>2014-03-29T10:32:37Z</time>
      </trkpt>
      <trkpt lat="42.93855" lon="0.16195">
        <ele>1795</ele>
        <time>2014-03-29T10:32:38Z</time>
      </trkpt>
      <trkpt lat="42.93862" lon="0.16199">
        <ele>1797</ele>
        <time>2014-03-29T10:32:52Z</time>
      </trkpt>
      <trkpt lat="42.93868" lon="0.16203">
        <ele>1800</ele>
        <time>2014-03-29T10:33:04Z</time>
      </trkpt>
      <trkpt lat="42.9387" lon="0.16207">
        <ele>1802</ele>
        <time>2014-03-29T10:33:16Z</time>
      </trkpt>
      <trkpt lat="42.93878" lon="0.16216">
        <ele>1802</ele>
        <time>2014-03-29T10:33:31Z</time>
      </trkpt>
      <trkpt lat="42.93882" lon="0.16219">
        <ele>1804</ele>
        <time>2014-03-29T10:33:39Z</time>
      </trkpt>
      <trkpt lat="42.93888" lon="0.16222">
        <ele>1803</ele>
        <time>2014-03-29T10:33:52Z</time>
      </trkpt>
      <trkpt lat="42.93892" lon="0.16224">
        <ele>1805</ele>
        <time>2014-03-29T10:34:01Z</time>
      </trkpt>
      <trkpt lat="42.939" lon="0.16221">
        <ele>1804</ele>
        <time>2014-03-29T10:34:13Z</time>
      </trkpt>
      <trkpt lat="42.93907" lon="0.16218">
        <ele>1806</ele>
        <time>2014-03-29T10:34:26Z</time>
      </trkpt>
      <trkpt lat="42.93914" lon="0.16216">
        <ele>1808</ele>
        <time>2014-03-29T10:34:40Z</time>
      </trkpt>
      <trkpt lat="42.93918" lon="0.16215">
        <ele>1809</ele>
        <time>2014-03-29T10:34:45Z</time>
      </trkpt>
      <trkpt lat="42.93925" lon="0.16212">
        <ele>1812</ele>
        <time>2014-03-29T10:34:59Z</time>
      </trkpt>
      <trkpt lat="42.93932" lon="0.16207">
        <ele>1813</ele>
        <time>2014-03-29T10:35:12Z</time>
      </trkpt>
      <trkpt lat="42.93938" lon="0.16203">
        <ele>1817</ele>
        <time>2014-03-29T10:35:26Z</time>
      </trkpt>
      <trkpt lat="42.93939" lon="0.16203">
        <ele>1817</ele>
        <time>2014-03-29T10:35:27Z</time>
      </trkpt>
      <trkpt lat="42.93947" lon="0.16198">
        <ele>1817</ele>
        <time>2014-03-29T10:35:40Z</time>
      </trkpt>
      <trkpt lat="42.93956" lon="0.16191">
        <ele>1817</ele>
        <time>2014-03-29T10:35:56Z</time>
      </trkpt>
      <trkpt lat="42.93965" lon="0.16185">
        <ele>1820</ele>
        <time>2014-03-29T10:36:10Z</time>
      </trkpt>
      <trkpt lat="42.93972" lon="0.16179">
        <ele>1821</ele>
        <time>2014-03-29T10:36:26Z</time>
      </trkpt>
      <trkpt lat="42.93972" lon="0.16178">
        <ele>1821</ele>
        <time>2014-03-29T10:36:27Z</time>
      </trkpt>
      <trkpt lat="42.93975" lon="0.16169">
        <ele>1822</ele>
        <time>2014-03-29T10:36:40Z</time>
      </trkpt>
      <trkpt lat="42.93979" lon="0.16159">
        <ele>1823</ele>
        <time>2014-03-29T10:36:53Z</time>
      </trkpt>
      <trkpt lat="42.93985" lon="0.1615">
        <ele>1827</ele>
        <time>2014-03-29T10:37:08Z</time>
      </trkpt>
      <trkpt lat="42.9399" lon="0.1614">
        <ele>1828</ele>
        <time>2014-03-29T10:37:24Z</time>
      </trkpt>
      <trkpt lat="42.93994" lon="0.16132">
        <ele>1831</ele>
        <time>2014-03-29T10:37:38Z</time>
      </trkpt>
      <trkpt lat="42.93994" lon="0.16131">
        <ele>1833</ele>
        <time>2014-03-29T10:37:41Z</time>
      </trkpt>
      <trkpt lat="42.93995" lon="0.16132">
        <ele>1831</ele>
        <time>2014-03-29T10:38:01Z</time>
      </trkpt>
      <trkpt lat="42.93995" lon="0.16129">
        <ele>1832</ele>
        <time>2014-03-29T10:38:14Z</time>
      </trkpt>
      <trkpt lat="42.94" lon="0.16122">
        <ele>1833</ele>
        <time>2014-03-29T10:38:29Z</time>
      </trkpt>
      <trkpt lat="42.94008" lon="0.16116">
        <ele>1835</ele>
        <time>2014-03-29T10:38:44Z</time>
      </trkpt>
      <trkpt lat="42.94012" lon="0.16116">
        <ele>1839</ele>
        <time>2014-03-29T10:38:51Z</time>
      </trkpt>
      <trkpt lat="42.94017" lon="0.16124">
        <ele>1840</ele>
        <time>2014-03-29T10:39:05Z</time>
      </trkpt>
      <trkpt lat="42.9402" lon="0.16127">
        <ele>1843</ele>
        <time>2014-03-29T10:39:10Z</time>
      </trkpt>
      <trkpt lat="42.94021" lon="0.16127">
        <ele>1843</ele>
        <time>2014-03-29T10:39:11Z</time>
      </trkpt>
      <trkpt lat="42.94029" lon="0.16132">
        <ele>1843</ele>
        <time>2014-03-29T10:39:26Z</time>
      </trkpt>
      <trkpt lat="42.94034" lon="0.16139">
        <ele>1843</ele>
        <time>2014-03-29T10:39:39Z</time>
      </trkpt>
      <trkpt lat="42.94042" lon="0.16144">
        <ele>1844</ele>
        <time>2014-03-29T10:39:52Z</time>
      </trkpt>
      <trkpt lat="42.94051" lon="0.16149">
        <ele>1846</ele>
        <time>2014-03-29T10:40:08Z</time>
      </trkpt>
      <trkpt lat="42.94061" lon="0.1615">
        <ele>1848</ele>
        <time>2014-03-29T10:40:21Z</time>
      </trkpt>
      <trkpt lat="42.94072" lon="0.16155">
        <ele>1848</ele>
        <time>2014-03-29T10:40:36Z</time>
      </trkpt>
      <trkpt lat="42.94078" lon="0.16159">
        <ele>1849</ele>
        <time>2014-03-29T10:40:50Z</time>
      </trkpt>
      <trkpt lat="42.9408" lon="0.1616">
        <ele>1849</ele>
        <time>2014-03-29T10:40:55Z</time>
      </trkpt>
      <trkpt lat="42.94083" lon="0.16159">
        <ele>1849</ele>
        <time>2014-03-29T10:41:11Z</time>
      </trkpt>
      <trkpt lat="42.94081" lon="0.16159">
        <ele>1852</ele>
        <time>2014-03-29T10:41:33Z</time>
      </trkpt>
      <trkpt lat="42.9408" lon="0.16159">
        <ele>1855</ele>
        <time>2014-03-29T10:41:48Z</time>
      </trkpt>
      <trkpt lat="42.94082" lon="0.16158">
        <ele>1852</ele>
        <time>2014-03-29T10:42:05Z</time>
      </trkpt>
      <trkpt lat="42.94082" lon="0.1616">
        <ele>1851</ele>
        <time>2014-03-29T10:42:26Z</time>
      </trkpt>
      <trkpt lat="42.94082" lon="0.16161">
        <ele>1851</ele>
        <time>2014-03-29T10:42:51Z</time>
      </trkpt>
      <trkpt lat="42.94084" lon="0.16161">
        <ele>1854</ele>
        <time>2014-03-29T10:42:58Z</time>
      </trkpt>
      <trkpt lat="42.94092" lon="0.16167">
        <ele>1855</ele>
        <time>2014-03-29T10:43:11Z</time>
      </trkpt>
      <trkpt lat="42.94094" lon="0.16166">
        <ele>1855</ele>
        <time>2014-03-29T10:43:18Z</time>
      </trkpt>
      <trkpt lat="42.94096" lon="0.16168">
        <ele>1854</ele>
        <time>2014-03-29T10:43:23Z</time>
      </trkpt>
      <trkpt lat="42.94104" lon="0.16171">
        <ele>1855</ele>
        <time>2014-03-29T10:43:36Z</time>
      </trkpt>
      <trkpt lat="42.94109" lon="0.16173">
        <ele>1858</ele>
        <time>2014-03-29T10:43:43Z</time>
      </trkpt>
      <trkpt lat="42.9411" lon="0.16173">
        <ele>1859</ele>
        <time>2014-03-29T10:43:45Z</time>
      </trkpt>
      <trkpt lat="42.94112" lon="0.16174">
        <ele>1858</ele>
        <time>2014-03-29T10:43:48Z</time>
      </trkpt>
      <trkpt lat="42.94117" lon="0.16176">
        <ele>1859</ele>
        <time>2014-03-29T10:43:56Z</time>
      </trkpt>
      <trkpt lat="42.9412" lon="0.16178">
        <ele>1860</ele>
        <time>2014-03-29T10:44:02Z</time>
      </trkpt>
      <trkpt lat="42.94124" lon="0.16179">
        <ele>1861</ele>
        <time>2014-03-29T10:44:08Z</time>
      </trkpt>
      <trkpt lat="42.94125" lon="0.16179">
        <ele>1865</ele>
        <time>2014-03-29T10:44:09Z</time>
      </trkpt>
      <trkpt lat="42.94127" lon="0.16181">
        <ele>1863</ele>
        <time>2014-03-29T10:44:13Z</time>
      </trkpt>
      <trkpt lat="42.94137" lon="0.16183">
        <ele>1863</ele>
        <time>2014-03-29T10:44:28Z</time>
      </trkpt>
      <trkpt lat="42.94139" lon="0.16184">
        <ele>1864</ele>
        <time>2014-03-29T10:44:31Z</time>
      </trkpt>
      <trkpt lat="42.94147" lon="0.16187">
        <ele>1867</ele>
        <time>2014-03-29T10:44:43Z</time>
      </trkpt>
      <trkpt lat="42.9415" lon="0.16189">
        <ele>1867</ele>
        <time>2014-03-29T10:44:48Z</time>
      </trkpt>
      <trkpt lat="42.9416" lon="0.16192">
        <ele>1866</ele>
        <time>2014-03-29T10:45:03Z</time>
      </trkpt>
      <trkpt lat="42.94165" lon="0.16192">
        <ele>1867</ele>
        <time>2014-03-29T10:45:10Z</time>
      </trkpt>
      <trkpt lat="42.94173" lon="0.16193">
        <ele>1870</ele>
        <time>2014-03-29T10:45:22Z</time>
      </trkpt>
      <trkpt lat="42.94183" lon="0.16194">
        <ele>1870</ele>
        <time>2014-03-29T10:45:37Z</time>
      </trkpt>
      <trkpt lat="42.94192" lon="0.16194">
        <ele>1871</ele>
        <time>2014-03-29T10:45:52Z</time>
      </trkpt>
      <trkpt lat="42.942" lon="0.16193">
        <ele>1872</ele>
        <time>2014-03-29T10:46:06Z</time>
      </trkpt>
      <trkpt lat="42.94204" lon="0.16192">
        <ele>1873</ele>
        <time>2014-03-29T10:46:22Z</time>
      </trkpt>
      <trkpt lat="42.94206" lon="0.16193">
        <ele>1873</ele>
        <time>2014-03-29T10:46:47Z</time>
      </trkpt>
      <trkpt lat="42.94213" lon="0.16191">
        <ele>1874</ele>
        <time>2014-03-29T10:46:58Z</time>
      </trkpt>
      <trkpt lat="42.94222" lon="0.16189">
        <ele>1877</ele>
        <time>2014-03-29T10:47:13Z</time>
      </trkpt>
      <trkpt lat="42.94232" lon="0.16186">
        <ele>1879</ele>
        <time>2014-03-29T10:47:30Z</time>
      </trkpt>
      <trkpt lat="42.9424" lon="0.16186">
        <ele>1880</ele>
        <time>2014-03-29T10:47:44Z</time>
      </trkpt>
      <trkpt lat="42.9424" lon="0.16192">
        <ele>1883</ele>
        <time>2014-03-29T10:47:56Z</time>
      </trkpt>
      <trkpt lat="42.94247" lon="0.16194">
        <ele>1886</ele>
        <time>2014-03-29T10:48:09Z</time>
      </trkpt>
      <trkpt lat="42.94251" lon="0.16196">
        <ele>1889</ele>
        <time>2014-03-29T10:48:22Z</time>
      </trkpt>
      <trkpt lat="42.94256" lon="0.16196">
        <ele>1891</ele>
        <time>2014-03-29T10:48:36Z</time>
      </trkpt>
      <trkpt lat="42.94265" lon="0.16197">
        <ele>1893</ele>
        <time>2014-03-29T10:48:55Z</time>
      </trkpt>
      <trkpt lat="42.94273" lon="0.16197">
        <ele>1895</ele>
        <time>2014-03-29T10:49:10Z</time>
      </trkpt>
      <trkpt lat="42.94281" lon="0.16196">
        <ele>1897</ele>
        <time>2014-03-29T10:49:24Z</time>
      </trkpt>
      <trkpt lat="42.94283" lon="0.16196">
        <ele>1898</ele>
        <time>2014-03-29T10:49:40Z</time>
      </trkpt>
      <trkpt lat="42.94287" lon="0.16195">
        <ele>1901</ele>
        <time>2014-03-29T10:49:58Z</time>
      </trkpt>
      <trkpt lat="42.94291" lon="0.16195">
        <ele>1901</ele>
        <time>2014-03-29T10:50:12Z</time>
      </trkpt>
      <trkpt lat="42.94299" lon="0.16194">
        <ele>1904</ele>
        <time>2014-03-29T10:50:31Z</time>
      </trkpt>
      <trkpt lat="42.94306" lon="0.16193">
        <ele>1905</ele>
        <time>2014-03-29T10:50:44Z</time>
      </trkpt>
      <trkpt lat="42.94305" lon="0.16193">
        <ele>1905</ele>
        <time>2014-03-29T10:51:15Z</time>
      </trkpt>
      <trkpt lat="42.94304" lon="0.16193">
        <ele>1904</ele>
        <time>2014-03-29T10:51:18Z</time>
      </trkpt>
      <trkpt lat="42.94305" lon="0.16193">
        <ele>1904</ele>
        <time>2014-03-29T10:51:45Z</time>
      </trkpt>
      <trkpt lat="42.94305" lon="0.16193">
        <ele>1907</ele>
        <time>2014-03-29T10:51:52Z</time>
      </trkpt>
      <trkpt lat="42.94305" lon="0.16192">
        <ele>1908</ele>
        <time>2014-03-29T10:52:14Z</time>
      </trkpt>
      <trkpt lat="42.94305" lon="0.16192">
        <ele>1906</ele>
        <time>2014-03-29T10:52:21Z</time>
      </trkpt>
      <trkpt lat="42.94314" lon="0.16186">
        <ele>1907</ele>
        <time>2014-03-29T10:52:33Z</time>
      </trkpt>
      <trkpt lat="42.94326" lon="0.16181">
        <ele>1907</ele>
        <time>2014-03-29T10:52:47Z</time>
      </trkpt>
      <trkpt lat="42.94339" lon="0.16174">
        <ele>1909</ele>
        <time>2014-03-29T10:53:02Z</time>
      </trkpt>
      <trkpt lat="42.94341" lon="0.16174">
        <ele>1910</ele>
        <time>2014-03-29T10:53:04Z</time>
      </trkpt>
      <trkpt lat="42.94353" lon="0.16167">
        <ele>1909</ele>
        <time>2014-03-29T10:53:18Z</time>
      </trkpt>
      <trkpt lat="42.94355" lon="0.16166">
        <ele>1909</ele>
        <time>2014-03-29T10:53:20Z</time>
      </trkpt>
      <trkpt lat="42.94368" lon="0.16161">
        <ele>1911</ele>
        <time>2014-03-29T10:53:35Z</time>
      </trkpt>
      <trkpt lat="42.94369" lon="0.1616">
        <ele>1912</ele>
        <time>2014-03-29T10:53:37Z</time>
      </trkpt>
      <trkpt lat="42.9438" lon="0.16154">
        <ele>1913</ele>
        <time>2014-03-29T10:53:51Z</time>
      </trkpt>
      <trkpt lat="42.9439" lon="0.16147">
        <ele>1914</ele>
        <time>2014-03-29T10:54:04Z</time>
      </trkpt>
      <trkpt lat="42.944" lon="0.16142">
        <ele>1915</ele>
        <time>2014-03-29T10:54:18Z</time>
      </trkpt>
      <trkpt lat="42.94401" lon="0.16145">
        <ele>1915</ele>
        <time>2014-03-29T10:54:28Z</time>
      </trkpt>
      <trkpt lat="42.94401" lon="0.16143">
        <ele>1915</ele>
        <time>2014-03-29T10:54:43Z</time>
      </trkpt>
      <trkpt lat="42.94403" lon="0.16143">
        <ele>1914</ele>
        <time>2014-03-29T10:54:58Z</time>
      </trkpt>
      <trkpt lat="42.94402" lon="0.16143">
        <ele>1915</ele>
        <time>2014-03-29T10:55:19Z</time>
      </trkpt>
      <trkpt lat="42.94402" lon="0.16144">
        <ele>1914</ele>
        <time>2014-03-29T10:55:30Z</time>
      </trkpt>
      <trkpt lat="42.94406" lon="0.1614">
        <ele>1915</ele>
        <time>2014-03-29T10:55:40Z</time>
      </trkpt>
      <trkpt lat="42.94416" lon="0.16137">
        <ele>1917</ele>
        <time>2014-03-29T10:55:53Z</time>
      </trkpt>
      <trkpt lat="42.94426" lon="0.16135">
        <ele>1920</ele>
        <time>2014-03-29T10:56:06Z</time>
      </trkpt>
      <trkpt lat="42.94434" lon="0.16135">
        <ele>1923</ele>
        <time>2014-03-29T10:56:18Z</time>
      </trkpt>
      <trkpt lat="42.94442" lon="0.16128">
        <ele>1925</ele>
        <time>2014-03-29T10:56:33Z</time>
      </trkpt>
      <trkpt lat="42.94451" lon="0.16122">
        <ele>1927</ele>
        <time>2014-03-29T10:56:46Z</time>
      </trkpt>
      <trkpt lat="42.94456" lon="0.1612">
        <ele>1929</ele>
        <time>2014-03-29T10:56:59Z</time>
      </trkpt>
      <trkpt lat="42.94463" lon="0.16118">
        <ele>1931</ele>
        <time>2014-03-29T10:57:13Z</time>
      </trkpt>
      <trkpt lat="42.94469" lon="0.16115">
        <ele>1934</ele>
        <time>2014-03-29T10:57:25Z</time>
      </trkpt>
      <trkpt lat="42.94476" lon="0.16112">
        <ele>1936</ele>
        <time>2014-03-29T10:57:39Z</time>
      </trkpt>
      <trkpt lat="42.94484" lon="0.1611">
        <ele>1936</ele>
        <time>2014-03-29T10:57:53Z</time>
      </trkpt>
      <trkpt lat="42.94493" lon="0.16106">
        <ele>1940</ele>
        <time>2014-03-29T10:58:07Z</time>
      </trkpt>
      <trkpt lat="42.94502" lon="0.16103">
        <ele>1942</ele>
        <time>2014-03-29T10:58:20Z</time>
      </trkpt>
      <trkpt lat="42.94507" lon="0.16102">
        <ele>1944</ele>
        <time>2014-03-29T10:58:33Z</time>
      </trkpt>
      <trkpt lat="42.94514" lon="0.16101">
        <ele>1946</ele>
        <time>2014-03-29T10:58:47Z</time>
      </trkpt>
      <trkpt lat="42.94517" lon="0.161">
        <ele>1950</ele>
        <time>2014-03-29T10:58:54Z</time>
      </trkpt>
      <trkpt lat="42.94522" lon="0.16098">
        <ele>1950</ele>
        <time>2014-03-29T10:59:07Z</time>
      </trkpt>
      <trkpt lat="42.94527" lon="0.16098">
        <ele>1953</ele>
        <time>2014-03-29T10:59:20Z</time>
      </trkpt>
      <trkpt lat="42.94531" lon="0.16096">
        <ele>1956</ele>
        <time>2014-03-29T10:59:32Z</time>
      </trkpt>
      <trkpt lat="42.94532" lon="0.16096">
        <ele>1956</ele>
        <time>2014-03-29T10:59:33Z</time>
      </trkpt>
      <trkpt lat="42.94534" lon="0.16096">
        <ele>1959</ele>
        <time>2014-03-29T10:59:38Z</time>
      </trkpt>
      <trkpt lat="42.9454" lon="0.16096">
        <ele>1962</ele>
        <time>2014-03-29T10:59:51Z</time>
      </trkpt>
      <trkpt lat="42.94542" lon="0.16095">
        <ele>1965</ele>
        <time>2014-03-29T10:59:56Z</time>
      </trkpt>
      <trkpt lat="42.94545" lon="0.16094">
        <ele>1962</ele>
        <time>2014-03-29T11:00:01Z</time>
      </trkpt>
      <trkpt lat="42.94548" lon="0.16094">
        <ele>1964</ele>
        <time>2014-03-29T11:00:07Z</time>
      </trkpt>
      <trkpt lat="42.94554" lon="0.16091">
        <ele>1965</ele>
        <time>2014-03-29T11:00:21Z</time>
      </trkpt>
      <trkpt lat="42.94561" lon="0.16091">
        <ele>1966</ele>
        <time>2014-03-29T11:00:36Z</time>
      </trkpt>
      <trkpt lat="42.94566" lon="0.1609">
        <ele>1968</ele>
        <time>2014-03-29T11:00:49Z</time>
      </trkpt>
      <trkpt lat="42.9457" lon="0.16086">
        <ele>1968</ele>
        <time>2014-03-29T11:01:02Z</time>
      </trkpt>
      <trkpt lat="42.94566" lon="0.16082">
        <ele>1969</ele>
        <time>2014-03-29T11:01:32Z</time>
      </trkpt>
      <trkpt lat="42.94572" lon="0.16089">
        <ele>1971</ele>
        <time>2014-03-29T11:01:45Z</time>
      </trkpt>
      <trkpt lat="42.94574" lon="0.16091">
        <ele>1972</ele>
        <time>2014-03-29T11:01:50Z</time>
      </trkpt>
      <trkpt lat="42.9458" lon="0.16095">
        <ele>1974</ele>
        <time>2014-03-29T11:02:03Z</time>
      </trkpt>
      <trkpt lat="42.94587" lon="0.16099">
        <ele>1976</ele>
        <time>2014-03-29T11:02:17Z</time>
      </trkpt>
      <trkpt lat="42.94593" lon="0.16103">
        <ele>1979</ele>
        <time>2014-03-29T11:02:31Z</time>
      </trkpt>
      <trkpt lat="42.94597" lon="0.16109">
        <ele>1981</ele>
        <time>2014-03-29T11:02:45Z</time>
      </trkpt>
      <trkpt lat="42.94601" lon="0.16115">
        <ele>1984</ele>
        <time>2014-03-29T11:02:56Z</time>
      </trkpt>
      <trkpt lat="42.94604" lon="0.16121">
        <ele>1987</ele>
        <time>2014-03-29T11:03:10Z</time>
      </trkpt>
      <trkpt lat="42.94603" lon="0.1613">
        <ele>1989</ele>
        <time>2014-03-29T11:03:23Z</time>
      </trkpt>
      <trkpt lat="42.94607" lon="0.1614">
        <ele>1991</ele>
        <time>2014-03-29T11:03:39Z</time>
      </trkpt>
      <trkpt lat="42.9461" lon="0.16141">
        <ele>1991</ele>
        <time>2014-03-29T11:03:55Z</time>
      </trkpt>
      <trkpt lat="42.94609" lon="0.1614">
        <ele>1993</ele>
        <time>2014-03-29T11:03:59Z</time>
      </trkpt>
      <trkpt lat="42.94609" lon="0.1614">
        <ele>1991</ele>
        <time>2014-03-29T11:04:16Z</time>
      </trkpt>
      <trkpt lat="42.94612" lon="0.1614">
        <ele>1991</ele>
        <time>2014-03-29T11:04:40Z</time>
      </trkpt>
      <trkpt lat="42.94612" lon="0.16141">
        <ele>1993</ele>
        <time>2014-03-29T11:04:43Z</time>
      </trkpt>
      <trkpt lat="42.94613" lon="0.16142">
        <ele>1991</ele>
        <time>2014-03-29T11:04:47Z</time>
      </trkpt>
      <trkpt lat="42.94613" lon="0.16144">
        <ele>1994</ele>
        <time>2014-03-29T11:04:49Z</time>
      </trkpt>
      <trkpt lat="42.94613" lon="0.16146">
        <ele>1990</ele>
        <time>2014-03-29T11:04:53Z</time>
      </trkpt>
      <trkpt lat="42.94614" lon="0.16145">
        <ele>1991</ele>
        <time>2014-03-29T11:05:07Z</time>
      </trkpt>
      <trkpt lat="42.94613" lon="0.16141">
        <ele>1991</ele>
        <time>2014-03-29T11:05:34Z</time>
      </trkpt>
      <trkpt lat="42.94613" lon="0.16141">
        <ele>1989</ele>
        <time>2014-03-29T11:05:40Z</time>
      </trkpt>
      <trkpt lat="42.94612" lon="0.16141">
        <ele>1991</ele>
        <time>2014-03-29T11:05:42Z</time>
      </trkpt>
      <trkpt lat="42.94613" lon="0.16142">
        <ele>1989</ele>
        <time>2014-03-29T11:06:04Z</time>
      </trkpt>
      <trkpt lat="42.94612" lon="0.16141">
        <ele>1991</ele>
        <time>2014-03-29T11:06:28Z</time>
      </trkpt>
      <trkpt lat="42.94612" lon="0.16141">
        <ele>1990</ele>
        <time>2014-03-29T11:06:35Z</time>
      </trkpt>
      <trkpt lat="42.94612" lon="0.16139">
        <ele>1991</ele>
        <time>2014-03-29T11:06:57Z</time>
      </trkpt>
      <trkpt lat="42.94613" lon="0.16142">
        <ele>1992</ele>
        <time>2014-03-29T11:07:06Z</time>
      </trkpt>
      <trkpt lat="42.94613" lon="0.16142">
        <ele>1992</ele>
        <time>2014-03-29T11:07:33Z</time>
      </trkpt>
      <trkpt lat="42.94612" lon="0.16141">
        <ele>1991</ele>
        <time>2014-03-29T11:07:48Z</time>
      </trkpt>
      <trkpt lat="42.9461" lon="0.16141">
        <ele>1991</ele>
        <time>2014-03-29T11:08:02Z</time>
      </trkpt>
      <trkpt lat="42.94613" lon="0.16143">
        <ele>1990</ele>
        <time>2014-03-29T11:08:23Z</time>
      </trkpt>
      <trkpt lat="42.94615" lon="0.16143">
        <ele>1991</ele>
        <time>2014-03-29T11:08:44Z</time>
      </trkpt>
      <trkpt lat="42.94622" lon="0.16136">
        <ele>1992</ele>
        <time>2014-03-29T11:08:58Z</time>
      </trkpt>
      <trkpt lat="42.94629" lon="0.16134">
        <ele>1995</ele>
        <time>2014-03-29T11:09:09Z</time>
      </trkpt>
      <trkpt lat="42.94637" lon="0.16137">
        <ele>1998</ele>
        <time>2014-03-29T11:09:24Z</time>
      </trkpt>
      <trkpt lat="42.94643" lon="0.16135">
        <ele>2001</ele>
        <time>2014-03-29T11:09:36Z</time>
      </trkpt>
      <trkpt lat="42.94645" lon="0.16135">
        <ele>2003</ele>
        <time>2014-03-29T11:09:38Z</time>
      </trkpt>
      <trkpt lat="42.94647" lon="0.16134">
        <ele>2001</ele>
        <time>2014-03-29T11:09:43Z</time>
      </trkpt>
      <trkpt lat="42.94652" lon="0.16134">
        <ele>2004</ele>
        <time>2014-03-29T11:09:52Z</time>
      </trkpt>
      <trkpt lat="42.94658" lon="0.16133">
        <ele>2007</ele>
        <time>2014-03-29T11:10:02Z</time>
      </trkpt>
      <trkpt lat="42.94659" lon="0.16129">
        <ele>2011</ele>
        <time>2014-03-29T11:10:10Z</time>
      </trkpt>
      <trkpt lat="42.9466" lon="0.16128">
        <ele>2011</ele>
        <time>2014-03-29T11:10:11Z</time>
      </trkpt>
      <trkpt lat="42.94663" lon="0.16122">
        <ele>2015</ele>
        <time>2014-03-29T11:10:23Z</time>
      </trkpt>
      <trkpt lat="42.94664" lon="0.16121">
        <ele>2013</ele>
        <time>2014-03-29T11:10:26Z</time>
      </trkpt>
      <trkpt lat="42.94668" lon="0.16116">
        <ele>2016</ele>
        <time>2014-03-29T11:10:36Z</time>
      </trkpt>
      <trkpt lat="42.94669" lon="0.16115">
        <ele>2018</ele>
        <time>2014-03-29T11:10:39Z</time>
      </trkpt>
      <trkpt lat="42.94672" lon="0.16113">
        <ele>2022</ele>
        <time>2014-03-29T11:10:45Z</time>
      </trkpt>
      <trkpt lat="42.94678" lon="0.16109">
        <ele>2019</ele>
        <time>2014-03-29T11:10:59Z</time>
      </trkpt>
      <trkpt lat="42.94686" lon="0.16104">
        <ele>2023</ele>
        <time>2014-03-29T11:11:13Z</time>
      </trkpt>
      <trkpt lat="42.94695" lon="0.16101">
        <ele>2026</ele>
        <time>2014-03-29T11:11:25Z</time>
      </trkpt>
      <trkpt lat="42.94699" lon="0.16097">
        <ele>2029</ele>
        <time>2014-03-29T11:11:33Z</time>
      </trkpt>
      <trkpt lat="42.94706" lon="0.16089">
        <ele>2029</ele>
        <time>2014-03-29T11:11:45Z</time>
      </trkpt>
      <trkpt lat="42.94711" lon="0.16084">
        <ele>2031</ele>
        <time>2014-03-29T11:11:58Z</time>
      </trkpt>
      <trkpt lat="42.94717" lon="0.16078">
        <ele>2033</ele>
        <time>2014-03-29T11:12:10Z</time>
      </trkpt>
      <trkpt lat="42.94719" lon="0.16075">
        <ele>2035</ele>
        <time>2014-03-29T11:12:13Z</time>
      </trkpt>
      <trkpt lat="42.94726" lon="0.16062">
        <ele>2035</ele>
        <time>2014-03-29T11:12:28Z</time>
      </trkpt>
      <trkpt lat="42.9473" lon="0.16054">
        <ele>2032</ele>
        <time>2014-03-29T11:12:38Z</time>
      </trkpt>
      <trkpt lat="42.94732" lon="0.16052">
        <ele>2033</ele>
        <time>2014-03-29T11:12:40Z</time>
      </trkpt>
      <trkpt lat="42.94742" lon="0.16044">
        <ele>2031</ele>
        <time>2014-03-29T11:12:53Z</time>
      </trkpt>
      <trkpt lat="42.9475" lon="0.16031">
        <ele>2030</ele>
        <time>2014-03-29T11:13:06Z</time>
      </trkpt>
      <trkpt lat="42.94751" lon="0.16031">
        <ele>2031</ele>
        <time>2014-03-29T11:13:07Z</time>
      </trkpt>
      <trkpt lat="42.94757" lon="0.16023">
        <ele>2030</ele>
        <time>2014-03-29T11:13:16Z</time>
      </trkpt>
      <trkpt lat="42.94767" lon="0.16012">
        <ele>2029</ele>
        <time>2014-03-29T11:13:30Z</time>
      </trkpt>
      <trkpt lat="42.94776" lon="0.16002">
        <ele>2030</ele>
        <time>2014-03-29T11:13:44Z</time>
      </trkpt>
      <trkpt lat="42.94786" lon="0.15993">
        <ele>2031</ele>
        <time>2014-03-29T11:13:58Z</time>
      </trkpt>
      <trkpt lat="42.94795" lon="0.15983">
        <ele>2031</ele>
        <time>2014-03-29T11:14:12Z</time>
      </trkpt>
      <trkpt lat="42.94805" lon="0.15975">
        <ele>2032</ele>
        <time>2014-03-29T11:14:26Z</time>
      </trkpt>
      <trkpt lat="42.94814" lon="0.15965">
        <ele>2033</ele>
        <time>2014-03-29T11:14:40Z</time>
      </trkpt>
      <trkpt lat="42.94815" lon="0.15964">
        <ele>2033</ele>
        <time>2014-03-29T11:14:42Z</time>
      </trkpt>
      <trkpt lat="42.94823" lon="0.15954">
        <ele>2034</ele>
        <time>2014-03-29T11:14:57Z</time>
      </trkpt>
      <trkpt lat="42.94832" lon="0.15945">
        <ele>2035</ele>
        <time>2014-03-29T11:15:11Z</time>
      </trkpt>
      <trkpt lat="42.94835" lon="0.15943">
        <ele>2035</ele>
        <time>2014-03-29T11:15:26Z</time>
      </trkpt>
      <trkpt lat="42.94833" lon="0.15944">
        <ele>2034</ele>
        <time>2014-03-29T11:15:49Z</time>
      </trkpt>
      <trkpt lat="42.94839" lon="0.15936">
        <ele>2037</ele>
        <time>2014-03-29T11:16:04Z</time>
      </trkpt>
      <trkpt lat="42.94845" lon="0.15934">
        <ele>2039</ele>
        <time>2014-03-29T11:16:15Z</time>
      </trkpt>
      <trkpt lat="42.94852" lon="0.15931">
        <ele>2041</ele>
        <time>2014-03-29T11:16:29Z</time>
      </trkpt>
      <trkpt lat="42.94861" lon="0.1593">
        <ele>2043</ele>
        <time>2014-03-29T11:16:42Z</time>
      </trkpt>
      <trkpt lat="42.94869" lon="0.15928">
        <ele>2047</ele>
        <time>2014-03-29T11:16:55Z</time>
      </trkpt>
      <trkpt lat="42.94878" lon="0.15925">
        <ele>2048</ele>
        <time>2014-03-29T11:17:09Z</time>
      </trkpt>
      <trkpt lat="42.94887" lon="0.15921">
        <ele>2050</ele>
        <time>2014-03-29T11:17:23Z</time>
      </trkpt>
      <trkpt lat="42.94895" lon="0.15917">
        <ele>2052</ele>
        <time>2014-03-29T11:17:37Z</time>
      </trkpt>
      <trkpt lat="42.94899" lon="0.15915">
        <ele>2054</ele>
        <time>2014-03-29T11:17:44Z</time>
      </trkpt>
      <trkpt lat="42.94907" lon="0.15913">
        <ele>2057</ele>
        <time>2014-03-29T11:17:58Z</time>
      </trkpt>
      <trkpt lat="42.94916" lon="0.15911">
        <ele>2059</ele>
        <time>2014-03-29T11:18:12Z</time>
      </trkpt>
      <trkpt lat="42.94925" lon="0.15909">
        <ele>2059</ele>
        <time>2014-03-29T11:18:26Z</time>
      </trkpt>
      <trkpt lat="42.94933" lon="0.15908">
        <ele>2060</ele>
        <time>2014-03-29T11:18:38Z</time>
      </trkpt>
      <trkpt lat="42.94942" lon="0.15907">
        <ele>2061</ele>
        <time>2014-03-29T11:18:51Z</time>
      </trkpt>
      <trkpt lat="42.94952" lon="0.15905">
        <ele>2061</ele>
        <time>2014-03-29T11:19:06Z</time>
      </trkpt>
      <trkpt lat="42.94962" lon="0.15903">
        <ele>2063</ele>
        <time>2014-03-29T11:19:19Z</time>
      </trkpt>
      <trkpt lat="42.94973" lon="0.159">
        <ele>2066</ele>
        <time>2014-03-29T11:19:33Z</time>
      </trkpt>
      <trkpt lat="42.94979" lon="0.15899">
        <ele>2068</ele>
        <time>2014-03-29T11:19:51Z</time>
      </trkpt>
      <trkpt lat="42.94979" lon="0.159">
        <ele>2070</ele>
        <time>2014-03-29T11:20:25Z</time>
      </trkpt>
      <trkpt lat="42.94977" lon="0.15901">
        <ele>2069</ele>
        <time>2014-03-29T11:20:49Z</time>
      </trkpt>
      <trkpt lat="42.94977" lon="0.159">
        <ele>2072</ele>
        <time>2014-03-29T11:20:54Z</time>
      </trkpt>
      <trkpt lat="42.94983" lon="0.15899">
        <ele>2071</ele>
        <time>2014-03-29T11:21:06Z</time>
      </trkpt>
      <trkpt lat="42.94991" lon="0.15895">
        <ele>2073</ele>
        <time>2014-03-29T11:21:21Z</time>
      </trkpt>
      <trkpt lat="42.94998" lon="0.15887">
        <ele>2075</ele>
        <time>2014-03-29T11:21:35Z</time>
      </trkpt>
      <trkpt lat="42.95006" lon="0.15879">
        <ele>2076</ele>
        <time>2014-03-29T11:21:49Z</time>
      </trkpt>
      <trkpt lat="42.95015" lon="0.15872">
        <ele>2075</ele>
        <time>2014-03-29T11:22:05Z</time>
      </trkpt>
      <trkpt lat="42.95023" lon="0.15864">
        <ele>2075</ele>
        <time>2014-03-29T11:22:20Z</time>
      </trkpt>
      <trkpt lat="42.95026" lon="0.15866">
        <ele>2078</ele>
        <time>2014-03-29T11:22:26Z</time>
      </trkpt>
      <trkpt lat="42.95027" lon="0.15867">
        <ele>2078</ele>
        <time>2014-03-29T11:22:31Z</time>
      </trkpt>
      <trkpt lat="42.95027" lon="0.15868">
        <ele>2079</ele>
        <time>2014-03-29T11:22:33Z</time>
      </trkpt>
      <trkpt lat="42.95028" lon="0.15874">
        <ele>2080</ele>
        <time>2014-03-29T11:22:39Z</time>
      </trkpt>
      <trkpt lat="42.95029" lon="0.15879">
        <ele>2082</ele>
        <time>2014-03-29T11:22:46Z</time>
      </trkpt>
      <trkpt lat="42.95031" lon="0.15894">
        <ele>2084</ele>
        <time>2014-03-29T11:23:01Z</time>
      </trkpt>
      <trkpt lat="42.95032" lon="0.15906">
        <ele>2086</ele>
        <time>2014-03-29T11:23:16Z</time>
      </trkpt>
      <trkpt lat="42.95031" lon="0.15909">
        <ele>2088</ele>
        <time>2014-03-29T11:23:20Z</time>
      </trkpt>
      <trkpt lat="42.9503" lon="0.15916">
        <ele>2091</ele>
        <time>2014-03-29T11:23:31Z</time>
      </trkpt>
      <trkpt lat="42.9503" lon="0.15926">
        <ele>2092</ele>
        <time>2014-03-29T11:23:44Z</time>
      </trkpt>
      <trkpt lat="42.9503" lon="0.15926">
        <ele>2095</ele>
        <time>2014-03-29T11:23:52Z</time>
      </trkpt>
      <trkpt lat="42.9503" lon="0.15926">
        <ele>2091</ele>
        <time>2014-03-29T11:23:54Z</time>
      </trkpt>
      <trkpt lat="42.9503" lon="0.15927">
        <ele>2091</ele>
        <time>2014-03-29T11:23:55Z</time>
      </trkpt>
      <trkpt lat="42.95033" lon="0.15922">
        <ele>2092</ele>
        <time>2014-03-29T11:24:14Z</time>
      </trkpt>
      <trkpt lat="42.95036" lon="0.1592">
        <ele>2092</ele>
        <time>2014-03-29T11:24:19Z</time>
      </trkpt>
      <trkpt lat="42.95039" lon="0.15915">
        <ele>2095</ele>
        <time>2014-03-29T11:24:25Z</time>
      </trkpt>
      <trkpt lat="42.95041" lon="0.15913">
        <ele>2093</ele>
        <time>2014-03-29T11:24:28Z</time>
      </trkpt>
      <trkpt lat="42.95043" lon="0.15911">
        <ele>2092</ele>
        <time>2014-03-29T11:24:33Z</time>
      </trkpt>
      <trkpt lat="42.95048" lon="0.15905">
        <ele>2095</ele>
        <time>2014-03-29T11:24:44Z</time>
      </trkpt>
      <trkpt lat="42.95049" lon="0.15902">
        <ele>2096</ele>
        <time>2014-03-29T11:24:47Z</time>
      </trkpt>
      <trkpt lat="42.95053" lon="0.15896">
        <ele>2100</ele>
        <time>2014-03-29T11:24:57Z</time>
      </trkpt>
      <trkpt lat="42.95059" lon="0.15886">
        <ele>2101</ele>
        <time>2014-03-29T11:25:11Z</time>
      </trkpt>
      <trkpt lat="42.95065" lon="0.15885">
        <ele>2103</ele>
        <time>2014-03-29T11:25:23Z</time>
      </trkpt>
      <trkpt lat="42.95069" lon="0.15896">
        <ele>2106</ele>
        <time>2014-03-29T11:25:35Z</time>
      </trkpt>
      <trkpt lat="42.9507" lon="0.15904">
        <ele>2108</ele>
        <time>2014-03-29T11:25:49Z</time>
      </trkpt>
      <trkpt lat="42.95073" lon="0.15916">
        <ele>2109</ele>
        <time>2014-03-29T11:26:04Z</time>
      </trkpt>
      <trkpt lat="42.95073" lon="0.15926">
        <ele>2111</ele>
        <time>2014-03-29T11:26:17Z</time>
      </trkpt>
      <trkpt lat="42.95074" lon="0.15939">
        <ele>2113</ele>
        <time>2014-03-29T11:26:34Z</time>
      </trkpt>
      <trkpt lat="42.95073" lon="0.15939">
        <ele>2112</ele>
        <time>2014-03-29T11:26:47Z</time>
      </trkpt>
      <trkpt lat="42.95075" lon="0.15939">
        <ele>2113</ele>
        <time>2014-03-29T11:27:01Z</time>
      </trkpt>
      <trkpt lat="42.95076" lon="0.1594">
        <ele>2113</ele>
        <time>2014-03-29T11:27:14Z</time>
      </trkpt>
      <trkpt lat="42.95077" lon="0.15943">
        <ele>2115</ele>
        <time>2014-03-29T11:27:28Z</time>
      </trkpt>
      <trkpt lat="42.95078" lon="0.15946">
        <ele>2118</ele>
        <time>2014-03-29T11:27:31Z</time>
      </trkpt>
      <trkpt lat="42.95079" lon="0.15948">
        <ele>2122</ele>
        <time>2014-03-29T11:27:34Z</time>
      </trkpt>
      <trkpt lat="42.95084" lon="0.15955">
        <ele>2118</ele>
        <time>2014-03-29T11:27:41Z</time>
      </trkpt>
      <trkpt lat="42.95083" lon="0.15956">
        <ele>2116</ele>
        <time>2014-03-29T11:27:45Z</time>
      </trkpt>
      <trkpt lat="42.95084" lon="0.15964">
        <ele>2118</ele>
        <time>2014-03-29T11:27:58Z</time>
      </trkpt>
      <trkpt lat="42.9509" lon="0.15978">
        <ele>2120</ele>
        <time>2014-03-29T11:28:08Z</time>
      </trkpt>
      <trkpt lat="42.95091" lon="0.15989">
        <ele>2120</ele>
        <time>2014-03-29T11:28:22Z</time>
      </trkpt>
      <trkpt lat="42.95093" lon="0.15998">
        <ele>2122</ele>
        <time>2014-03-29T11:28:27Z</time>
      </trkpt>
      <trkpt lat="42.95095" lon="0.15997">
        <ele>2129</ele>
        <time>2014-03-29T11:28:36Z</time>
      </trkpt>
      <trkpt lat="42.95094" lon="0.15996">
        <ele>2129</ele>
        <time>2014-03-29T11:28:37Z</time>
      </trkpt>
      <trkpt lat="42.95093" lon="0.15995">
        <ele>2126</ele>
        <time>2014-03-29T11:28:39Z</time>
      </trkpt>
      <trkpt lat="42.95092" lon="0.15994">
        <ele>2122</ele>
        <time>2014-03-29T11:28:42Z</time>
      </trkpt>
      <trkpt lat="42.95093" lon="0.15999">
        <ele>2124</ele>
        <time>2014-03-29T11:28:53Z</time>
      </trkpt>
      <trkpt lat="42.95096" lon="0.15998">
        <ele>2121</ele>
        <time>2014-03-29T11:28:57Z</time>
      </trkpt>
      <trkpt lat="42.95099" lon="0.15999">
        <ele>2122</ele>
        <time>2014-03-29T11:29:01Z</time>
      </trkpt>
      <trkpt lat="42.95096" lon="0.16006">
        <ele>2126</ele>
        <time>2014-03-29T11:29:10Z</time>
      </trkpt>
      <trkpt lat="42.95095" lon="0.16006">
        <ele>2126</ele>
        <time>2014-03-29T11:29:11Z</time>
      </trkpt>
      <trkpt lat="42.95092" lon="0.16008">
        <ele>2124</ele>
        <time>2014-03-29T11:29:23Z</time>
      </trkpt>
      <trkpt lat="42.95097" lon="0.16022">
        <ele>2127</ele>
        <time>2014-03-29T11:29:37Z</time>
      </trkpt>
      <trkpt lat="42.95098" lon="0.16027">
        <ele>2130</ele>
        <time>2014-03-29T11:29:50Z</time>
      </trkpt>
      <trkpt lat="42.95105" lon="0.1604">
        <ele>2133</ele>
        <time>2014-03-29T11:30:05Z</time>
      </trkpt>
      <trkpt lat="42.95107" lon="0.16047">
        <ele>2134</ele>
        <time>2014-03-29T11:30:17Z</time>
      </trkpt>
      <trkpt lat="42.9511" lon="0.16055">
        <ele>2137</ele>
        <time>2014-03-29T11:30:29Z</time>
      </trkpt>
      <trkpt lat="42.95111" lon="0.16059">
        <ele>2138</ele>
        <time>2014-03-29T11:30:36Z</time>
      </trkpt>
      <trkpt lat="42.95114" lon="0.16068">
        <ele>2138</ele>
        <time>2014-03-29T11:30:50Z</time>
      </trkpt>
      <trkpt lat="42.95116" lon="0.16076">
        <ele>2140</ele>
        <time>2014-03-29T11:31:04Z</time>
      </trkpt>
      <trkpt lat="42.95117" lon="0.16085">
        <ele>2140</ele>
        <time>2014-03-29T11:31:17Z</time>
      </trkpt>
      <trkpt lat="42.95119" lon="0.16092">
        <ele>2142</ele>
        <time>2014-03-29T11:31:30Z</time>
      </trkpt>
      <trkpt lat="42.95119" lon="0.16091">
        <ele>2144</ele>
        <time>2014-03-29T11:31:34Z</time>
      </trkpt>
      <trkpt lat="42.95119" lon="0.16091">
        <ele>2148</ele>
        <time>2014-03-29T11:31:37Z</time>
      </trkpt>
      <trkpt lat="42.9512" lon="0.16091">
        <ele>2148</ele>
        <time>2014-03-29T11:31:38Z</time>
      </trkpt>
      <trkpt lat="42.95121" lon="0.16091">
        <ele>2144</ele>
        <time>2014-03-29T11:31:42Z</time>
      </trkpt>
      <trkpt lat="42.9512" lon="0.16091">
        <ele>2140</ele>
        <time>2014-03-29T11:31:46Z</time>
      </trkpt>
      <trkpt lat="42.9512" lon="0.16091">
        <ele>2140</ele>
        <time>2014-03-29T11:32:03Z</time>
      </trkpt>
      <trkpt lat="42.95119" lon="0.16089">
        <ele>2140</ele>
        <time>2014-03-29T11:32:10Z</time>
      </trkpt>
      <trkpt lat="42.95119" lon="0.1609">
        <ele>2141</ele>
        <time>2014-03-29T11:32:28Z</time>
      </trkpt>
      <trkpt lat="42.95119" lon="0.16089">
        <ele>2141</ele>
        <time>2014-03-29T11:32:29Z</time>
      </trkpt>
      <trkpt lat="42.95121" lon="0.16091">
        <ele>2142</ele>
        <time>2014-03-29T11:32:32Z</time>
      </trkpt>
      <trkpt lat="42.95123" lon="0.16105">
        <ele>2143</ele>
        <time>2014-03-29T11:32:46Z</time>
      </trkpt>
      <trkpt lat="42.95122" lon="0.16115">
        <ele>2144</ele>
        <time>2014-03-29T11:33:01Z</time>
      </trkpt>
      <trkpt lat="42.95121" lon="0.16127">
        <ele>2146</ele>
        <time>2014-03-29T11:33:15Z</time>
      </trkpt>
      <trkpt lat="42.9512" lon="0.16138">
        <ele>2148</ele>
        <time>2014-03-29T11:33:28Z</time>
      </trkpt>
      <trkpt lat="42.9512" lon="0.16148">
        <ele>2149</ele>
        <time>2014-03-29T11:33:43Z</time>
      </trkpt>
      <trkpt lat="42.95121" lon="0.16148">
        <ele>2148</ele>
        <time>2014-03-29T11:33:48Z</time>
      </trkpt>
      <trkpt lat="42.9512" lon="0.16148">
        <ele>2152</ele>
        <time>2014-03-29T11:33:56Z</time>
      </trkpt>
      <trkpt lat="42.95122" lon="0.16148">
        <ele>2153</ele>
        <time>2014-03-29T11:34:07Z</time>
      </trkpt>
      <trkpt lat="42.9512" lon="0.16148">
        <ele>2152</ele>
        <time>2014-03-29T11:34:10Z</time>
      </trkpt>
      <trkpt lat="42.95119" lon="0.16146">
        <ele>2156</ele>
        <time>2014-03-29T11:34:19Z</time>
      </trkpt>
      <trkpt lat="42.95119" lon="0.16146">
        <ele>2158</ele>
        <time>2014-03-29T11:34:21Z</time>
      </trkpt>
      <trkpt lat="42.95121" lon="0.16147">
        <ele>2156</ele>
        <time>2014-03-29T11:34:26Z</time>
      </trkpt>
      <trkpt lat="42.95121" lon="0.16147">
        <ele>2160</ele>
        <time>2014-03-29T11:34:28Z</time>
      </trkpt>
      <trkpt lat="42.95121" lon="0.16148">
        <ele>2160</ele>
        <time>2014-03-29T11:34:29Z</time>
      </trkpt>
      <trkpt lat="42.9512" lon="0.1615">
        <ele>2156</ele>
        <time>2014-03-29T11:34:40Z</time>
      </trkpt>
      <trkpt lat="42.9512" lon="0.1615">
        <ele>2153</ele>
        <time>2014-03-29T11:34:42Z</time>
      </trkpt>
      <trkpt lat="42.95117" lon="0.16152">
        <ele>2153</ele>
        <time>2014-03-29T11:34:58Z</time>
      </trkpt>
      <trkpt lat="42.95116" lon="0.16164">
        <ele>2155</ele>
        <time>2014-03-29T11:35:14Z</time>
      </trkpt>
      <trkpt lat="42.95115" lon="0.16169">
        <ele>2160</ele>
        <time>2014-03-29T11:35:22Z</time>
      </trkpt>
      <trkpt lat="42.95115" lon="0.16171">
        <ele>2156</ele>
        <time>2014-03-29T11:35:24Z</time>
      </trkpt>
      <trkpt lat="42.95115" lon="0.16172">
        <ele>2160</ele>
        <time>2014-03-29T11:35:28Z</time>
      </trkpt>
      <trkpt lat="42.95115" lon="0.16173">
        <ele>2160</ele>
        <time>2014-03-29T11:35:29Z</time>
      </trkpt>
      <trkpt lat="42.95113" lon="0.16168">
        <ele>2158</ele>
        <time>2014-03-29T11:35:42Z</time>
      </trkpt>
      <trkpt lat="42.95114" lon="0.16169">
        <ele>2154</ele>
        <time>2014-03-29T11:35:48Z</time>
      </trkpt>
      <trkpt lat="42.95115" lon="0.1617">
        <ele>2157</ele>
        <time>2014-03-29T11:35:51Z</time>
      </trkpt>
      <trkpt lat="42.95116" lon="0.1617">
        <ele>2154</ele>
        <time>2014-03-29T11:35:57Z</time>
      </trkpt>
      <trkpt lat="42.95117" lon="0.1617">
        <ele>2157</ele>
        <time>2014-03-29T11:36:06Z</time>
      </trkpt>
      <trkpt lat="42.95117" lon="0.1617">
        <ele>2156</ele>
        <time>2014-03-29T11:36:08Z</time>
      </trkpt>
      <trkpt lat="42.95116" lon="0.16172">
        <ele>2152</ele>
        <time>2014-03-29T11:36:18Z</time>
      </trkpt>
      <trkpt lat="42.95116" lon="0.16172">
        <ele>2152</ele>
        <time>2014-03-29T11:36:19Z</time>
      </trkpt>
      <trkpt lat="42.95115" lon="0.16172">
        <ele>2153</ele>
        <time>2014-03-29T11:36:23Z</time>
      </trkpt>
      <trkpt lat="42.95114" lon="0.1618">
        <ele>2155</ele>
        <time>2014-03-29T11:36:36Z</time>
      </trkpt>
      <trkpt lat="42.95114" lon="0.16181">
        <ele>2156</ele>
        <time>2014-03-29T11:36:37Z</time>
      </trkpt>
      <trkpt lat="42.95113" lon="0.16185">
        <ele>2159</ele>
        <time>2014-03-29T11:36:42Z</time>
      </trkpt>
      <trkpt lat="42.95113" lon="0.16188">
        <ele>2160</ele>
        <time>2014-03-29T11:36:45Z</time>
      </trkpt>
      <trkpt lat="42.95113" lon="0.16192">
        <ele>2161</ele>
        <time>2014-03-29T11:36:51Z</time>
      </trkpt>
      <trkpt lat="42.95113" lon="0.16196">
        <ele>2161</ele>
        <time>2014-03-29T11:36:56Z</time>
      </trkpt>
      <trkpt lat="42.95114" lon="0.16197">
        <ele>2173</ele>
        <time>2014-03-29T11:36:58Z</time>
      </trkpt>
      <trkpt lat="42.95113" lon="0.16198">
        <ele>2176</ele>
        <time>2014-03-29T11:36:59Z</time>
      </trkpt>
      <trkpt lat="42.95113" lon="0.16198">
        <ele>2171</ele>
        <time>2014-03-29T11:37:00Z</time>
      </trkpt>
      <trkpt lat="42.95112" lon="0.16197">
        <ele>2167</ele>
        <time>2014-03-29T11:37:01Z</time>
      </trkpt>
      <trkpt lat="42.95112" lon="0.16197">
        <ele>2166</ele>
        <time>2014-03-29T11:37:03Z</time>
      </trkpt>
      <trkpt lat="42.95112" lon="0.16198">
        <ele>2164</ele>
        <time>2014-03-29T11:37:05Z</time>
      </trkpt>
      <trkpt lat="42.95112" lon="0.16197">
        <ele>2160</ele>
        <time>2014-03-29T11:37:08Z</time>
      </trkpt>
      <trkpt lat="42.95113" lon="0.16197">
        <ele>2161</ele>
        <time>2014-03-29T11:37:09Z</time>
      </trkpt>
      <trkpt lat="42.95113" lon="0.16197">
        <ele>2158</ele>
        <time>2014-03-29T11:37:15Z</time>
      </trkpt>
      <trkpt lat="42.95113" lon="0.16197">
        <ele>2154</ele>
        <time>2014-03-29T11:37:19Z</time>
      </trkpt>
      <trkpt lat="42.95112" lon="0.16196">
        <ele>2156</ele>
        <time>2014-03-29T11:37:29Z</time>
      </trkpt>
      <trkpt lat="42.95111" lon="0.16205">
        <ele>2157</ele>
        <time>2014-03-29T11:37:42Z</time>
      </trkpt>
      <trkpt lat="42.95111" lon="0.16208">
        <ele>2158</ele>
        <time>2014-03-29T11:37:46Z</time>
      </trkpt>
      <trkpt lat="42.95112" lon="0.16216">
        <ele>2161</ele>
        <time>2014-03-29T11:37:59Z</time>
      </trkpt>
      <trkpt lat="42.95112" lon="0.16219">
        <ele>2162</ele>
        <time>2014-03-29T11:38:03Z</time>
      </trkpt>
      <trkpt lat="42.95114" lon="0.16227">
        <ele>2164</ele>
        <time>2014-03-29T11:38:18Z</time>
      </trkpt>
      <trkpt lat="42.95116" lon="0.16228">
        <ele>2163</ele>
        <time>2014-03-29T11:38:30Z</time>
      </trkpt>
      <trkpt lat="42.95116" lon="0.16231">
        <ele>2166</ele>
        <time>2014-03-29T11:38:43Z</time>
      </trkpt>
      <trkpt lat="42.95118" lon="0.1624">
        <ele>2169</ele>
        <time>2014-03-29T11:39:00Z</time>
      </trkpt>
      <trkpt lat="42.9512" lon="0.16248">
        <ele>2170</ele>
        <time>2014-03-29T11:39:12Z</time>
      </trkpt>
      <trkpt lat="42.95122" lon="0.16252">
        <ele>2172</ele>
        <time>2014-03-29T11:39:20Z</time>
      </trkpt>
      <trkpt lat="42.95125" lon="0.1626">
        <ele>2173</ele>
        <time>2014-03-29T11:39:32Z</time>
      </trkpt>
      <trkpt lat="42.95127" lon="0.16263">
        <ele>2176</ele>
        <time>2014-03-29T11:39:42Z</time>
      </trkpt>
      <trkpt lat="42.95127" lon="0.16269">
        <ele>2179</ele>
        <time>2014-03-29T11:39:50Z</time>
      </trkpt>
      <trkpt lat="42.95127" lon="0.1627">
        <ele>2179</ele>
        <time>2014-03-29T11:39:51Z</time>
      </trkpt>
      <trkpt lat="42.95129" lon="0.16271">
        <ele>2180</ele>
        <time>2014-03-29T11:39:55Z</time>
      </trkpt>
      <trkpt lat="42.95129" lon="0.16274">
        <ele>2183</ele>
        <time>2014-03-29T11:39:59Z</time>
      </trkpt>
      <trkpt lat="42.9513" lon="0.16277">
        <ele>2179</ele>
        <time>2014-03-29T11:40:05Z</time>
      </trkpt>
      <trkpt lat="42.9513" lon="0.16276">
        <ele>2178</ele>
        <time>2014-03-29T11:40:07Z</time>
      </trkpt>
      <trkpt lat="42.95129" lon="0.16276">
        <ele>2180</ele>
        <time>2014-03-29T11:40:11Z</time>
      </trkpt>
      <trkpt lat="42.95131" lon="0.16279">
        <ele>2181</ele>
        <time>2014-03-29T11:40:18Z</time>
      </trkpt>
      <trkpt lat="42.95131" lon="0.16284">
        <ele>2184</ele>
        <time>2014-03-29T11:40:27Z</time>
      </trkpt>
      <trkpt lat="42.95131" lon="0.16284">
        <ele>2184</ele>
        <time>2014-03-29T11:40:28Z</time>
      </trkpt>
      <trkpt lat="42.95132" lon="0.16291">
        <ele>2185</ele>
        <time>2014-03-29T11:40:38Z</time>
      </trkpt>
      <trkpt lat="42.95131" lon="0.16296">
        <ele>2187</ele>
        <time>2014-03-29T11:40:44Z</time>
      </trkpt>
      <trkpt lat="42.95129" lon="0.16301">
        <ele>2185</ele>
        <time>2014-03-29T11:40:51Z</time>
      </trkpt>
      <trkpt lat="42.95128" lon="0.16303">
        <ele>2186</ele>
        <time>2014-03-29T11:40:53Z</time>
      </trkpt>
      <trkpt lat="42.95128" lon="0.16304">
        <ele>2188</ele>
        <time>2014-03-29T11:40:56Z</time>
      </trkpt>
      <trkpt lat="42.95126" lon="0.16311">
        <ele>2192</ele>
        <time>2014-03-29T11:41:03Z</time>
      </trkpt>
      <trkpt lat="42.95126" lon="0.16322">
        <ele>2194</ele>
        <time>2014-03-29T11:41:19Z</time>
      </trkpt>
      <trkpt lat="42.95126" lon="0.16321">
        <ele>2197</ele>
        <time>2014-03-29T11:41:26Z</time>
      </trkpt>
      <trkpt lat="42.95126" lon="0.16321">
        <ele>2198</ele>
        <time>2014-03-29T11:41:27Z</time>
      </trkpt>
      <trkpt lat="42.95126" lon="0.1632">
        <ele>2194</ele>
        <time>2014-03-29T11:41:31Z</time>
      </trkpt>
      <trkpt lat="42.95127" lon="0.16321">
        <ele>2199</ele>
        <time>2014-03-29T11:41:38Z</time>
      </trkpt>
      <trkpt lat="42.95127" lon="0.16321">
        <ele>2199</ele>
        <time>2014-03-29T11:41:39Z</time>
      </trkpt>
      <trkpt lat="42.95127" lon="0.16321">
        <ele>2198</ele>
        <time>2014-03-29T11:41:41Z</time>
      </trkpt>
      <trkpt lat="42.95127" lon="0.1632">
        <ele>2194</ele>
        <time>2014-03-29T11:41:46Z</time>
      </trkpt>
      <trkpt lat="42.95127" lon="0.16321">
        <ele>2199</ele>
        <time>2014-03-29T11:41:48Z</time>
      </trkpt>
      <trkpt lat="42.95127" lon="0.16321">
        <ele>2195</ele>
        <time>2014-03-29T11:41:50Z</time>
      </trkpt>
      <trkpt lat="42.95127" lon="0.16321">
        <ele>2191</ele>
        <time>2014-03-29T11:41:53Z</time>
      </trkpt>
      <trkpt lat="42.95127" lon="0.16321">
        <ele>2190</ele>
        <time>2014-03-29T11:42:00Z</time>
      </trkpt>
      <trkpt lat="42.95126" lon="0.1632">
        <ele>2190</ele>
        <time>2014-03-29T11:42:10Z</time>
      </trkpt>
      <trkpt lat="42.95126" lon="0.1632">
        <ele>2192</ele>
        <time>2014-03-29T11:42:16Z</time>
      </trkpt>
      <trkpt lat="42.95127" lon="0.1632">
        <ele>2190</ele>
        <time>2014-03-29T11:42:18Z</time>
      </trkpt>
      <trkpt lat="42.95127" lon="0.16321">
        <ele>2193</ele>
        <time>2014-03-29T11:42:22Z</time>
      </trkpt>
      <trkpt lat="42.95127" lon="0.1632">
        <ele>2197</ele>
        <time>2014-03-29T11:42:30Z</time>
      </trkpt>
      <trkpt lat="42.95127" lon="0.16321">
        <ele>2196</ele>
        <time>2014-03-29T11:42:31Z</time>
      </trkpt>
      <trkpt lat="42.95127" lon="0.16321">
        <ele>2192</ele>
        <time>2014-03-29T11:42:33Z</time>
      </trkpt>
      <trkpt lat="42.95127" lon="0.16321">
        <ele>2196</ele>
        <time>2014-03-29T11:42:35Z</time>
      </trkpt>
      <trkpt lat="42.95127" lon="0.16321">
        <ele>2203</ele>
        <time>2014-03-29T11:42:36Z</time>
      </trkpt>
      <trkpt lat="42.95127" lon="0.1632">
        <ele>2197</ele>
        <time>2014-03-29T11:42:39Z</time>
      </trkpt>
      <trkpt lat="42.95127" lon="0.16321">
        <ele>2194</ele>
        <time>2014-03-29T11:42:40Z</time>
      </trkpt>
      <trkpt lat="42.95127" lon="0.16321">
        <ele>2190</ele>
        <time>2014-03-29T11:42:42Z</time>
      </trkpt>
      <trkpt lat="42.95126" lon="0.16321">
        <ele>2190</ele>
        <time>2014-03-29T11:42:43Z</time>
      </trkpt>
      <trkpt lat="42.95126" lon="0.16321">
        <ele>2189</ele>
        <time>2014-03-29T11:42:47Z</time>
      </trkpt>
      <trkpt lat="42.95126" lon="0.16321">
        <ele>2186</ele>
        <time>2014-03-29T11:42:49Z</time>
      </trkpt>
      <trkpt lat="42.95126" lon="0.16321">
        <ele>2186</ele>
        <time>2014-03-29T11:42:50Z</time>
      </trkpt>
      <trkpt lat="42.95126" lon="0.16321">
        <ele>2188</ele>
        <time>2014-03-29T11:42:52Z</time>
      </trkpt>
      <trkpt lat="42.95127" lon="0.16322">
        <ele>2188</ele>
        <time>2014-03-29T11:42:58Z</time>
      </trkpt>
      <trkpt lat="42.95127" lon="0.16322">
        <ele>2190</ele>
        <time>2014-03-29T11:43:10Z</time>
      </trkpt>
      <trkpt lat="42.95126" lon="0.16321">
        <ele>2190</ele>
        <time>2014-03-29T11:43:17Z</time>
      </trkpt>
      <trkpt lat="42.95126" lon="0.16321">
        <ele>2190</ele>
        <time>2014-03-29T11:43:19Z</time>
      </trkpt>
      <trkpt lat="42.95126" lon="0.16323">
        <ele>2190</ele>
        <time>2014-03-29T11:43:29Z</time>
      </trkpt>
      <trkpt lat="42.95126" lon="0.16322">
        <ele>2187</ele>
        <time>2014-03-29T11:43:44Z</time>
      </trkpt>
      <trkpt lat="42.95127" lon="0.16321">
        <ele>2187</ele>
        <time>2014-03-29T11:44:02Z</time>
      </trkpt>
      <trkpt lat="42.95125" lon="0.16321">
        <ele>2187</ele>
        <time>2014-03-29T11:44:23Z</time>
      </trkpt>
      <trkpt lat="42.95125" lon="0.16321">
        <ele>2187</ele>
        <time>2014-03-29T11:44:24Z</time>
      </trkpt>
      <trkpt lat="42.95126" lon="0.16321">
        <ele>2188</ele>
        <time>2014-03-29T11:44:36Z</time>
      </trkpt>
      <trkpt lat="42.95125" lon="0.16322">
        <ele>2189</ele>
        <time>2014-03-29T11:44:49Z</time>
      </trkpt>
      <trkpt lat="42.95125" lon="0.16322">
        <ele>2187</ele>
        <time>2014-03-29T11:44:51Z</time>
      </trkpt>
      <trkpt lat="42.95125" lon="0.16321">
        <ele>2188</ele>
        <time>2014-03-29T11:44:53Z</time>
      </trkpt>
      <trkpt lat="42.95127" lon="0.16322">
        <ele>2186</ele>
        <time>2014-03-29T11:45:06Z</time>
      </trkpt>
      <trkpt lat="42.95127" lon="0.16322">
        <ele>2185</ele>
        <time>2014-03-29T11:45:11Z</time>
      </trkpt>
      <trkpt lat="42.95127" lon="0.16322">
        <ele>2188</ele>
        <time>2014-03-29T11:45:16Z</time>
      </trkpt>
      <trkpt lat="42.95126" lon="0.16323">
        <ele>2189</ele>
        <time>2014-03-29T11:45:18Z</time>
      </trkpt>
      <trkpt lat="42.95126" lon="0.16323">
        <ele>2186</ele>
        <time>2014-03-29T11:45:22Z</time>
      </trkpt>
      <trkpt lat="42.95127" lon="0.16323">
        <ele>2190</ele>
        <time>2014-03-29T11:45:27Z</time>
      </trkpt>
      <trkpt lat="42.95128" lon="0.16323">
        <ele>2190</ele>
        <time>2014-03-29T11:45:28Z</time>
      </trkpt>
      <trkpt lat="42.95133" lon="0.16324">
        <ele>2192</ele>
        <time>2014-03-29T11:45:40Z</time>
      </trkpt>
      <trkpt lat="42.95134" lon="0.16325">
        <ele>2190</ele>
        <time>2014-03-29T11:45:43Z</time>
      </trkpt>
      <trkpt lat="42.95136" lon="0.16325">
        <ele>2194</ele>
        <time>2014-03-29T11:45:48Z</time>
      </trkpt>
      <trkpt lat="42.95136" lon="0.16325">
        <ele>2193</ele>
        <time>2014-03-29T11:45:49Z</time>
      </trkpt>
      <trkpt lat="42.95137" lon="0.16327">
        <ele>2195</ele>
        <time>2014-03-29T11:45:55Z</time>
      </trkpt>
      <trkpt lat="42.95142" lon="0.16329">
        <ele>2199</ele>
        <time>2014-03-29T11:46:05Z</time>
      </trkpt>
      <trkpt lat="42.95142" lon="0.16329">
        <ele>2198</ele>
        <time>2014-03-29T11:46:06Z</time>
      </trkpt>
      <trkpt lat="42.95144" lon="0.16329">
        <ele>2201</ele>
        <time>2014-03-29T11:46:10Z</time>
      </trkpt>
      <trkpt lat="42.95147" lon="0.1633">
        <ele>2204</ele>
        <time>2014-03-29T11:46:17Z</time>
      </trkpt>
      <trkpt lat="42.95147" lon="0.16329">
        <ele>2204</ele>
        <time>2014-03-29T11:46:18Z</time>
      </trkpt>
      <trkpt lat="42.9515" lon="0.1633">
        <ele>2205</ele>
        <time>2014-03-29T11:46:23Z</time>
      </trkpt>
      <trkpt lat="42.9515" lon="0.1633">
        <ele>2208</ele>
        <time>2014-03-29T11:46:29Z</time>
      </trkpt>
      <trkpt lat="42.95151" lon="0.1633">
        <ele>2206</ele>
        <time>2014-03-29T11:46:33Z</time>
      </trkpt>
      <trkpt lat="42.95151" lon="0.1633">
        <ele>2205</ele>
        <time>2014-03-29T11:46:35Z</time>
      </trkpt>
      <trkpt lat="42.95154" lon="0.16332">
        <ele>2207</ele>
        <time>2014-03-29T11:46:44Z</time>
      </trkpt>
      <trkpt lat="42.95155" lon="0.16332">
        <ele>2211</ele>
        <time>2014-03-29T11:46:50Z</time>
      </trkpt>
      <trkpt lat="42.95155" lon="0.16332">
        <ele>2211</ele>
        <time>2014-03-29T11:46:51Z</time>
      </trkpt>
      <trkpt lat="42.95156" lon="0.16333">
        <ele>2215</ele>
        <time>2014-03-29T11:46:53Z</time>
      </trkpt>
      <trkpt lat="42.95157" lon="0.16332">
        <ele>2219</ele>
        <time>2014-03-29T11:46:55Z</time>
      </trkpt>
      <trkpt lat="42.95157" lon="0.16332">
        <ele>2216</ele>
        <time>2014-03-29T11:46:59Z</time>
      </trkpt>
      <trkpt lat="42.95157" lon="0.16332">
        <ele>2212</ele>
        <time>2014-03-29T11:47:04Z</time>
      </trkpt>
      <trkpt lat="42.95157" lon="0.16331">
        <ele>2217</ele>
        <time>2014-03-29T11:47:11Z</time>
      </trkpt>
      <trkpt lat="42.95157" lon="0.16331">
        <ele>2215</ele>
        <time>2014-03-29T11:47:12Z</time>
      </trkpt>
      <trkpt lat="42.95157" lon="0.16331">
        <ele>2212</ele>
        <time>2014-03-29T11:47:13Z</time>
      </trkpt>
      <trkpt lat="42.95157" lon="0.16331">
        <ele>2210</ele>
        <time>2014-03-29T11:47:15Z</time>
      </trkpt>
      <trkpt lat="42.95156" lon="0.16331">
        <ele>2208</ele>
        <time>2014-03-29T11:47:17Z</time>
      </trkpt>
      <trkpt lat="42.95157" lon="0.16331">
        <ele>2213</ele>
        <time>2014-03-29T11:47:23Z</time>
      </trkpt>
      <trkpt lat="42.95158" lon="0.1633">
        <ele>2209</ele>
        <time>2014-03-29T11:47:25Z</time>
      </trkpt>
      <trkpt lat="42.95158" lon="0.16329">
        <ele>2213</ele>
        <time>2014-03-29T11:47:28Z</time>
      </trkpt>
      <trkpt lat="42.95158" lon="0.16329">
        <ele>2211</ele>
        <time>2014-03-29T11:47:29Z</time>
      </trkpt>
      <trkpt lat="42.95158" lon="0.16328">
        <ele>2214</ele>
        <time>2014-03-29T11:47:30Z</time>
      </trkpt>
      <trkpt lat="42.95158" lon="0.16328">
        <ele>2215</ele>
        <time>2014-03-29T11:47:32Z</time>
      </trkpt>
      <trkpt lat="42.95159" lon="0.16328">
        <ele>2211</ele>
        <time>2014-03-29T11:47:36Z</time>
      </trkpt>
      <trkpt lat="42.95159" lon="0.16328">
        <ele>2210</ele>
        <time>2014-03-29T11:47:38Z</time>
      </trkpt>
      <trkpt lat="42.95159" lon="0.16328">
        <ele>2213</ele>
        <time>2014-03-29T11:47:43Z</time>
      </trkpt>
      <trkpt lat="42.95159" lon="0.16328">
        <ele>2218</ele>
        <time>2014-03-29T11:47:45Z</time>
      </trkpt>
      <trkpt lat="42.95159" lon="0.16329">
        <ele>2219</ele>
        <time>2014-03-29T11:47:46Z</time>
      </trkpt>
      <trkpt lat="42.95159" lon="0.16328">
        <ele>2216</ele>
        <time>2014-03-29T11:47:53Z</time>
      </trkpt>
      <trkpt lat="42.95158" lon="0.1633">
        <ele>2212</ele>
        <time>2014-03-29T11:48:00Z</time>
      </trkpt>
      <trkpt lat="42.95158" lon="0.1633">
        <ele>2208</ele>
        <time>2014-03-29T11:48:05Z</time>
      </trkpt>
      <trkpt lat="42.95159" lon="0.16329">
        <ele>2209</ele>
        <time>2014-03-29T11:48:09Z</time>
      </trkpt>
      <trkpt lat="42.9516" lon="0.16328">
        <ele>2205</ele>
        <time>2014-03-29T11:48:18Z</time>
      </trkpt>
      <trkpt lat="42.9516" lon="0.16327">
        <ele>2205</ele>
        <time>2014-03-29T11:48:26Z</time>
      </trkpt>
      <trkpt lat="42.9516" lon="0.16328">
        <ele>2210</ele>
        <time>2014-03-29T11:48:31Z</time>
      </trkpt>
      <trkpt lat="42.9516" lon="0.16328">
        <ele>2213</ele>
        <time>2014-03-29T11:48:33Z</time>
      </trkpt>
      <trkpt lat="42.9516" lon="0.16328">
        <ele>2213</ele>
        <time>2014-03-29T11:48:34Z</time>
      </trkpt>
      <trkpt lat="42.9516" lon="0.16328">
        <ele>2210</ele>
        <time>2014-03-29T11:48:36Z</time>
      </trkpt>
      <trkpt lat="42.9516" lon="0.16327">
        <ele>2214</ele>
        <time>2014-03-29T11:48:38Z</time>
      </trkpt>
      <trkpt lat="42.9516" lon="0.16328">
        <ele>2214</ele>
        <time>2014-03-29T11:48:39Z</time>
      </trkpt>
      <trkpt lat="42.9516" lon="0.16329">
        <ele>2210</ele>
        <time>2014-03-29T11:48:42Z</time>
      </trkpt>
      <trkpt lat="42.9516" lon="0.16329">
        <ele>2214</ele>
        <time>2014-03-29T11:48:44Z</time>
      </trkpt>
      <trkpt lat="42.95159" lon="0.1633">
        <ele>2214</ele>
        <time>2014-03-29T11:48:49Z</time>
      </trkpt>
      <trkpt lat="42.95159" lon="0.1633">
        <ele>2213</ele>
        <time>2014-03-29T11:48:52Z</time>
      </trkpt>
      <trkpt lat="42.9516" lon="0.16329">
        <ele>2207</ele>
        <time>2014-03-29T11:48:59Z</time>
      </trkpt>
      <trkpt lat="42.9516" lon="0.16329">
        <ele>2209</ele>
        <time>2014-03-29T11:49:04Z</time>
      </trkpt>
      <trkpt lat="42.95159" lon="0.16329">
        <ele>2210</ele>
        <time>2014-03-29T11:49:10Z</time>
      </trkpt>
      <trkpt lat="42.95159" lon="0.16329">
        <ele>2207</ele>
        <time>2014-03-29T11:49:14Z</time>
      </trkpt>
      <trkpt lat="42.95159" lon="0.16328">
        <ele>2207</ele>
        <time>2014-03-29T11:49:15Z</time>
      </trkpt>
      <trkpt lat="42.95158" lon="0.16329">
        <ele>2209</ele>
        <time>2014-03-29T11:49:20Z</time>
      </trkpt>
      <trkpt lat="42.95158" lon="0.16328">
        <ele>2206</ele>
        <time>2014-03-29T11:49:25Z</time>
      </trkpt>
      <trkpt lat="42.95158" lon="0.16328">
        <ele>2211</ele>
        <time>2014-03-29T11:49:29Z</time>
      </trkpt>
      <trkpt lat="42.95158" lon="0.16328">
        <ele>2217</ele>
        <time>2014-03-29T11:49:34Z</time>
      </trkpt>
      <trkpt lat="42.95158" lon="0.16328">
        <ele>2213</ele>
        <time>2014-03-29T11:49:38Z</time>
      </trkpt>
      <trkpt lat="42.95158" lon="0.16328">
        <ele>2210</ele>
        <time>2014-03-29T11:49:40Z</time>
      </trkpt>
      <trkpt lat="42.95158" lon="0.16327">
        <ele>2209</ele>
        <time>2014-03-29T11:49:51Z</time>
      </trkpt>
      <trkpt lat="42.95158" lon="0.16327">
        <ele>2213</ele>
        <time>2014-03-29T11:49:53Z</time>
      </trkpt>
      <trkpt lat="42.95158" lon="0.16324">
        <ele>2209</ele>
        <time>2014-03-29T11:49:56Z</time>
      </trkpt>
      <trkpt lat="42.95158" lon="0.16323">
        <ele>2210</ele>
        <time>2014-03-29T11:49:57Z</time>
      </trkpt>
      <trkpt lat="42.95158" lon="0.16323">
        <ele>2213</ele>
        <time>2014-03-29T11:49:58Z</time>
      </trkpt>
      <trkpt lat="42.95159" lon="0.16322">
        <ele>2210</ele>
        <time>2014-03-29T11:49:59Z</time>
      </trkpt>
      <trkpt lat="42.95159" lon="0.16319">
        <ele>2209</ele>
        <time>2014-03-29T11:50:03Z</time>
      </trkpt>
      <trkpt lat="42.95159" lon="0.16318">
        <ele>2205</ele>
        <time>2014-03-29T11:50:06Z</time>
      </trkpt>
      <trkpt lat="42.95159" lon="0.16317">
        <ele>2203</ele>
        <time>2014-03-29T11:50:08Z</time>
      </trkpt>
      <trkpt lat="42.95159" lon="0.16316">
        <ele>2199</ele>
        <time>2014-03-29T11:50:10Z</time>
      </trkpt>
      <trkpt lat="42.95159" lon="0.16316">
        <ele>2199</ele>
        <time>2014-03-29T11:50:11Z</time>
      </trkpt>
      <trkpt lat="42.95159" lon="0.16317">
        <ele>2203</ele>
        <time>2014-03-29T11:50:21Z</time>
      </trkpt>
      <trkpt lat="42.95159" lon="0.16317">
        <ele>2202</ele>
        <time>2014-03-29T11:50:22Z</time>
      </trkpt>
      <trkpt lat="42.95158" lon="0.16317">
        <ele>2199</ele>
        <time>2014-03-29T11:50:25Z</time>
      </trkpt>
      <trkpt lat="42.95158" lon="0.16318">
        <ele>2201</ele>
        <time>2014-03-29T11:50:28Z</time>
      </trkpt>
      <trkpt lat="42.95158" lon="0.16316">
        <ele>2206</ele>
        <time>2014-03-29T11:50:41Z</time>
      </trkpt>
      <trkpt lat="42.95157" lon="0.16316">
        <ele>2206</ele>
        <time>2014-03-29T11:50:42Z</time>
      </trkpt>
      <trkpt lat="42.95157" lon="0.1631">
        <ele>2202</ele>
        <time>2014-03-29T11:50:49Z</time>
      </trkpt>
      <trkpt lat="42.95157" lon="0.16308">
        <ele>2202</ele>
        <time>2014-03-29T11:50:53Z</time>
      </trkpt>
      <trkpt lat="42.95157" lon="0.16305">
        <ele>2198</ele>
        <time>2014-03-29T11:50:56Z</time>
      </trkpt>
      <trkpt lat="42.95157" lon="0.16298">
        <ele>2203</ele>
        <time>2014-03-29T11:51:07Z</time>
      </trkpt>
      <trkpt lat="42.95156" lon="0.16296">
        <ele>2199</ele>
        <time>2014-03-29T11:51:10Z</time>
      </trkpt>
      <trkpt lat="42.95156" lon="0.16296">
        <ele>2197</ele>
        <time>2014-03-29T11:51:12Z</time>
      </trkpt>
      <trkpt lat="42.95155" lon="0.16293">
        <ele>2197</ele>
        <time>2014-03-29T11:51:18Z</time>
      </trkpt>
      <trkpt lat="42.95154" lon="0.16292">
        <ele>2197</ele>
        <time>2014-03-29T11:51:23Z</time>
      </trkpt>
      <trkpt lat="42.95152" lon="0.1629">
        <ele>2194</ele>
        <time>2014-03-29T11:51:34Z</time>
      </trkpt>
      <trkpt lat="42.9515" lon="0.16288">
        <ele>2192</ele>
        <time>2014-03-29T11:51:41Z</time>
      </trkpt>
      <trkpt lat="42.95147" lon="0.16286">
        <ele>2190</ele>
        <time>2014-03-29T11:51:49Z</time>
      </trkpt>
      <trkpt lat="42.95141" lon="0.16284">
        <ele>2188</ele>
        <time>2014-03-29T11:52:03Z</time>
      </trkpt>
      <trkpt lat="42.95138" lon="0.16284">
        <ele>2186</ele>
        <time>2014-03-29T11:52:09Z</time>
      </trkpt>
      <trkpt lat="42.95133" lon="0.16282">
        <ele>2186</ele>
        <time>2014-03-29T11:52:22Z</time>
      </trkpt>
      <trkpt lat="42.95131" lon="0.16281">
        <ele>2181</ele>
        <time>2014-03-29T11:52:29Z</time>
      </trkpt>
      <trkpt lat="42.95131" lon="0.1628">
        <ele>2178</ele>
        <time>2014-03-29T11:52:33Z</time>
      </trkpt>
      <trkpt lat="42.95131" lon="0.1628">
        <ele>2180</ele>
        <time>2014-03-29T11:52:36Z</time>
      </trkpt>
      <trkpt lat="42.95125" lon="0.1628">
        <ele>2178</ele>
        <time>2014-03-29T11:52:48Z</time>
      </trkpt>
      <trkpt lat="42.9512" lon="0.1628">
        <ele>2174</ele>
        <time>2014-03-29T11:52:56Z</time>
      </trkpt>
      <trkpt lat="42.95118" lon="0.16279">
        <ele>2172</ele>
        <time>2014-03-29T11:53:00Z</time>
      </trkpt>
      <trkpt lat="42.95116" lon="0.16277">
        <ele>2169</ele>
        <time>2014-03-29T11:53:05Z</time>
      </trkpt>
      <trkpt lat="42.95114" lon="0.16277">
        <ele>2167</ele>
        <time>2014-03-29T11:53:12Z</time>
      </trkpt>
      <trkpt lat="42.95109" lon="0.16275">
        <ele>2166</ele>
        <time>2014-03-29T11:53:24Z</time>
      </trkpt>
      <trkpt lat="42.95103" lon="0.16274">
        <ele>2163</ele>
        <time>2014-03-29T11:53:34Z</time>
      </trkpt>
      <trkpt lat="42.95102" lon="0.16274">
        <ele>2162</ele>
        <time>2014-03-29T11:53:36Z</time>
      </trkpt>
      <trkpt lat="42.95096" lon="0.16274">
        <ele>2159</ele>
        <time>2014-03-29T11:53:46Z</time>
      </trkpt>
      <trkpt lat="42.95091" lon="0.16272">
        <ele>2154</ele>
        <time>2014-03-29T11:53:55Z</time>
      </trkpt>
      <trkpt lat="42.9509" lon="0.16271">
        <ele>2154</ele>
        <time>2014-03-29T11:53:56Z</time>
      </trkpt>
      <trkpt lat="42.95087" lon="0.16269">
        <ele>2152</ele>
        <time>2014-03-29T11:54:10Z</time>
      </trkpt>
      <trkpt lat="42.95087" lon="0.16267">
        <ele>2153</ele>
        <time>2014-03-29T11:54:33Z</time>
      </trkpt>
      <trkpt lat="42.95087" lon="0.16266">
        <ele>2154</ele>
        <time>2014-03-29T11:54:35Z</time>
      </trkpt>
      <trkpt lat="42.95086" lon="0.16268">
        <ele>2153</ele>
        <time>2014-03-29T11:54:51Z</time>
      </trkpt>
      <trkpt lat="42.95085" lon="0.16266">
        <ele>2153</ele>
        <time>2014-03-29T11:55:17Z</time>
      </trkpt>
      <trkpt lat="42.95085" lon="0.16265">
        <ele>2154</ele>
        <time>2014-03-29T11:55:19Z</time>
      </trkpt>
      <trkpt lat="42.95084" lon="0.16266">
        <ele>2158</ele>
        <time>2014-03-29T11:55:24Z</time>
      </trkpt>
      <trkpt lat="42.95085" lon="0.16267">
        <ele>2155</ele>
        <time>2014-03-29T11:55:32Z</time>
      </trkpt>
      <trkpt lat="42.95085" lon="0.16266">
        <ele>2156</ele>
        <time>2014-03-29T11:55:37Z</time>
      </trkpt>
      <trkpt lat="42.95086" lon="0.16266">
        <ele>2153</ele>
        <time>2014-03-29T11:55:50Z</time>
      </trkpt>
      <trkpt lat="42.95084" lon="0.16267">
        <ele>2153</ele>
        <time>2014-03-29T11:56:13Z</time>
      </trkpt>
      <trkpt lat="42.95079" lon="0.16266">
        <ele>2151</ele>
        <time>2014-03-29T11:56:21Z</time>
      </trkpt>
      <trkpt lat="42.95069" lon="0.16262">
        <ele>2148</ele>
        <time>2014-03-29T11:56:35Z</time>
      </trkpt>
      <trkpt lat="42.95065" lon="0.16261">
        <ele>2144</ele>
        <time>2014-03-29T11:56:41Z</time>
      </trkpt>
      <trkpt lat="42.95064" lon="0.1626">
        <ele>2144</ele>
        <time>2014-03-29T11:56:42Z</time>
      </trkpt>
      <trkpt lat="42.95062" lon="0.1626">
        <ele>2143</ele>
        <time>2014-03-29T11:56:45Z</time>
      </trkpt>
      <trkpt lat="42.95057" lon="0.16255">
        <ele>2140</ele>
        <time>2014-03-29T11:56:57Z</time>
      </trkpt>
      <trkpt lat="42.9505" lon="0.1625">
        <ele>2138</ele>
        <time>2014-03-29T11:57:06Z</time>
      </trkpt>
      <trkpt lat="42.95049" lon="0.16251">
        <ele>2137</ele>
        <time>2014-03-29T11:57:07Z</time>
      </trkpt>
      <trkpt lat="42.95046" lon="0.16248">
        <ele>2136</ele>
        <time>2014-03-29T11:57:12Z</time>
      </trkpt>
      <trkpt lat="42.9504" lon="0.16245">
        <ele>2133</ele>
        <time>2014-03-29T11:57:20Z</time>
      </trkpt>
      <trkpt lat="42.95033" lon="0.16237">
        <ele>2133</ele>
        <time>2014-03-29T11:57:30Z</time>
      </trkpt>
      <trkpt lat="42.95029" lon="0.1623">
        <ele>2132</ele>
        <time>2014-03-29T11:57:37Z</time>
      </trkpt>
      <trkpt lat="42.95025" lon="0.16225">
        <ele>2130</ele>
        <time>2014-03-29T11:57:43Z</time>
      </trkpt>
      <trkpt lat="42.95015" lon="0.16217">
        <ele>2126</ele>
        <time>2014-03-29T11:57:55Z</time>
      </trkpt>
      <trkpt lat="42.95009" lon="0.16213">
        <ele>2127</ele>
        <time>2014-03-29T11:58:03Z</time>
      </trkpt>
      <trkpt lat="42.95006" lon="0.16211">
        <ele>2127</ele>
        <time>2014-03-29T11:58:07Z</time>
      </trkpt>
      <trkpt lat="42.95005" lon="0.16209">
        <ele>2125</ele>
        <time>2014-03-29T11:58:09Z</time>
      </trkpt>
      <trkpt lat="42.95002" lon="0.16206">
        <ele>2121</ele>
        <time>2014-03-29T11:58:13Z</time>
      </trkpt>
      <trkpt lat="42.94996" lon="0.16201">
        <ele>2118</ele>
        <time>2014-03-29T11:58:22Z</time>
      </trkpt>
      <trkpt lat="42.94988" lon="0.16195">
        <ele>2115</ele>
        <time>2014-03-29T11:58:34Z</time>
      </trkpt>
      <trkpt lat="42.94986" lon="0.16194">
        <ele>2114</ele>
        <time>2014-03-29T11:58:37Z</time>
      </trkpt>
      <trkpt lat="42.9498" lon="0.16188">
        <ele>2112</ele>
        <time>2014-03-29T11:58:46Z</time>
      </trkpt>
      <trkpt lat="42.94979" lon="0.16187">
        <ele>2115</ele>
        <time>2014-03-29T11:58:47Z</time>
      </trkpt>
      <trkpt lat="42.94977" lon="0.16184">
        <ele>2112</ele>
        <time>2014-03-29T11:58:50Z</time>
      </trkpt>
      <trkpt lat="42.94975" lon="0.16183">
        <ele>2109</ele>
        <time>2014-03-29T11:58:52Z</time>
      </trkpt>
      <trkpt lat="42.94973" lon="0.16181">
        <ele>2109</ele>
        <time>2014-03-29T11:58:55Z</time>
      </trkpt>
      <trkpt lat="42.94972" lon="0.1618">
        <ele>2111</ele>
        <time>2014-03-29T11:58:57Z</time>
      </trkpt>
      <trkpt lat="42.9497" lon="0.16179">
        <ele>2109</ele>
        <time>2014-03-29T11:59:00Z</time>
      </trkpt>
      <trkpt lat="42.94968" lon="0.16178">
        <ele>2108</ele>
        <time>2014-03-29T11:59:02Z</time>
      </trkpt>
      <trkpt lat="42.9496" lon="0.1617">
        <ele>2106</ele>
        <time>2014-03-29T11:59:14Z</time>
      </trkpt>
      <trkpt lat="42.94956" lon="0.16166">
        <ele>2103</ele>
        <time>2014-03-29T11:59:19Z</time>
      </trkpt>
      <trkpt lat="42.94955" lon="0.16164">
        <ele>2101</ele>
        <time>2014-03-29T11:59:21Z</time>
      </trkpt>
      <trkpt lat="42.94948" lon="0.16151">
        <ele>2102</ele>
        <time>2014-03-29T11:59:35Z</time>
      </trkpt>
      <trkpt lat="42.94946" lon="0.1615">
        <ele>2099</ele>
        <time>2014-03-29T11:59:37Z</time>
      </trkpt>
      <trkpt lat="42.94946" lon="0.1615">
        <ele>2100</ele>
        <time>2014-03-29T11:59:38Z</time>
      </trkpt>
      <trkpt lat="42.94943" lon="0.16145">
        <ele>2097</ele>
        <time>2014-03-29T11:59:43Z</time>
      </trkpt>
      <trkpt lat="42.94943" lon="0.16144">
        <ele>2098</ele>
        <time>2014-03-29T11:59:44Z</time>
      </trkpt>
      <trkpt lat="42.94941" lon="0.16142">
        <ele>2094</ele>
        <time>2014-03-29T11:59:48Z</time>
      </trkpt>
      <trkpt lat="42.94941" lon="0.16142">
        <ele>2094</ele>
        <time>2014-03-29T11:59:49Z</time>
      </trkpt>
      <trkpt lat="42.94943" lon="0.16144">
        <ele>2095</ele>
        <time>2014-03-29T12:00:12Z</time>
      </trkpt>
      <trkpt lat="42.94942" lon="0.16143">
        <ele>2096</ele>
        <time>2014-03-29T12:00:20Z</time>
      </trkpt>
      <trkpt lat="42.9494" lon="0.1614">
        <ele>2098</ele>
        <time>2014-03-29T12:00:41Z</time>
      </trkpt>
      <trkpt lat="42.94936" lon="0.16135">
        <ele>2094</ele>
        <time>2014-03-29T12:00:49Z</time>
      </trkpt>
      <trkpt lat="42.94935" lon="0.16134">
        <ele>2094</ele>
        <time>2014-03-29T12:00:51Z</time>
      </trkpt>
      <trkpt lat="42.94932" lon="0.16129">
        <ele>2091</ele>
        <time>2014-03-29T12:00:57Z</time>
      </trkpt>
      <trkpt lat="42.94923" lon="0.16118">
        <ele>2090</ele>
        <time>2014-03-29T12:01:10Z</time>
      </trkpt>
      <trkpt lat="42.94922" lon="0.16116">
        <ele>2091</ele>
        <time>2014-03-29T12:01:12Z</time>
      </trkpt>
      <trkpt lat="42.9492" lon="0.16113">
        <ele>2091</ele>
        <time>2014-03-29T12:01:16Z</time>
      </trkpt>
      <trkpt lat="42.94918" lon="0.16111">
        <ele>2093</ele>
        <time>2014-03-29T12:01:20Z</time>
      </trkpt>
      <trkpt lat="42.94917" lon="0.16111">
        <ele>2092</ele>
        <time>2014-03-29T12:01:25Z</time>
      </trkpt>
      <trkpt lat="42.94915" lon="0.1611">
        <ele>2093</ele>
        <time>2014-03-29T12:01:38Z</time>
      </trkpt>
      <trkpt lat="42.94913" lon="0.16107">
        <ele>2088</ele>
        <time>2014-03-29T12:01:42Z</time>
      </trkpt>
      <trkpt lat="42.94913" lon="0.16106">
        <ele>2088</ele>
        <time>2014-03-29T12:01:43Z</time>
      </trkpt>
      <trkpt lat="42.94911" lon="0.16105">
        <ele>2086</ele>
        <time>2014-03-29T12:01:45Z</time>
      </trkpt>
      <trkpt lat="42.94909" lon="0.16104">
        <ele>2085</ele>
        <time>2014-03-29T12:01:48Z</time>
      </trkpt>
      <trkpt lat="42.94905" lon="0.161">
        <ele>2086</ele>
        <time>2014-03-29T12:01:53Z</time>
      </trkpt>
      <trkpt lat="42.94903" lon="0.16099">
        <ele>2084</ele>
        <time>2014-03-29T12:01:56Z</time>
      </trkpt>
      <trkpt lat="42.94901" lon="0.16097">
        <ele>2081</ele>
        <time>2014-03-29T12:01:59Z</time>
      </trkpt>
      <trkpt lat="42.949" lon="0.16096">
        <ele>2079</ele>
        <time>2014-03-29T12:02:02Z</time>
      </trkpt>
      <trkpt lat="42.94895" lon="0.16092">
        <ele>2076</ele>
        <time>2014-03-29T12:02:08Z</time>
      </trkpt>
      <trkpt lat="42.94895" lon="0.16091">
        <ele>2077</ele>
        <time>2014-03-29T12:02:09Z</time>
      </trkpt>
      <trkpt lat="42.9489" lon="0.16088">
        <ele>2073</ele>
        <time>2014-03-29T12:02:15Z</time>
      </trkpt>
      <trkpt lat="42.94889" lon="0.16088">
        <ele>2074</ele>
        <time>2014-03-29T12:02:16Z</time>
      </trkpt>
      <trkpt lat="42.94887" lon="0.16087">
        <ele>2071</ele>
        <time>2014-03-29T12:02:19Z</time>
      </trkpt>
      <trkpt lat="42.94884" lon="0.16087">
        <ele>2069</ele>
        <time>2014-03-29T12:02:22Z</time>
      </trkpt>
      <trkpt lat="42.9488" lon="0.16085">
        <ele>2067</ele>
        <time>2014-03-29T12:02:28Z</time>
      </trkpt>
      <trkpt lat="42.94878" lon="0.16085">
        <ele>2064</ele>
        <time>2014-03-29T12:02:31Z</time>
      </trkpt>
      <trkpt lat="42.94872" lon="0.16084">
        <ele>2060</ele>
        <time>2014-03-29T12:02:37Z</time>
      </trkpt>
      <trkpt lat="42.94871" lon="0.16085">
        <ele>2060</ele>
        <time>2014-03-29T12:02:38Z</time>
      </trkpt>
      <trkpt lat="42.94869" lon="0.16083">
        <ele>2059</ele>
        <time>2014-03-29T12:02:41Z</time>
      </trkpt>
      <trkpt lat="42.94863" lon="0.1608">
        <ele>2057</ele>
        <time>2014-03-29T12:02:47Z</time>
      </trkpt>
      <trkpt lat="42.94855" lon="0.16076">
        <ele>2053</ele>
        <time>2014-03-29T12:02:57Z</time>
      </trkpt>
      <trkpt lat="42.94852" lon="0.16076">
        <ele>2051</ele>
        <time>2014-03-29T12:03:01Z</time>
      </trkpt>
      <trkpt lat="42.94847" lon="0.16076">
        <ele>2049</ele>
        <time>2014-03-29T12:03:06Z</time>
      </trkpt>
      <trkpt lat="42.94841" lon="0.16078">
        <ele>2046</ele>
        <time>2014-03-29T12:03:13Z</time>
      </trkpt>
      <trkpt lat="42.94837" lon="0.16078">
        <ele>2047</ele>
        <time>2014-03-29T12:03:28Z</time>
      </trkpt>
      <trkpt lat="42.94838" lon="0.1608">
        <ele>2046</ele>
        <time>2014-03-29T12:03:51Z</time>
      </trkpt>
      <trkpt lat="42.9484" lon="0.16075">
        <ele>2046</ele>
        <time>2014-03-29T12:04:14Z</time>
      </trkpt>
      <trkpt lat="42.94837" lon="0.16079">
        <ele>2045</ele>
        <time>2014-03-29T12:04:35Z</time>
      </trkpt>
      <trkpt lat="42.94835" lon="0.16082">
        <ele>2045</ele>
        <time>2014-03-29T12:04:37Z</time>
      </trkpt>
      <trkpt lat="42.94831" lon="0.16083">
        <ele>2044</ele>
        <time>2014-03-29T12:04:41Z</time>
      </trkpt>
      <trkpt lat="42.94824" lon="0.16084">
        <ele>2043</ele>
        <time>2014-03-29T12:04:50Z</time>
      </trkpt>
      <trkpt lat="42.94818" lon="0.16086">
        <ele>2050</ele>
        <time>2014-03-29T12:04:56Z</time>
      </trkpt>
      <trkpt lat="42.94817" lon="0.16086">
        <ele>2054</ele>
        <time>2014-03-29T12:04:58Z</time>
      </trkpt>
      <trkpt lat="42.94816" lon="0.16086">
        <ele>2052</ele>
        <time>2014-03-29T12:04:59Z</time>
      </trkpt>
      <trkpt lat="42.94811" lon="0.16087">
        <ele>2048</ele>
        <time>2014-03-29T12:05:06Z</time>
      </trkpt>
      <trkpt lat="42.94807" lon="0.16089">
        <ele>2045</ele>
        <time>2014-03-29T12:05:10Z</time>
      </trkpt>
      <trkpt lat="42.94804" lon="0.16088">
        <ele>2040</ele>
        <time>2014-03-29T12:05:15Z</time>
      </trkpt>
      <trkpt lat="42.94804" lon="0.16088">
        <ele>2041</ele>
        <time>2014-03-29T12:05:16Z</time>
      </trkpt>
      <trkpt lat="42.94807" lon="0.16084">
        <ele>2043</ele>
        <time>2014-03-29T12:05:21Z</time>
      </trkpt>
      <trkpt lat="42.94808" lon="0.16082">
        <ele>2040</ele>
        <time>2014-03-29T12:05:23Z</time>
      </trkpt>
      <trkpt lat="42.94807" lon="0.16084">
        <ele>2037</ele>
        <time>2014-03-29T12:05:27Z</time>
      </trkpt>
      <trkpt lat="42.94807" lon="0.16083">
        <ele>2037</ele>
        <time>2014-03-29T12:05:28Z</time>
      </trkpt>
      <trkpt lat="42.94808" lon="0.16082">
        <ele>2039</ele>
        <time>2014-03-29T12:05:30Z</time>
      </trkpt>
      <trkpt lat="42.94808" lon="0.16082">
        <ele>2042</ele>
        <time>2014-03-29T12:05:31Z</time>
      </trkpt>
      <trkpt lat="42.94809" lon="0.16081">
        <ele>2041</ele>
        <time>2014-03-29T12:05:32Z</time>
      </trkpt>
      <trkpt lat="42.94808" lon="0.16083">
        <ele>2037</ele>
        <time>2014-03-29T12:05:37Z</time>
      </trkpt>
      <trkpt lat="42.94808" lon="0.16083">
        <ele>2037</ele>
        <time>2014-03-29T12:05:38Z</time>
      </trkpt>
      <trkpt lat="42.94807" lon="0.16084">
        <ele>2039</ele>
        <time>2014-03-29T12:05:41Z</time>
      </trkpt>
      <trkpt lat="42.94806" lon="0.16084">
        <ele>2043</ele>
        <time>2014-03-29T12:05:49Z</time>
      </trkpt>
      <trkpt lat="42.94806" lon="0.16085">
        <ele>2041</ele>
        <time>2014-03-29T12:05:50Z</time>
      </trkpt>
      <trkpt lat="42.94801" lon="0.1609">
        <ele>2040</ele>
        <time>2014-03-29T12:05:54Z</time>
      </trkpt>
      <trkpt lat="42.94789" lon="0.16098">
        <ele>2036</ele>
        <time>2014-03-29T12:06:05Z</time>
      </trkpt>
      <trkpt lat="42.94786" lon="0.161">
        <ele>2035</ele>
        <time>2014-03-29T12:06:07Z</time>
      </trkpt>
      <trkpt lat="42.94781" lon="0.16102">
        <ele>2030</ele>
        <time>2014-03-29T12:06:12Z</time>
      </trkpt>
      <trkpt lat="42.9478" lon="0.16102">
        <ele>2030</ele>
        <time>2014-03-29T12:06:13Z</time>
      </trkpt>
      <trkpt lat="42.94775" lon="0.16104">
        <ele>2030</ele>
        <time>2014-03-29T12:06:17Z</time>
      </trkpt>
      <trkpt lat="42.94772" lon="0.16104">
        <ele>2031</ele>
        <time>2014-03-29T12:06:20Z</time>
      </trkpt>
      <trkpt lat="42.94771" lon="0.16105">
        <ele>2029</ele>
        <time>2014-03-29T12:06:21Z</time>
      </trkpt>
      <trkpt lat="42.94766" lon="0.16105">
        <ele>2033</ele>
        <time>2014-03-29T12:06:26Z</time>
      </trkpt>
      <trkpt lat="42.94765" lon="0.16106">
        <ele>2029</ele>
        <time>2014-03-29T12:06:27Z</time>
      </trkpt>
      <trkpt lat="42.94763" lon="0.16107">
        <ele>2027</ele>
        <time>2014-03-29T12:06:29Z</time>
      </trkpt>
      <trkpt lat="42.94754" lon="0.1611">
        <ele>2024</ele>
        <time>2014-03-29T12:06:37Z</time>
      </trkpt>
      <trkpt lat="42.9475" lon="0.16113">
        <ele>2023</ele>
        <time>2014-03-29T12:06:41Z</time>
      </trkpt>
      <trkpt lat="42.94746" lon="0.16114">
        <ele>2025</ele>
        <time>2014-03-29T12:06:46Z</time>
      </trkpt>
      <trkpt lat="42.9474" lon="0.16117">
        <ele>2028</ele>
        <time>2014-03-29T12:06:53Z</time>
      </trkpt>
      <trkpt lat="42.94735" lon="0.16122">
        <ele>2030</ele>
        <time>2014-03-29T12:06:59Z</time>
      </trkpt>
      <trkpt lat="42.94732" lon="0.16124">
        <ele>2028</ele>
        <time>2014-03-29T12:07:02Z</time>
      </trkpt>
      <trkpt lat="42.94729" lon="0.16127">
        <ele>2024</ele>
        <time>2014-03-29T12:07:06Z</time>
      </trkpt>
      <trkpt lat="42.94727" lon="0.16129">
        <ele>2019</ele>
        <time>2014-03-29T12:07:09Z</time>
      </trkpt>
      <trkpt lat="42.94724" lon="0.16131">
        <ele>2017</ele>
        <time>2014-03-29T12:07:12Z</time>
      </trkpt>
      <trkpt lat="42.9471" lon="0.16135">
        <ele>2017</ele>
        <time>2014-03-29T12:07:27Z</time>
      </trkpt>
      <trkpt lat="42.94699" lon="0.16138">
        <ele>2016</ele>
        <time>2014-03-29T12:07:40Z</time>
      </trkpt>
      <trkpt lat="42.94696" lon="0.16141">
        <ele>2014</ele>
        <time>2014-03-29T12:07:44Z</time>
      </trkpt>
      <trkpt lat="42.94689" lon="0.16143">
        <ele>2015</ele>
        <time>2014-03-29T12:07:51Z</time>
      </trkpt>
      <trkpt lat="42.94683" lon="0.1614">
        <ele>2010</ele>
        <time>2014-03-29T12:07:57Z</time>
      </trkpt>
      <trkpt lat="42.9468" lon="0.16141">
        <ele>2009</ele>
        <time>2014-03-29T12:08:01Z</time>
      </trkpt>
      <trkpt lat="42.94674" lon="0.16145">
        <ele>2005</ele>
        <time>2014-03-29T12:08:07Z</time>
      </trkpt>
      <trkpt lat="42.94674" lon="0.16145">
        <ele>2005</ele>
        <time>2014-03-29T12:08:08Z</time>
      </trkpt>
      <trkpt lat="42.94673" lon="0.16145">
        <ele>2005</ele>
        <time>2014-03-29T12:08:10Z</time>
      </trkpt>
      <trkpt lat="42.94663" lon="0.16143">
        <ele>2005</ele>
        <time>2014-03-29T12:08:21Z</time>
      </trkpt>
      <trkpt lat="42.94661" lon="0.16143">
        <ele>2004</ele>
        <time>2014-03-29T12:08:24Z</time>
      </trkpt>
      <trkpt lat="42.94658" lon="0.16143">
        <ele>2003</ele>
        <time>2014-03-29T12:08:28Z</time>
      </trkpt>
      <trkpt lat="42.94652" lon="0.16141">
        <ele>2005</ele>
        <time>2014-03-29T12:08:35Z</time>
      </trkpt>
      <trkpt lat="42.94644" lon="0.16136">
        <ele>2002</ele>
        <time>2014-03-29T12:08:42Z</time>
      </trkpt>
      <trkpt lat="42.94643" lon="0.16136">
        <ele>2002</ele>
        <time>2014-03-29T12:08:43Z</time>
      </trkpt>
      <trkpt lat="42.94642" lon="0.16136">
        <ele>2001</ele>
        <time>2014-03-29T12:08:44Z</time>
      </trkpt>
      <trkpt lat="42.94638" lon="0.16133">
        <ele>2000</ele>
        <time>2014-03-29T12:08:50Z</time>
      </trkpt>
      <trkpt lat="42.94636" lon="0.16132">
        <ele>1998</ele>
        <time>2014-03-29T12:08:54Z</time>
      </trkpt>
      <trkpt lat="42.94635" lon="0.16136">
        <ele>1998</ele>
        <time>2014-03-29T12:09:13Z</time>
      </trkpt>
      <trkpt lat="42.94636" lon="0.16137">
        <ele>1995</ele>
        <time>2014-03-29T12:09:39Z</time>
      </trkpt>
      <trkpt lat="42.94636" lon="0.16137">
        <ele>1994</ele>
        <time>2014-03-29T12:10:01Z</time>
      </trkpt>
      <trkpt lat="42.94635" lon="0.16136">
        <ele>1995</ele>
        <time>2014-03-29T12:10:15Z</time>
      </trkpt>
      <trkpt lat="42.94629" lon="0.16131">
        <ele>1994</ele>
        <time>2014-03-29T12:10:26Z</time>
      </trkpt>
      <trkpt lat="42.94629" lon="0.16131">
        <ele>1994</ele>
        <time>2014-03-29T12:10:27Z</time>
      </trkpt>
      <trkpt lat="42.94628" lon="0.1613">
        <ele>1993</ele>
        <time>2014-03-29T12:10:29Z</time>
      </trkpt>
      <trkpt lat="42.94627" lon="0.16128">
        <ele>1992</ele>
        <time>2014-03-29T12:10:31Z</time>
      </trkpt>
      <trkpt lat="42.94625" lon="0.16127">
        <ele>1992</ele>
        <time>2014-03-29T12:10:33Z</time>
      </trkpt>
      <trkpt lat="42.94621" lon="0.16123">
        <ele>1991</ele>
        <time>2014-03-29T12:10:39Z</time>
      </trkpt>
      <trkpt lat="42.94613" lon="0.16114">
        <ele>1988</ele>
        <time>2014-03-29T12:10:51Z</time>
      </trkpt>
      <trkpt lat="42.94606" lon="0.16109">
        <ele>1984</ele>
        <time>2014-03-29T12:11:00Z</time>
      </trkpt>
      <trkpt lat="42.94604" lon="0.16106">
        <ele>1983</ele>
        <time>2014-03-29T12:11:04Z</time>
      </trkpt>
      <trkpt lat="42.94601" lon="0.16104">
        <ele>1983</ele>
        <time>2014-03-29T12:11:07Z</time>
      </trkpt>
      <trkpt lat="42.94597" lon="0.16102">
        <ele>1982</ele>
        <time>2014-03-29T12:11:20Z</time>
      </trkpt>
      <trkpt lat="42.94597" lon="0.16101">
        <ele>1982</ele>
        <time>2014-03-29T12:11:27Z</time>
      </trkpt>
      <trkpt lat="42.94596" lon="0.161">
        <ele>1982</ele>
        <time>2014-03-29T12:12:00Z</time>
      </trkpt>
      <trkpt lat="42.94593" lon="0.16099">
        <ele>1980</ele>
        <time>2014-03-29T12:12:14Z</time>
      </trkpt>
      <trkpt lat="42.94584" lon="0.16097">
        <ele>1979</ele>
        <time>2014-03-29T12:12:27Z</time>
      </trkpt>
      <trkpt lat="42.9458" lon="0.16096">
        <ele>1975</ele>
        <time>2014-03-29T12:12:33Z</time>
      </trkpt>
      <trkpt lat="42.94569" lon="0.16095">
        <ele>1972</ele>
        <time>2014-03-29T12:12:48Z</time>
      </trkpt>
      <trkpt lat="42.94568" lon="0.16095">
        <ele>1972</ele>
        <time>2014-03-29T12:12:49Z</time>
      </trkpt>
      <trkpt lat="42.94564" lon="0.16095">
        <ele>1969</ele>
        <time>2014-03-29T12:12:53Z</time>
      </trkpt>
      <trkpt lat="42.94562" lon="0.16095">
        <ele>1973</ele>
        <time>2014-03-29T12:12:56Z</time>
      </trkpt>
      <trkpt lat="42.9456" lon="0.16096">
        <ele>1971</ele>
        <time>2014-03-29T12:13:00Z</time>
      </trkpt>
      <trkpt lat="42.94557" lon="0.16097">
        <ele>1966</ele>
        <time>2014-03-29T12:13:03Z</time>
      </trkpt>
      <trkpt lat="42.94555" lon="0.16096">
        <ele>1964</ele>
        <time>2014-03-29T12:13:06Z</time>
      </trkpt>
      <trkpt lat="42.94552" lon="0.16092">
        <ele>1960</ele>
        <time>2014-03-29T12:13:15Z</time>
      </trkpt>
      <trkpt lat="42.94543" lon="0.16095">
        <ele>1958</ele>
        <time>2014-03-29T12:13:29Z</time>
      </trkpt>
      <trkpt lat="42.94535" lon="0.16095">
        <ele>1954</ele>
        <time>2014-03-29T12:13:42Z</time>
      </trkpt>
      <trkpt lat="42.94534" lon="0.16096">
        <ele>1954</ele>
        <time>2014-03-29T12:13:43Z</time>
      </trkpt>
      <trkpt lat="42.94531" lon="0.16096">
        <ele>1953</ele>
        <time>2014-03-29T12:13:57Z</time>
      </trkpt>
      <trkpt lat="42.94527" lon="0.16092">
        <ele>1953</ele>
        <time>2014-03-29T12:14:21Z</time>
      </trkpt>
      <trkpt lat="42.94529" lon="0.16096">
        <ele>1953</ele>
        <time>2014-03-29T12:14:40Z</time>
      </trkpt>
      <trkpt lat="42.94528" lon="0.16095">
        <ele>1954</ele>
        <time>2014-03-29T12:15:00Z</time>
      </trkpt>
      <trkpt lat="42.94525" lon="0.16099">
        <ele>1952</ele>
        <time>2014-03-29T12:15:12Z</time>
      </trkpt>
      <trkpt lat="42.9452" lon="0.16102">
        <ele>1949</ele>
        <time>2014-03-29T12:15:20Z</time>
      </trkpt>
      <trkpt lat="42.94514" lon="0.16104">
        <ele>1948</ele>
        <time>2014-03-29T12:15:27Z</time>
      </trkpt>
      <trkpt lat="42.94504" lon="0.16106">
        <ele>1945</ele>
        <time>2014-03-29T12:15:39Z</time>
      </trkpt>
      <trkpt lat="42.94501" lon="0.16107">
        <ele>1944</ele>
        <time>2014-03-29T12:15:42Z</time>
      </trkpt>
      <trkpt lat="42.94499" lon="0.16107">
        <ele>1942</ele>
        <time>2014-03-29T12:15:44Z</time>
      </trkpt>
      <trkpt lat="42.94493" lon="0.16109">
        <ele>1941</ele>
        <time>2014-03-29T12:15:49Z</time>
      </trkpt>
      <trkpt lat="42.94489" lon="0.1611">
        <ele>1940</ele>
        <time>2014-03-29T12:15:53Z</time>
      </trkpt>
      <trkpt lat="42.9448" lon="0.16113">
        <ele>1936</ele>
        <time>2014-03-29T12:16:03Z</time>
      </trkpt>
      <trkpt lat="42.94474" lon="0.16116">
        <ele>1934</ele>
        <time>2014-03-29T12:16:09Z</time>
      </trkpt>
      <trkpt lat="42.94468" lon="0.16118">
        <ele>1932</ele>
        <time>2014-03-29T12:16:15Z</time>
      </trkpt>
      <trkpt lat="42.94461" lon="0.16121">
        <ele>1930</ele>
        <time>2014-03-29T12:16:22Z</time>
      </trkpt>
      <trkpt lat="42.94452" lon="0.16125">
        <ele>1932</ele>
        <time>2014-03-29T12:16:33Z</time>
      </trkpt>
      <trkpt lat="42.94446" lon="0.16128">
        <ele>1929</ele>
        <time>2014-03-29T12:16:38Z</time>
      </trkpt>
      <trkpt lat="42.94445" lon="0.16129">
        <ele>1928</ele>
        <time>2014-03-29T12:16:40Z</time>
      </trkpt>
      <trkpt lat="42.94432" lon="0.16133">
        <ele>1926</ele>
        <time>2014-03-29T12:16:53Z</time>
      </trkpt>
      <trkpt lat="42.94431" lon="0.16133">
        <ele>1925</ele>
        <time>2014-03-29T12:16:54Z</time>
      </trkpt>
      <trkpt lat="42.94429" lon="0.16133">
        <ele>1924</ele>
        <time>2014-03-29T12:16:56Z</time>
      </trkpt>
      <trkpt lat="42.94425" lon="0.16134">
        <ele>1923</ele>
        <time>2014-03-29T12:16:59Z</time>
      </trkpt>
      <trkpt lat="42.94424" lon="0.16134">
        <ele>1924</ele>
        <time>2014-03-29T12:17:00Z</time>
      </trkpt>
      <trkpt lat="42.94419" lon="0.16136">
        <ele>1919</ele>
        <time>2014-03-29T12:17:06Z</time>
      </trkpt>
      <trkpt lat="42.94418" lon="0.16137">
        <ele>1919</ele>
        <time>2014-03-29T12:17:07Z</time>
      </trkpt>
      <trkpt lat="42.94411" lon="0.1614">
        <ele>1919</ele>
        <time>2014-03-29T12:17:14Z</time>
      </trkpt>
      <trkpt lat="42.94409" lon="0.16141">
        <ele>1918</ele>
        <time>2014-03-29T12:17:16Z</time>
      </trkpt>
      <trkpt lat="42.94403" lon="0.16144">
        <ele>1918</ele>
        <time>2014-03-29T12:17:22Z</time>
      </trkpt>
      <trkpt lat="42.9439" lon="0.16148">
        <ele>1916</ele>
        <time>2014-03-29T12:17:35Z</time>
      </trkpt>
      <trkpt lat="42.94377" lon="0.16155">
        <ele>1914</ele>
        <time>2014-03-29T12:17:47Z</time>
      </trkpt>
      <trkpt lat="42.94374" lon="0.16158">
        <ele>1915</ele>
        <time>2014-03-29T12:17:50Z</time>
      </trkpt>
      <trkpt lat="42.94359" lon="0.16163">
        <ele>1914</ele>
        <time>2014-03-29T12:18:04Z</time>
      </trkpt>
      <trkpt lat="42.94356" lon="0.16165">
        <ele>1917</ele>
        <time>2014-03-29T12:18:07Z</time>
      </trkpt>
      <trkpt lat="42.94349" lon="0.16171">
        <ele>1912</ele>
        <time>2014-03-29T12:18:16Z</time>
      </trkpt>
      <trkpt lat="42.94348" lon="0.16171">
        <ele>1913</ele>
        <time>2014-03-29T12:18:17Z</time>
      </trkpt>
      <trkpt lat="42.94345" lon="0.16173">
        <ele>1912</ele>
        <time>2014-03-29T12:18:20Z</time>
      </trkpt>
      <trkpt lat="42.94337" lon="0.16176">
        <ele>1911</ele>
        <time>2014-03-29T12:18:27Z</time>
      </trkpt>
      <trkpt lat="42.94323" lon="0.16184">
        <ele>1911</ele>
        <time>2014-03-29T12:18:41Z</time>
      </trkpt>
      <trkpt lat="42.94316" lon="0.16187">
        <ele>1909</ele>
        <time>2014-03-29T12:18:48Z</time>
      </trkpt>
      <trkpt lat="42.94312" lon="0.16188">
        <ele>1909</ele>
        <time>2014-03-29T12:18:53Z</time>
      </trkpt>
      <trkpt lat="42.94306" lon="0.16188">
        <ele>1908</ele>
        <time>2014-03-29T12:18:58Z</time>
      </trkpt>
      <trkpt lat="42.94304" lon="0.16188">
        <ele>1907</ele>
        <time>2014-03-29T12:18:59Z</time>
      </trkpt>
      <trkpt lat="42.94299" lon="0.16187">
        <ele>1904</ele>
        <time>2014-03-29T12:19:04Z</time>
      </trkpt>
      <trkpt lat="42.94291" lon="0.16189">
        <ele>1904</ele>
        <time>2014-03-29T12:19:12Z</time>
      </trkpt>
      <trkpt lat="42.94285" lon="0.16189">
        <ele>1902</ele>
        <time>2014-03-29T12:19:19Z</time>
      </trkpt>
      <trkpt lat="42.94284" lon="0.16189">
        <ele>1902</ele>
        <time>2014-03-29T12:19:20Z</time>
      </trkpt>
      <trkpt lat="42.94281" lon="0.1619">
        <ele>1899</ele>
        <time>2014-03-29T12:19:23Z</time>
      </trkpt>
      <trkpt lat="42.9428" lon="0.1619">
        <ele>1898</ele>
        <time>2014-03-29T12:19:34Z</time>
      </trkpt>
      <trkpt lat="42.94278" lon="0.16191">
        <ele>1896</ele>
        <time>2014-03-29T12:19:56Z</time>
      </trkpt>
      <trkpt lat="42.94276" lon="0.16192">
        <ele>1896</ele>
        <time>2014-03-29T12:19:58Z</time>
      </trkpt>
      <trkpt lat="42.94272" lon="0.16192">
        <ele>1894</ele>
        <time>2014-03-29T12:20:02Z</time>
      </trkpt>
      <trkpt lat="42.94263" lon="0.16197">
        <ele>1892</ele>
        <time>2014-03-29T12:20:12Z</time>
      </trkpt>
      <trkpt lat="42.94256" lon="0.16199">
        <ele>1888</ele>
        <time>2014-03-29T12:20:21Z</time>
      </trkpt>
      <trkpt lat="42.9425" lon="0.16197">
        <ele>1884</ele>
        <time>2014-03-29T12:20:28Z</time>
      </trkpt>
      <trkpt lat="42.94245" lon="0.16195">
        <ele>1883</ele>
        <time>2014-03-29T12:20:34Z</time>
      </trkpt>
      <trkpt lat="42.94238" lon="0.16192">
        <ele>1881</ele>
        <time>2014-03-29T12:20:45Z</time>
      </trkpt>
      <trkpt lat="42.94237" lon="0.16192">
        <ele>1880</ele>
        <time>2014-03-29T12:20:47Z</time>
      </trkpt>
      <trkpt lat="42.94229" lon="0.16192">
        <ele>1879</ele>
        <time>2014-03-29T12:20:56Z</time>
      </trkpt>
      <trkpt lat="42.94225" lon="0.1619">
        <ele>1880</ele>
        <time>2014-03-29T12:21:02Z</time>
      </trkpt>
      <trkpt lat="42.94222" lon="0.1619">
        <ele>1877</ele>
        <time>2014-03-29T12:21:06Z</time>
      </trkpt>
      <trkpt lat="42.94219" lon="0.1619">
        <ele>1873</ele>
        <time>2014-03-29T12:21:09Z</time>
      </trkpt>
      <trkpt lat="42.94209" lon="0.16189">
        <ele>1872</ele>
        <time>2014-03-29T12:21:22Z</time>
      </trkpt>
      <trkpt lat="42.94209" lon="0.16189">
        <ele>1873</ele>
        <time>2014-03-29T12:21:28Z</time>
      </trkpt>
      <trkpt lat="42.94209" lon="0.16188">
        <ele>1871</ele>
        <time>2014-03-29T12:21:58Z</time>
      </trkpt>
      <trkpt lat="42.94209" lon="0.16187">
        <ele>1873</ele>
        <time>2014-03-29T12:22:20Z</time>
      </trkpt>
      <trkpt lat="42.94206" lon="0.16187">
        <ele>1872</ele>
        <time>2014-03-29T12:22:38Z</time>
      </trkpt>
      <trkpt lat="42.94205" lon="0.16187">
        <ele>1873</ele>
        <time>2014-03-29T12:23:05Z</time>
      </trkpt>
      <trkpt lat="42.94205" lon="0.16187">
        <ele>1871</ele>
        <time>2014-03-29T12:23:25Z</time>
      </trkpt>
      <trkpt lat="42.94204" lon="0.16187">
        <ele>1869</ele>
        <time>2014-03-29T12:23:38Z</time>
      </trkpt>
      <trkpt lat="42.94197" lon="0.16187">
        <ele>1868</ele>
        <time>2014-03-29T12:23:45Z</time>
      </trkpt>
      <trkpt lat="42.94185" lon="0.16186">
        <ele>1867</ele>
        <time>2014-03-29T12:24:00Z</time>
      </trkpt>
      <trkpt lat="42.94185" lon="0.16185">
        <ele>1867</ele>
        <time>2014-03-29T12:24:04Z</time>
      </trkpt>
      <trkpt lat="42.94185" lon="0.16185">
        <ele>1868</ele>
        <time>2014-03-29T12:24:15Z</time>
      </trkpt>
      <trkpt lat="42.94184" lon="0.16185">
        <ele>1869</ele>
        <time>2014-03-29T12:24:38Z</time>
      </trkpt>
      <trkpt lat="42.94184" lon="0.16184">
        <ele>1871</ele>
        <time>2014-03-29T12:24:40Z</time>
      </trkpt>
      <trkpt lat="42.94183" lon="0.16184">
        <ele>1873</ele>
        <time>2014-03-29T12:24:42Z</time>
      </trkpt>
      <trkpt lat="42.94181" lon="0.16185">
        <ele>1872</ele>
        <time>2014-03-29T12:24:44Z</time>
      </trkpt>
      <trkpt lat="42.94175" lon="0.16188">
        <ele>1868</ele>
        <time>2014-03-29T12:24:49Z</time>
      </trkpt>
      <trkpt lat="42.94174" lon="0.16188">
        <ele>1868</ele>
        <time>2014-03-29T12:24:50Z</time>
      </trkpt>
      <trkpt lat="42.94171" lon="0.16189">
        <ele>1867</ele>
        <time>2014-03-29T12:24:53Z</time>
      </trkpt>
      <trkpt lat="42.94167" lon="0.16189">
        <ele>1870</ele>
        <time>2014-03-29T12:24:57Z</time>
      </trkpt>
      <trkpt lat="42.94164" lon="0.1619">
        <ele>1868</ele>
        <time>2014-03-29T12:25:00Z</time>
      </trkpt>
      <trkpt lat="42.94159" lon="0.1619">
        <ele>1868</ele>
        <time>2014-03-29T12:25:05Z</time>
      </trkpt>
      <trkpt lat="42.94154" lon="0.16191">
        <ele>1869</ele>
        <time>2014-03-29T12:25:11Z</time>
      </trkpt>
      <trkpt lat="42.94148" lon="0.16192">
        <ele>1867</ele>
        <time>2014-03-29T12:25:17Z</time>
      </trkpt>
      <trkpt lat="42.94136" lon="0.16187">
        <ele>1864</ele>
        <time>2014-03-29T12:25:27Z</time>
      </trkpt>
      <trkpt lat="42.94128" lon="0.16183">
        <ele>1860</ele>
        <time>2014-03-29T12:25:35Z</time>
      </trkpt>
      <trkpt lat="42.94112" lon="0.16176">
        <ele>1857</ele>
        <time>2014-03-29T12:25:50Z</time>
      </trkpt>
      <trkpt lat="42.94113" lon="0.16173">
        <ele>1860</ele>
        <time>2014-03-29T12:25:58Z</time>
      </trkpt>
      <trkpt lat="42.94114" lon="0.16171">
        <ele>1864</ele>
        <time>2014-03-29T12:26:03Z</time>
      </trkpt>
      <trkpt lat="42.94114" lon="0.16173">
        <ele>1860</ele>
        <time>2014-03-29T12:26:06Z</time>
      </trkpt>
      <trkpt lat="42.94113" lon="0.16176">
        <ele>1858</ele>
        <time>2014-03-29T12:26:10Z</time>
      </trkpt>
      <trkpt lat="42.9411" lon="0.16177">
        <ele>1858</ele>
        <time>2014-03-29T12:26:17Z</time>
      </trkpt>
      <trkpt lat="42.9411" lon="0.16176">
        <ele>1855</ele>
        <time>2014-03-29T12:26:21Z</time>
      </trkpt>
      <trkpt lat="42.9411" lon="0.16175">
        <ele>1857</ele>
        <time>2014-03-29T12:26:25Z</time>
      </trkpt>
      <trkpt lat="42.94103" lon="0.16173">
        <ele>1860</ele>
        <time>2014-03-29T12:26:31Z</time>
      </trkpt>
      <trkpt lat="42.94102" lon="0.16173">
        <ele>1858</ele>
        <time>2014-03-29T12:26:32Z</time>
      </trkpt>
      <trkpt lat="42.94099" lon="0.16171">
        <ele>1854</ele>
        <time>2014-03-29T12:26:35Z</time>
      </trkpt>
      <trkpt lat="42.94097" lon="0.16171">
        <ele>1852</ele>
        <time>2014-03-29T12:26:36Z</time>
      </trkpt>
      <trkpt lat="42.94092" lon="0.16167">
        <ele>1851</ele>
        <time>2014-03-29T12:26:43Z</time>
      </trkpt>
      <trkpt lat="42.94078" lon="0.16158">
        <ele>1848</ele>
        <time>2014-03-29T12:26:56Z</time>
      </trkpt>
      <trkpt lat="42.94071" lon="0.16153">
        <ele>1847</ele>
        <time>2014-03-29T12:27:08Z</time>
      </trkpt>
      <trkpt lat="42.94071" lon="0.16154">
        <ele>1847</ele>
        <time>2014-03-29T12:27:33Z</time>
      </trkpt>
      <trkpt lat="42.94072" lon="0.16153">
        <ele>1850</ele>
        <time>2014-03-29T12:27:46Z</time>
      </trkpt>
      <trkpt lat="42.94072" lon="0.16153">
        <ele>1853</ele>
        <time>2014-03-29T12:27:49Z</time>
      </trkpt>
      <trkpt lat="42.94072" lon="0.16151">
        <ele>1852</ele>
        <time>2014-03-29T12:27:57Z</time>
      </trkpt>
      <trkpt lat="42.94062" lon="0.16148">
        <ele>1848</ele>
        <time>2014-03-29T12:28:08Z</time>
      </trkpt>
      <trkpt lat="42.9406" lon="0.16147">
        <ele>1847</ele>
        <time>2014-03-29T12:28:11Z</time>
      </trkpt>
      <trkpt lat="42.94058" lon="0.16146">
        <ele>1848</ele>
        <time>2014-03-29T12:28:23Z</time>
      </trkpt>
      <trkpt lat="42.94059" lon="0.16147">
        <ele>1851</ele>
        <time>2014-03-29T12:28:39Z</time>
      </trkpt>
      <trkpt lat="42.94061" lon="0.16144">
        <ele>1849</ele>
        <time>2014-03-29T12:28:58Z</time>
      </trkpt>
      <trkpt lat="42.94062" lon="0.16143">
        <ele>1851</ele>
        <time>2014-03-29T12:29:00Z</time>
      </trkpt>
      <trkpt lat="42.94063" lon="0.16143">
        <ele>1850</ele>
        <time>2014-03-29T12:29:02Z</time>
      </trkpt>
      <trkpt lat="42.94063" lon="0.16143">
        <ele>1849</ele>
        <time>2014-03-29T12:29:04Z</time>
      </trkpt>
      <trkpt lat="42.94062" lon="0.16145">
        <ele>1847</ele>
        <time>2014-03-29T12:29:08Z</time>
      </trkpt>
      <trkpt lat="42.94062" lon="0.16144">
        <ele>1846</ele>
        <time>2014-03-29T12:29:15Z</time>
      </trkpt>
      <trkpt lat="42.9406" lon="0.16145">
        <ele>1843</ele>
        <time>2014-03-29T12:29:23Z</time>
      </trkpt>
      <trkpt lat="42.94058" lon="0.16146">
        <ele>1849</ele>
        <time>2014-03-29T12:29:29Z</time>
      </trkpt>
      <trkpt lat="42.94058" lon="0.16145">
        <ele>1849</ele>
        <time>2014-03-29T12:29:30Z</time>
      </trkpt>
      <trkpt lat="42.94051" lon="0.16144">
        <ele>1845</ele>
        <time>2014-03-29T12:29:37Z</time>
      </trkpt>
      <trkpt lat="42.94046" lon="0.16142">
        <ele>1848</ele>
        <time>2014-03-29T12:29:41Z</time>
      </trkpt>
      <trkpt lat="42.94044" lon="0.16141">
        <ele>1851</ele>
        <time>2014-03-29T12:29:43Z</time>
      </trkpt>
      <trkpt lat="42.94041" lon="0.16139">
        <ele>1846</ele>
        <time>2014-03-29T12:29:46Z</time>
      </trkpt>
      <trkpt lat="42.94039" lon="0.16138">
        <ele>1845</ele>
        <time>2014-03-29T12:29:48Z</time>
      </trkpt>
      <trkpt lat="42.94036" lon="0.16136">
        <ele>1843</ele>
        <time>2014-03-29T12:29:51Z</time>
      </trkpt>
      <trkpt lat="42.94029" lon="0.16136">
        <ele>1842</ele>
        <time>2014-03-29T12:29:56Z</time>
      </trkpt>
      <trkpt lat="42.94024" lon="0.16137">
        <ele>1839</ele>
        <time>2014-03-29T12:30:01Z</time>
      </trkpt>
      <trkpt lat="42.9402" lon="0.16136">
        <ele>1840</ele>
        <time>2014-03-29T12:30:05Z</time>
      </trkpt>
      <trkpt lat="42.94019" lon="0.16136">
        <ele>1839</ele>
        <time>2014-03-29T12:30:06Z</time>
      </trkpt>
      <trkpt lat="42.94014" lon="0.16137">
        <ele>1834</ele>
        <time>2014-03-29T12:30:11Z</time>
      </trkpt>
      <trkpt lat="42.94012" lon="0.16137">
        <ele>1834</ele>
        <time>2014-03-29T12:30:12Z</time>
      </trkpt>
      <trkpt lat="42.94009" lon="0.16138">
        <ele>1832</ele>
        <time>2014-03-29T12:30:15Z</time>
      </trkpt>
      <trkpt lat="42.94005" lon="0.16139">
        <ele>1831</ele>
        <time>2014-03-29T12:30:19Z</time>
      </trkpt>
      <trkpt lat="42.93999" lon="0.16142">
        <ele>1828</ele>
        <time>2014-03-29T12:30:24Z</time>
      </trkpt>
      <trkpt lat="42.93993" lon="0.16149">
        <ele>1826</ele>
        <time>2014-03-29T12:30:32Z</time>
      </trkpt>
      <trkpt lat="42.93984" lon="0.16157">
        <ele>1825</ele>
        <time>2014-03-29T12:30:43Z</time>
      </trkpt>
      <trkpt lat="42.93975" lon="0.16161">
        <ele>1821</ele>
        <time>2014-03-29T12:30:52Z</time>
      </trkpt>
      <trkpt lat="42.93965" lon="0.16169">
        <ele>1818</ele>
        <time>2014-03-29T12:31:05Z</time>
      </trkpt>
      <trkpt lat="42.93963" lon="0.1617">
        <ele>1817</ele>
        <time>2014-03-29T12:31:06Z</time>
      </trkpt>
      <trkpt lat="42.93959" lon="0.16173">
        <ele>1817</ele>
        <time>2014-03-29T12:31:12Z</time>
      </trkpt>
      <trkpt lat="42.93956" lon="0.16174">
        <ele>1815</ele>
        <time>2014-03-29T12:31:15Z</time>
      </trkpt>
      <trkpt lat="42.93945" lon="0.16182">
        <ele>1813</ele>
        <time>2014-03-29T12:31:28Z</time>
      </trkpt>
      <trkpt lat="42.93943" lon="0.16183">
        <ele>1814</ele>
        <time>2014-03-29T12:31:30Z</time>
      </trkpt>
      <trkpt lat="42.93938" lon="0.16177">
        <ele>1815</ele>
        <time>2014-03-29T12:31:46Z</time>
      </trkpt>
      <trkpt lat="42.93935" lon="0.16176">
        <ele>1814</ele>
        <time>2014-03-29T12:32:10Z</time>
      </trkpt>
      <trkpt lat="42.93923" lon="0.16181">
        <ele>1811</ele>
        <time>2014-03-29T12:32:22Z</time>
      </trkpt>
      <trkpt lat="42.93922" lon="0.16181">
        <ele>1811</ele>
        <time>2014-03-29T12:32:23Z</time>
      </trkpt>
      <trkpt lat="42.93916" lon="0.16185">
        <ele>1810</ele>
        <time>2014-03-29T12:32:29Z</time>
      </trkpt>
      <trkpt lat="42.9391" lon="0.16187">
        <ele>1811</ele>
        <time>2014-03-29T12:32:35Z</time>
      </trkpt>
      <trkpt lat="42.93907" lon="0.16187">
        <ele>1810</ele>
        <time>2014-03-29T12:32:37Z</time>
      </trkpt>
      <trkpt lat="42.93906" lon="0.16188">
        <ele>1809</ele>
        <time>2014-03-29T12:32:39Z</time>
      </trkpt>
      <trkpt lat="42.93897" lon="0.16192">
        <ele>1805</ele>
        <time>2014-03-29T12:32:49Z</time>
      </trkpt>
      <trkpt lat="42.93896" lon="0.16192">
        <ele>1805</ele>
        <time>2014-03-29T12:32:50Z</time>
      </trkpt>
      <trkpt lat="42.93894" lon="0.16191">
        <ele>1804</ele>
        <time>2014-03-29T12:32:52Z</time>
      </trkpt>
      <trkpt lat="42.93893" lon="0.16191">
        <ele>1802</ele>
        <time>2014-03-29T12:32:55Z</time>
      </trkpt>
      <trkpt lat="42.93887" lon="0.1619">
        <ele>1800</ele>
        <time>2014-03-29T12:33:04Z</time>
      </trkpt>
      <trkpt lat="42.93881" lon="0.16194">
        <ele>1798</ele>
        <time>2014-03-29T12:33:11Z</time>
      </trkpt>
      <trkpt lat="42.93878" lon="0.16195">
        <ele>1799</ele>
        <time>2014-03-29T12:33:24Z</time>
      </trkpt>
      <trkpt lat="42.93873" lon="0.16197">
        <ele>1799</ele>
        <time>2014-03-29T12:33:38Z</time>
      </trkpt>
      <trkpt lat="42.93871" lon="0.16198">
        <ele>1798</ele>
        <time>2014-03-29T12:33:40Z</time>
      </trkpt>
      <trkpt lat="42.93863" lon="0.162">
        <ele>1798</ele>
        <time>2014-03-29T12:33:48Z</time>
      </trkpt>
      <trkpt lat="42.93858" lon="0.16203">
        <ele>1800</ele>
        <time>2014-03-29T12:33:54Z</time>
      </trkpt>
      <trkpt lat="42.93851" lon="0.16209">
        <ele>1799</ele>
        <time>2014-03-29T12:34:03Z</time>
      </trkpt>
      <trkpt lat="42.93848" lon="0.1621">
        <ele>1797</ele>
        <time>2014-03-29T12:34:06Z</time>
      </trkpt>
      <trkpt lat="42.93841" lon="0.16213">
        <ele>1793</ele>
        <time>2014-03-29T12:34:16Z</time>
      </trkpt>
      <trkpt lat="42.93833" lon="0.16218">
        <ele>1790</ele>
        <time>2014-03-29T12:34:26Z</time>
      </trkpt>
      <trkpt lat="42.9383" lon="0.16221">
        <ele>1789</ele>
        <time>2014-03-29T12:34:29Z</time>
      </trkpt>
      <trkpt lat="42.93829" lon="0.16223">
        <ele>1789</ele>
        <time>2014-03-29T12:34:31Z</time>
      </trkpt>
      <trkpt lat="42.93825" lon="0.16227">
        <ele>1786</ele>
        <time>2014-03-29T12:34:35Z</time>
      </trkpt>
      <trkpt lat="42.93822" lon="0.16229">
        <ele>1785</ele>
        <time>2014-03-29T12:34:39Z</time>
      </trkpt>
      <trkpt lat="42.9381" lon="0.16235">
        <ele>1782</ele>
        <time>2014-03-29T12:34:52Z</time>
      </trkpt>
      <trkpt lat="42.93806" lon="0.16237">
        <ele>1782</ele>
        <time>2014-03-29T12:34:56Z</time>
      </trkpt>
      <trkpt lat="42.93801" lon="0.16238">
        <ele>1781</ele>
        <time>2014-03-29T12:35:03Z</time>
      </trkpt>
      <trkpt lat="42.93797" lon="0.1624">
        <ele>1782</ele>
        <time>2014-03-29T12:35:07Z</time>
      </trkpt>
      <trkpt lat="42.93795" lon="0.1624">
        <ele>1780</ele>
        <time>2014-03-29T12:35:10Z</time>
      </trkpt>
      <trkpt lat="42.93788" lon="0.16244">
        <ele>1779</ele>
        <time>2014-03-29T12:35:16Z</time>
      </trkpt>
      <trkpt lat="42.93781" lon="0.16249">
        <ele>1780</ele>
        <time>2014-03-29T12:35:24Z</time>
      </trkpt>
      <trkpt lat="42.93767" lon="0.1626">
        <ele>1778</ele>
        <time>2014-03-29T12:35:38Z</time>
      </trkpt>
      <trkpt lat="42.93765" lon="0.1626">
        <ele>1780</ele>
        <time>2014-03-29T12:35:41Z</time>
      </trkpt>
      <trkpt lat="42.93762" lon="0.1626">
        <ele>1780</ele>
        <time>2014-03-29T12:35:44Z</time>
      </trkpt>
      <trkpt lat="42.9376" lon="0.16263">
        <ele>1780</ele>
        <time>2014-03-29T12:35:47Z</time>
      </trkpt>
      <trkpt lat="42.93759" lon="0.1626">
        <ele>1776</ele>
        <time>2014-03-29T12:35:50Z</time>
      </trkpt>
      <trkpt lat="42.93753" lon="0.16264">
        <ele>1775</ele>
        <time>2014-03-29T12:35:58Z</time>
      </trkpt>
      <trkpt lat="42.93746" lon="0.16271">
        <ele>1777</ele>
        <time>2014-03-29T12:36:07Z</time>
      </trkpt>
      <trkpt lat="42.93745" lon="0.16272">
        <ele>1777</ele>
        <time>2014-03-29T12:36:08Z</time>
      </trkpt>
      <trkpt lat="42.93744" lon="0.16271">
        <ele>1775</ele>
        <time>2014-03-29T12:36:10Z</time>
      </trkpt>
      <trkpt lat="42.93741" lon="0.16272">
        <ele>1771</ele>
        <time>2014-03-29T12:36:14Z</time>
      </trkpt>
      <trkpt lat="42.93738" lon="0.16276">
        <ele>1768</ele>
        <time>2014-03-29T12:36:18Z</time>
      </trkpt>
      <trkpt lat="42.93737" lon="0.16276">
        <ele>1767</ele>
        <time>2014-03-29T12:36:19Z</time>
      </trkpt>
      <trkpt lat="42.93732" lon="0.16283">
        <ele>1767</ele>
        <time>2014-03-29T12:36:25Z</time>
      </trkpt>
      <trkpt lat="42.93726" lon="0.16289">
        <ele>1767</ele>
        <time>2014-03-29T12:36:32Z</time>
      </trkpt>
      <trkpt lat="42.93714" lon="0.16299">
        <ele>1764</ele>
        <time>2014-03-29T12:36:47Z</time>
      </trkpt>
      <trkpt lat="42.93713" lon="0.163">
        <ele>1761</ele>
        <time>2014-03-29T12:36:50Z</time>
      </trkpt>
      <trkpt lat="42.93702" lon="0.16309">
        <ele>1761</ele>
        <time>2014-03-29T12:37:03Z</time>
      </trkpt>
      <trkpt lat="42.937" lon="0.16311">
        <ele>1760</ele>
        <time>2014-03-29T12:37:05Z</time>
      </trkpt>
      <trkpt lat="42.93697" lon="0.16313">
        <ele>1759</ele>
        <time>2014-03-29T12:37:08Z</time>
      </trkpt>
      <trkpt lat="42.9369" lon="0.1631">
        <ele>1755</ele>
        <time>2014-03-29T12:37:20Z</time>
      </trkpt>
      <trkpt lat="42.93682" lon="0.16311">
        <ele>1754</ele>
        <time>2014-03-29T12:37:29Z</time>
      </trkpt>
      <trkpt lat="42.93683" lon="0.16303">
        <ele>1754</ele>
        <time>2014-03-29T12:37:38Z</time>
      </trkpt>
      <trkpt lat="42.93689" lon="0.16301">
        <ele>1753</ele>
        <time>2014-03-29T12:37:50Z</time>
      </trkpt>
      <trkpt lat="42.93688" lon="0.16302">
        <ele>1753</ele>
        <time>2014-03-29T12:38:01Z</time>
      </trkpt>
      <trkpt lat="42.93689" lon="0.16303">
        <ele>1753</ele>
        <time>2014-03-29T12:38:16Z</time>
      </trkpt>
      <trkpt lat="42.93689" lon="0.16302">
        <ele>1753</ele>
        <time>2014-03-29T12:38:33Z</time>
      </trkpt>
      <trkpt lat="42.93687" lon="0.16305">
        <ele>1752</ele>
        <time>2014-03-29T12:38:50Z</time>
      </trkpt>
      <trkpt lat="42.93679" lon="0.16294">
        <ele>1751</ele>
        <time>2014-03-29T12:39:19Z</time>
      </trkpt>
      <trkpt lat="42.93687" lon="0.16302">
        <ele>1752</ele>
        <time>2014-03-29T13:27:03Z</time>
      </trkpt>
      <trkpt lat="42.93686" lon="0.16304">
        <ele>1751</ele>
        <time>2014-03-29T13:27:17Z</time>
      </trkpt>
      <trkpt lat="42.93686" lon="0.16301">
        <ele>1752</ele>
        <time>2014-03-29T13:27:39Z</time>
      </trkpt>
      <trkpt lat="42.93686" lon="0.16302">
        <ele>1755</ele>
        <time>2014-03-29T13:27:50Z</time>
      </trkpt>
      <trkpt lat="42.93685" lon="0.16303">
        <ele>1754</ele>
        <time>2014-03-29T13:28:05Z</time>
      </trkpt>
      <trkpt lat="42.93684" lon="0.16303">
        <ele>1754</ele>
        <time>2014-03-29T13:28:12Z</time>
      </trkpt>
      <trkpt lat="42.93687" lon="0.16302">
        <ele>1751</ele>
        <time>2014-03-29T13:28:29Z</time>
      </trkpt>
      <trkpt lat="42.93687" lon="0.16302">
        <ele>1753</ele>
        <time>2014-03-29T13:28:43Z</time>
      </trkpt>
      <trkpt lat="42.93687" lon="0.16302">
        <ele>1755</ele>
        <time>2014-03-29T13:28:45Z</time>
      </trkpt>
      <trkpt lat="42.93687" lon="0.16302">
        <ele>1754</ele>
        <time>2014-03-29T13:28:49Z</time>
      </trkpt>
      <trkpt lat="42.93684" lon="0.16303">
        <ele>1754</ele>
        <time>2014-03-29T13:29:00Z</time>
      </trkpt>
      <trkpt lat="42.93689" lon="0.16303">
        <ele>1755</ele>
        <time>2014-03-29T13:29:16Z</time>
      </trkpt>
      <trkpt lat="42.93687" lon="0.16304">
        <ele>1754</ele>
        <time>2014-03-29T13:29:40Z</time>
      </trkpt>
      <trkpt lat="42.93687" lon="0.16303">
        <ele>1753</ele>
        <time>2014-03-29T13:29:41Z</time>
      </trkpt>
      <trkpt lat="42.93685" lon="0.16307">
        <ele>1755</ele>
        <time>2014-03-29T13:29:59Z</time>
      </trkpt>
      <trkpt lat="42.93682" lon="0.16312">
        <ele>1755</ele>
        <time>2014-03-29T13:30:19Z</time>
      </trkpt>
      <trkpt lat="42.93686" lon="0.16305">
        <ele>1754</ele>
        <time>2014-03-29T13:30:35Z</time>
      </trkpt>
      <trkpt lat="42.93683" lon="0.16306">
        <ele>1754</ele>
        <time>2014-03-29T13:30:41Z</time>
      </trkpt>
      <trkpt lat="42.9368" lon="0.16312">
        <ele>1752</ele>
        <time>2014-03-29T13:30:50Z</time>
      </trkpt>
      <trkpt lat="42.93675" lon="0.16326">
        <ele>1752</ele>
        <time>2014-03-29T13:31:05Z</time>
      </trkpt>
      <trkpt lat="42.93669" lon="0.16334">
        <ele>1755</ele>
        <time>2014-03-29T13:31:16Z</time>
      </trkpt>
      <trkpt lat="42.93664" lon="0.16344">
        <ele>1755</ele>
        <time>2014-03-29T13:31:28Z</time>
      </trkpt>
      <trkpt lat="42.93661" lon="0.16348">
        <ele>1755</ele>
        <time>2014-03-29T13:31:31Z</time>
      </trkpt>
      <trkpt lat="42.93658" lon="0.1635">
        <ele>1755</ele>
        <time>2014-03-29T13:31:33Z</time>
      </trkpt>
      <trkpt lat="42.93657" lon="0.16351">
        <ele>1755</ele>
        <time>2014-03-29T13:31:35Z</time>
      </trkpt>
      <trkpt lat="42.93642" lon="0.16361">
        <ele>1755</ele>
        <time>2014-03-29T13:31:47Z</time>
      </trkpt>
      <trkpt lat="42.9364" lon="0.16362">
        <ele>1755</ele>
        <time>2014-03-29T13:31:49Z</time>
      </trkpt>
      <trkpt lat="42.93636" lon="0.16365">
        <ele>1754</ele>
        <time>2014-03-29T13:31:53Z</time>
      </trkpt>
      <trkpt lat="42.93624" lon="0.16372">
        <ele>1752</ele>
        <time>2014-03-29T13:32:03Z</time>
      </trkpt>
      <trkpt lat="42.93619" lon="0.16377">
        <ele>1751</ele>
        <time>2014-03-29T13:32:07Z</time>
      </trkpt>
      <trkpt lat="42.93611" lon="0.16383">
        <ele>1749</ele>
        <time>2014-03-29T13:32:14Z</time>
      </trkpt>
      <trkpt lat="42.93609" lon="0.16385">
        <ele>1748</ele>
        <time>2014-03-29T13:32:16Z</time>
      </trkpt>
      <trkpt lat="42.93604" lon="0.16388">
        <ele>1747</ele>
        <time>2014-03-29T13:32:22Z</time>
      </trkpt>
      <trkpt lat="42.93603" lon="0.16389">
        <ele>1747</ele>
        <time>2014-03-29T13:32:25Z</time>
      </trkpt>
      <trkpt lat="42.93597" lon="0.16395">
        <ele>1744</ele>
        <time>2014-03-29T13:32:35Z</time>
      </trkpt>
      <trkpt lat="42.93589" lon="0.16403">
        <ele>1742</ele>
        <time>2014-03-29T13:32:43Z</time>
      </trkpt>
      <trkpt lat="42.93588" lon="0.16413">
        <ele>1743</ele>
        <time>2014-03-29T13:32:49Z</time>
      </trkpt>
      <trkpt lat="42.93587" lon="0.16416">
        <ele>1742</ele>
        <time>2014-03-29T13:32:53Z</time>
      </trkpt>
      <trkpt lat="42.93586" lon="0.16419">
        <ele>1741</ele>
        <time>2014-03-29T13:32:56Z</time>
      </trkpt>
      <trkpt lat="42.93583" lon="0.16424">
        <ele>1739</ele>
        <time>2014-03-29T13:33:05Z</time>
      </trkpt>
      <trkpt lat="42.9358" lon="0.16434">
        <ele>1736</ele>
        <time>2014-03-29T13:33:12Z</time>
      </trkpt>
      <trkpt lat="42.93579" lon="0.16435">
        <ele>1736</ele>
        <time>2014-03-29T13:33:13Z</time>
      </trkpt>
      <trkpt lat="42.93576" lon="0.16442">
        <ele>1733</ele>
        <time>2014-03-29T13:33:21Z</time>
      </trkpt>
      <trkpt lat="42.93567" lon="0.16461">
        <ele>1731</ele>
        <time>2014-03-29T13:33:34Z</time>
      </trkpt>
      <trkpt lat="42.93568" lon="0.16477">
        <ele>1730</ele>
        <time>2014-03-29T13:33:42Z</time>
      </trkpt>
      <trkpt lat="42.93568" lon="0.16476">
        <ele>1729</ele>
        <time>2014-03-29T13:33:44Z</time>
      </trkpt>
      <trkpt lat="42.93568" lon="0.16477">
        <ele>1729</ele>
        <time>2014-03-29T13:33:47Z</time>
      </trkpt>
      <trkpt lat="42.93567" lon="0.16481">
        <ele>1728</ele>
        <time>2014-03-29T13:33:51Z</time>
      </trkpt>
      <trkpt lat="42.9356" lon="0.16487">
        <ele>1727</ele>
        <time>2014-03-29T13:33:57Z</time>
      </trkpt>
      <trkpt lat="42.93554" lon="0.16487">
        <ele>1726</ele>
        <time>2014-03-29T13:34:03Z</time>
      </trkpt>
      <trkpt lat="42.93551" lon="0.16493">
        <ele>1725</ele>
        <time>2014-03-29T13:34:09Z</time>
      </trkpt>
      <trkpt lat="42.93548" lon="0.16496">
        <ele>1724</ele>
        <time>2014-03-29T13:34:12Z</time>
      </trkpt>
      <trkpt lat="42.93541" lon="0.16503">
        <ele>1724</ele>
        <time>2014-03-29T13:34:21Z</time>
      </trkpt>
      <trkpt lat="42.93531" lon="0.1651">
        <ele>1720</ele>
        <time>2014-03-29T13:34:32Z</time>
      </trkpt>
      <trkpt lat="42.93526" lon="0.16515">
        <ele>1720</ele>
        <time>2014-03-29T13:34:39Z</time>
      </trkpt>
      <trkpt lat="42.93523" lon="0.16519">
        <ele>1718</ele>
        <time>2014-03-29T13:34:50Z</time>
      </trkpt>
      <trkpt lat="42.93519" lon="0.16521">
        <ele>1718</ele>
        <time>2014-03-29T13:34:55Z</time>
      </trkpt>
      <trkpt lat="42.93502" lon="0.1653">
        <ele>1718</ele>
        <time>2014-03-29T13:35:06Z</time>
      </trkpt>
      <trkpt lat="42.935" lon="0.16528">
        <ele>1718</ele>
        <time>2014-03-29T13:35:12Z</time>
      </trkpt>
      <trkpt lat="42.93501" lon="0.16528">
        <ele>1718</ele>
        <time>2014-03-29T13:35:14Z</time>
      </trkpt>
      <trkpt lat="42.93498" lon="0.16531">
        <ele>1721</ele>
        <time>2014-03-29T13:35:18Z</time>
      </trkpt>
      <trkpt lat="42.93496" lon="0.16532">
        <ele>1719</ele>
        <time>2014-03-29T13:35:21Z</time>
      </trkpt>
      <trkpt lat="42.93491" lon="0.16533">
        <ele>1717</ele>
        <time>2014-03-29T13:35:27Z</time>
      </trkpt>
      <trkpt lat="42.93482" lon="0.16538">
        <ele>1715</ele>
        <time>2014-03-29T13:35:31Z</time>
      </trkpt>
      <trkpt lat="42.9348" lon="0.16538">
        <ele>1715</ele>
        <time>2014-03-29T13:35:34Z</time>
      </trkpt>
      <trkpt lat="42.93474" lon="0.16546">
        <ele>1712</ele>
        <time>2014-03-29T13:35:46Z</time>
      </trkpt>
      <trkpt lat="42.93472" lon="0.16548">
        <ele>1710</ele>
        <time>2014-03-29T13:35:49Z</time>
      </trkpt>
      <trkpt lat="42.93465" lon="0.16553">
        <ele>1710</ele>
        <time>2014-03-29T13:35:55Z</time>
      </trkpt>
      <trkpt lat="42.93462" lon="0.1656">
        <ele>1709</ele>
        <time>2014-03-29T13:36:02Z</time>
      </trkpt>
      <trkpt lat="42.93458" lon="0.16566">
        <ele>1708</ele>
        <time>2014-03-29T13:36:10Z</time>
      </trkpt>
      <trkpt lat="42.93458" lon="0.16568">
        <ele>1710</ele>
        <time>2014-03-29T13:36:13Z</time>
      </trkpt>
      <trkpt lat="42.93455" lon="0.16574">
        <ele>1706</ele>
        <time>2014-03-29T13:36:19Z</time>
      </trkpt>
      <trkpt lat="42.93453" lon="0.16581">
        <ele>1704</ele>
        <time>2014-03-29T13:36:25Z</time>
      </trkpt>
      <trkpt lat="42.93452" lon="0.16583">
        <ele>1703</ele>
        <time>2014-03-29T13:36:28Z</time>
      </trkpt>
      <trkpt lat="42.93451" lon="0.16587">
        <ele>1704</ele>
        <time>2014-03-29T13:36:32Z</time>
      </trkpt>
      <trkpt lat="42.93449" lon="0.1659">
        <ele>1703</ele>
        <time>2014-03-29T13:36:34Z</time>
      </trkpt>
      <trkpt lat="42.93445" lon="0.166">
        <ele>1699</ele>
        <time>2014-03-29T13:36:44Z</time>
      </trkpt>
      <trkpt lat="42.93444" lon="0.16604">
        <ele>1699</ele>
        <time>2014-03-29T13:36:49Z</time>
      </trkpt>
      <trkpt lat="42.93439" lon="0.16618">
        <ele>1699</ele>
        <time>2014-03-29T13:37:03Z</time>
      </trkpt>
      <trkpt lat="42.9344" lon="0.16621">
        <ele>1701</ele>
        <time>2014-03-29T13:37:08Z</time>
      </trkpt>
      <trkpt lat="42.93439" lon="0.16622">
        <ele>1703</ele>
        <time>2014-03-29T13:37:10Z</time>
      </trkpt>
      <trkpt lat="42.93437" lon="0.16622">
        <ele>1700</ele>
        <time>2014-03-29T13:37:12Z</time>
      </trkpt>
      <trkpt lat="42.93437" lon="0.16623">
        <ele>1700</ele>
        <time>2014-03-29T13:37:13Z</time>
      </trkpt>
      <trkpt lat="42.9343" lon="0.16633">
        <ele>1697</ele>
        <time>2014-03-29T13:37:24Z</time>
      </trkpt>
      <trkpt lat="42.93427" lon="0.16637">
        <ele>1696</ele>
        <time>2014-03-29T13:37:33Z</time>
      </trkpt>
      <trkpt lat="42.93422" lon="0.16638">
        <ele>1693</ele>
        <time>2014-03-29T13:37:39Z</time>
      </trkpt>
      <trkpt lat="42.93422" lon="0.16639">
        <ele>1693</ele>
        <time>2014-03-29T13:37:44Z</time>
      </trkpt>
      <trkpt lat="42.93422" lon="0.16642">
        <ele>1692</ele>
        <time>2014-03-29T13:37:47Z</time>
      </trkpt>
      <trkpt lat="42.93422" lon="0.16643">
        <ele>1692</ele>
        <time>2014-03-29T13:37:49Z</time>
      </trkpt>
      <trkpt lat="42.93417" lon="0.16649">
        <ele>1688</ele>
        <time>2014-03-29T13:37:57Z</time>
      </trkpt>
      <trkpt lat="42.93417" lon="0.1665">
        <ele>1688</ele>
        <time>2014-03-29T13:37:58Z</time>
      </trkpt>
      <trkpt lat="42.93412" lon="0.16657">
        <ele>1686</ele>
        <time>2014-03-29T13:38:05Z</time>
      </trkpt>
      <trkpt lat="42.93402" lon="0.16668">
        <ele>1684</ele>
        <time>2014-03-29T13:38:18Z</time>
      </trkpt>
      <trkpt lat="42.93397" lon="0.16674">
        <ele>1682</ele>
        <time>2014-03-29T13:38:26Z</time>
      </trkpt>
      <trkpt lat="42.93394" lon="0.16676">
        <ele>1681</ele>
        <time>2014-03-29T13:38:28Z</time>
      </trkpt>
      <trkpt lat="42.93392" lon="0.16678">
        <ele>1681</ele>
        <time>2014-03-29T13:38:30Z</time>
      </trkpt>
      <trkpt lat="42.93391" lon="0.16679">
        <ele>1680</ele>
        <time>2014-03-29T13:38:32Z</time>
      </trkpt>
      <trkpt lat="42.93389" lon="0.16681">
        <ele>1680</ele>
        <time>2014-03-29T13:38:34Z</time>
      </trkpt>
      <trkpt lat="42.93378" lon="0.16696">
        <ele>1678</ele>
        <time>2014-03-29T13:38:49Z</time>
      </trkpt>
      <trkpt lat="42.9337" lon="0.16714">
        <ele>1676</ele>
        <time>2014-03-29T13:39:03Z</time>
      </trkpt>
      <trkpt lat="42.93364" lon="0.1673">
        <ele>1675</ele>
        <time>2014-03-29T13:39:16Z</time>
      </trkpt>
      <trkpt lat="42.93361" lon="0.16735">
        <ele>1674</ele>
        <time>2014-03-29T13:39:21Z</time>
      </trkpt>
      <trkpt lat="42.93358" lon="0.16745">
        <ele>1674</ele>
        <time>2014-03-29T13:39:30Z</time>
      </trkpt>
      <trkpt lat="42.9335" lon="0.16759">
        <ele>1672</ele>
        <time>2014-03-29T13:39:42Z</time>
      </trkpt>
      <trkpt lat="42.93345" lon="0.16776">
        <ele>1671</ele>
        <time>2014-03-29T13:39:57Z</time>
      </trkpt>
      <trkpt lat="42.9334" lon="0.16786">
        <ele>1670</ele>
        <time>2014-03-29T13:40:06Z</time>
      </trkpt>
      <trkpt lat="42.93338" lon="0.1679">
        <ele>1670</ele>
        <time>2014-03-29T13:40:11Z</time>
      </trkpt>
      <trkpt lat="42.93326" lon="0.16804">
        <ele>1672</ele>
        <time>2014-03-29T13:40:25Z</time>
      </trkpt>
      <trkpt lat="42.93325" lon="0.16808">
        <ele>1672</ele>
        <time>2014-03-29T13:40:28Z</time>
      </trkpt>
      <trkpt lat="42.93311" lon="0.16812">
        <ele>1672</ele>
        <time>2014-03-29T13:40:44Z</time>
      </trkpt>
      <trkpt lat="42.93308" lon="0.16818">
        <ele>1672</ele>
        <time>2014-03-29T13:40:58Z</time>
      </trkpt>
      <trkpt lat="42.93305" lon="0.16812">
        <ele>1672</ele>
        <time>2014-03-29T13:41:10Z</time>
      </trkpt>
      <trkpt lat="42.93304" lon="0.16813">
        <ele>1674</ele>
        <time>2014-03-29T13:41:24Z</time>
      </trkpt>
      <trkpt lat="42.93307" lon="0.16816">
        <ele>1677</ele>
        <time>2014-03-29T13:41:55Z</time>
      </trkpt>
      <trkpt lat="42.93303" lon="0.16818">
        <ele>1675</ele>
        <time>2014-03-29T13:42:16Z</time>
      </trkpt>
      <trkpt lat="42.93302" lon="0.16819">
        <ele>1673</ele>
        <time>2014-03-29T13:42:48Z</time>
      </trkpt>
      <trkpt lat="42.93299" lon="0.16833">
        <ele>1672</ele>
        <time>2014-03-29T13:43:00Z</time>
      </trkpt>
      <trkpt lat="42.93299" lon="0.16838">
        <ele>1671</ele>
        <time>2014-03-29T13:43:04Z</time>
      </trkpt>
      <trkpt lat="42.93298" lon="0.16852">
        <ele>1671</ele>
        <time>2014-03-29T13:43:15Z</time>
      </trkpt>
      <trkpt lat="42.93296" lon="0.1686">
        <ele>1671</ele>
        <time>2014-03-29T13:43:21Z</time>
      </trkpt>
      <trkpt lat="42.93291" lon="0.16873">
        <ele>1670</ele>
        <time>2014-03-29T13:43:32Z</time>
      </trkpt>
      <trkpt lat="42.93289" lon="0.16886">
        <ele>1668</ele>
        <time>2014-03-29T13:43:41Z</time>
      </trkpt>
      <trkpt lat="42.93284" lon="0.16893">
        <ele>1668</ele>
        <time>2014-03-29T13:43:46Z</time>
      </trkpt>
      <trkpt lat="42.93283" lon="0.16896">
        <ele>1668</ele>
        <time>2014-03-29T13:43:48Z</time>
      </trkpt>
      <trkpt lat="42.93275" lon="0.16906">
        <ele>1668</ele>
        <time>2014-03-29T13:44:03Z</time>
      </trkpt>
      <trkpt lat="42.93268" lon="0.16903">
        <ele>1668</ele>
        <time>2014-03-29T13:44:17Z</time>
      </trkpt>
      <trkpt lat="42.93267" lon="0.16912">
        <ele>1668</ele>
        <time>2014-03-29T13:44:30Z</time>
      </trkpt>
      <trkpt lat="42.93266" lon="0.16921">
        <ele>1668</ele>
        <time>2014-03-29T13:44:47Z</time>
      </trkpt>
      <trkpt lat="42.93264" lon="0.1692">
        <ele>1668</ele>
        <time>2014-03-29T13:45:20Z</time>
      </trkpt>
      <trkpt lat="42.93265" lon="0.16926">
        <ele>1667</ele>
        <time>2014-03-29T13:45:31Z</time>
      </trkpt>
      <trkpt lat="42.93268" lon="0.16925">
        <ele>1668</ele>
        <time>2014-03-29T13:45:41Z</time>
      </trkpt>
      <trkpt lat="42.93268" lon="0.16928">
        <ele>1668</ele>
        <time>2014-03-29T13:45:52Z</time>
      </trkpt>
      <trkpt lat="42.93271" lon="0.16942">
        <ele>1664</ele>
        <time>2014-03-29T13:46:05Z</time>
      </trkpt>
      <trkpt lat="42.93273" lon="0.16958">
        <ele>1661</ele>
        <time>2014-03-29T13:46:16Z</time>
      </trkpt>
      <trkpt lat="42.93273" lon="0.16965">
        <ele>1659</ele>
        <time>2014-03-29T13:46:29Z</time>
      </trkpt>
      <trkpt lat="42.93275" lon="0.16976">
        <ele>1658</ele>
        <time>2014-03-29T13:46:43Z</time>
      </trkpt>
      <trkpt lat="42.93274" lon="0.16985">
        <ele>1656</ele>
        <time>2014-03-29T13:46:50Z</time>
      </trkpt>
      <trkpt lat="42.93273" lon="0.16993">
        <ele>1656</ele>
        <time>2014-03-29T13:46:56Z</time>
      </trkpt>
      <trkpt lat="42.93272" lon="0.17003">
        <ele>1656</ele>
        <time>2014-03-29T13:47:04Z</time>
      </trkpt>
      <trkpt lat="42.93274" lon="0.17011">
        <ele>1654</ele>
        <time>2014-03-29T13:47:10Z</time>
      </trkpt>
      <trkpt lat="42.93278" lon="0.17027">
        <ele>1652</ele>
        <time>2014-03-29T13:47:23Z</time>
      </trkpt>
      <trkpt lat="42.9328" lon="0.17043">
        <ele>1649</ele>
        <time>2014-03-29T13:47:36Z</time>
      </trkpt>
      <trkpt lat="42.93276" lon="0.17059">
        <ele>1646</ele>
        <time>2014-03-29T13:47:49Z</time>
      </trkpt>
      <trkpt lat="42.93277" lon="0.17075">
        <ele>1643</ele>
        <time>2014-03-29T13:48:03Z</time>
      </trkpt>
      <trkpt lat="42.93273" lon="0.1709">
        <ele>1640</ele>
        <time>2014-03-29T13:48:15Z</time>
      </trkpt>
      <trkpt lat="42.93273" lon="0.17095">
        <ele>1639</ele>
        <time>2014-03-29T13:48:19Z</time>
      </trkpt>
      <trkpt lat="42.93276" lon="0.17104">
        <ele>1638</ele>
        <time>2014-03-29T13:48:32Z</time>
      </trkpt>
      <trkpt lat="42.93275" lon="0.17106">
        <ele>1638</ele>
        <time>2014-03-29T13:49:00Z</time>
      </trkpt>
      <trkpt lat="42.9327" lon="0.17109">
        <ele>1639</ele>
        <time>2014-03-29T13:49:23Z</time>
      </trkpt>
      <trkpt lat="42.93269" lon="0.17125">
        <ele>1637</ele>
        <time>2014-03-29T13:49:37Z</time>
      </trkpt>
      <trkpt lat="42.93268" lon="0.17141">
        <ele>1635</ele>
        <time>2014-03-29T13:49:51Z</time>
      </trkpt>
      <trkpt lat="42.93268" lon="0.17151">
        <ele>1636</ele>
        <time>2014-03-29T13:50:00Z</time>
      </trkpt>
      <trkpt lat="42.93265" lon="0.17166">
        <ele>1634</ele>
        <time>2014-03-29T13:50:13Z</time>
      </trkpt>
      <trkpt lat="42.93263" lon="0.1717">
        <ele>1634</ele>
        <time>2014-03-29T13:50:17Z</time>
      </trkpt>
      <trkpt lat="42.93263" lon="0.17174">
        <ele>1634</ele>
        <time>2014-03-29T13:50:21Z</time>
      </trkpt>
      <trkpt lat="42.93263" lon="0.17188">
        <ele>1633</ele>
        <time>2014-03-29T13:50:32Z</time>
      </trkpt>
      <trkpt lat="42.93264" lon="0.17206">
        <ele>1632</ele>
        <time>2014-03-29T13:50:45Z</time>
      </trkpt>
      <trkpt lat="42.93264" lon="0.17211">
        <ele>1632</ele>
        <time>2014-03-29T13:50:49Z</time>
      </trkpt>
      <trkpt lat="42.93267" lon="0.17217">
        <ele>1631</ele>
        <time>2014-03-29T13:50:54Z</time>
      </trkpt>
      <trkpt lat="42.93267" lon="0.17218">
        <ele>1631</ele>
        <time>2014-03-29T13:50:55Z</time>
      </trkpt>
      <trkpt lat="42.93273" lon="0.17227">
        <ele>1630</ele>
        <time>2014-03-29T13:51:03Z</time>
      </trkpt>
      <trkpt lat="42.9327" lon="0.1724">
        <ele>1629</ele>
        <time>2014-03-29T13:51:11Z</time>
      </trkpt>
      <trkpt lat="42.93263" lon="0.17265">
        <ele>1627</ele>
        <time>2014-03-29T13:51:26Z</time>
      </trkpt>
      <trkpt lat="42.93262" lon="0.1728">
        <ele>1627</ele>
        <time>2014-03-29T13:51:38Z</time>
      </trkpt>
      <trkpt lat="42.93256" lon="0.17296">
        <ele>1627</ele>
        <time>2014-03-29T13:51:51Z</time>
      </trkpt>
      <trkpt lat="42.93251" lon="0.17311">
        <ele>1627</ele>
        <time>2014-03-29T13:52:04Z</time>
      </trkpt>
      <trkpt lat="42.93242" lon="0.17329">
        <ele>1625</ele>
        <time>2014-03-29T13:52:19Z</time>
      </trkpt>
      <trkpt lat="42.93241" lon="0.1733">
        <ele>1626</ele>
        <time>2014-03-29T13:52:20Z</time>
      </trkpt>
      <trkpt lat="42.93233" lon="0.17348">
        <ele>1626</ele>
        <time>2014-03-29T13:52:34Z</time>
      </trkpt>
      <trkpt lat="42.93223" lon="0.17363">
        <ele>1627</ele>
        <time>2014-03-29T13:52:47Z</time>
      </trkpt>
      <trkpt lat="42.93222" lon="0.17368">
        <ele>1627</ele>
        <time>2014-03-29T13:52:51Z</time>
      </trkpt>
      <trkpt lat="42.9322" lon="0.17384">
        <ele>1628</ele>
        <time>2014-03-29T13:53:06Z</time>
      </trkpt>
      <trkpt lat="42.93217" lon="0.1739">
        <ele>1627</ele>
        <time>2014-03-29T13:53:11Z</time>
      </trkpt>
      <trkpt lat="42.93215" lon="0.17393">
        <ele>1625</ele>
        <time>2014-03-29T13:53:15Z</time>
      </trkpt>
      <trkpt lat="42.9321" lon="0.17409">
        <ele>1625</ele>
        <time>2014-03-29T13:53:26Z</time>
      </trkpt>
      <trkpt lat="42.93205" lon="0.1743">
        <ele>1623</ele>
        <time>2014-03-29T13:53:40Z</time>
      </trkpt>
      <trkpt lat="42.93203" lon="0.17447">
        <ele>1623</ele>
        <time>2014-03-29T13:53:53Z</time>
      </trkpt>
      <trkpt lat="42.93204" lon="0.17449">
        <ele>1623</ele>
        <time>2014-03-29T13:53:55Z</time>
      </trkpt>
      <trkpt lat="42.93201" lon="0.17466">
        <ele>1621</ele>
        <time>2014-03-29T13:54:09Z</time>
      </trkpt>
      <trkpt lat="42.932" lon="0.17472">
        <ele>1624</ele>
        <time>2014-03-29T13:54:14Z</time>
      </trkpt>
      <trkpt lat="42.93199" lon="0.17482">
        <ele>1624</ele>
        <time>2014-03-29T13:54:21Z</time>
      </trkpt>
      <trkpt lat="42.93199" lon="0.17485">
        <ele>1624</ele>
        <time>2014-03-29T13:54:23Z</time>
      </trkpt>
      <trkpt lat="42.93199" lon="0.17495">
        <ele>1619</ele>
        <time>2014-03-29T13:54:32Z</time>
      </trkpt>
      <trkpt lat="42.93197" lon="0.17498">
        <ele>1618</ele>
        <time>2014-03-29T13:54:44Z</time>
      </trkpt>
      <trkpt lat="42.93202" lon="0.17499">
        <ele>1618</ele>
        <time>2014-03-29T13:54:55Z</time>
      </trkpt>
      <trkpt lat="42.93204" lon="0.17514">
        <ele>1619</ele>
        <time>2014-03-29T13:55:08Z</time>
      </trkpt>
      <trkpt lat="42.93203" lon="0.17526">
        <ele>1619</ele>
        <time>2014-03-29T13:55:21Z</time>
      </trkpt>
      <trkpt lat="42.93201" lon="0.17544">
        <ele>1619</ele>
        <time>2014-03-29T13:55:35Z</time>
      </trkpt>
      <trkpt lat="42.93209" lon="0.17549">
        <ele>1620</ele>
        <time>2014-03-29T13:55:48Z</time>
      </trkpt>
      <trkpt lat="42.93204" lon="0.17564">
        <ele>1621</ele>
        <time>2014-03-29T13:56:04Z</time>
      </trkpt>
      <trkpt lat="42.93192" lon="0.17574">
        <ele>1621</ele>
        <time>2014-03-29T13:56:19Z</time>
      </trkpt>
      <trkpt lat="42.93187" lon="0.17579">
        <ele>1620</ele>
        <time>2014-03-29T13:56:25Z</time>
      </trkpt>
      <trkpt lat="42.93182" lon="0.17586">
        <ele>1620</ele>
        <time>2014-03-29T13:56:33Z</time>
      </trkpt>
      <trkpt lat="42.9318" lon="0.17589">
        <ele>1623</ele>
        <time>2014-03-29T13:56:37Z</time>
      </trkpt>
      <trkpt lat="42.93176" lon="0.17594">
        <ele>1619</ele>
        <time>2014-03-29T13:56:42Z</time>
      </trkpt>
      <trkpt lat="42.93175" lon="0.17596">
        <ele>1619</ele>
        <time>2014-03-29T13:56:43Z</time>
      </trkpt>
      <trkpt lat="42.93169" lon="0.17601">
        <ele>1618</ele>
        <time>2014-03-29T13:56:49Z</time>
      </trkpt>
      <trkpt lat="42.93168" lon="0.17603">
        <ele>1617</ele>
        <time>2014-03-29T13:56:51Z</time>
      </trkpt>
      <trkpt lat="42.93163" lon="0.17608">
        <ele>1615</ele>
        <time>2014-03-29T13:56:56Z</time>
      </trkpt>
      <trkpt lat="42.93159" lon="0.17612">
        <ele>1615</ele>
        <time>2014-03-29T13:57:01Z</time>
      </trkpt>
      <trkpt lat="42.93158" lon="0.17614">
        <ele>1616</ele>
        <time>2014-03-29T13:57:03Z</time>
      </trkpt>
      <trkpt lat="42.93147" lon="0.17627">
        <ele>1612</ele>
        <time>2014-03-29T13:57:17Z</time>
      </trkpt>
      <trkpt lat="42.93136" lon="0.17643">
        <ele>1612</ele>
        <time>2014-03-29T13:57:31Z</time>
      </trkpt>
      <trkpt lat="42.93127" lon="0.17656">
        <ele>1611</ele>
        <time>2014-03-29T13:57:44Z</time>
      </trkpt>
      <trkpt lat="42.93121" lon="0.1767">
        <ele>1611</ele>
        <time>2014-03-29T13:57:55Z</time>
      </trkpt>
      <trkpt lat="42.93119" lon="0.17675">
        <ele>1610</ele>
        <time>2014-03-29T13:57:59Z</time>
      </trkpt>
      <trkpt lat="42.93117" lon="0.17677">
        <ele>1610</ele>
        <time>2014-03-29T13:58:01Z</time>
      </trkpt>
      <trkpt lat="42.93111" lon="0.17685">
        <ele>1606</ele>
        <time>2014-03-29T13:58:09Z</time>
      </trkpt>
      <trkpt lat="42.93109" lon="0.17683">
        <ele>1604</ele>
        <time>2014-03-29T13:58:15Z</time>
      </trkpt>
      <trkpt lat="42.9311" lon="0.17686">
        <ele>1605</ele>
        <time>2014-03-29T13:58:42Z</time>
      </trkpt>
      <trkpt lat="42.93111" lon="0.17683">
        <ele>1605</ele>
        <time>2014-03-29T13:59:02Z</time>
      </trkpt>
      <trkpt lat="42.93111" lon="0.17683">
        <ele>1605</ele>
        <time>2014-03-29T13:59:21Z</time>
      </trkpt>
      <trkpt lat="42.9311" lon="0.17683">
        <ele>1605</ele>
        <time>2014-03-29T13:59:41Z</time>
      </trkpt>
      <trkpt lat="42.93109" lon="0.17692">
        <ele>1605</ele>
        <time>2014-03-29T14:00:00Z</time>
      </trkpt>
      <trkpt lat="42.93107" lon="0.17697">
        <ele>1603</ele>
        <time>2014-03-29T14:00:05Z</time>
      </trkpt>
      <trkpt lat="42.93102" lon="0.17706">
        <ele>1599</ele>
        <time>2014-03-29T14:00:13Z</time>
      </trkpt>
      <trkpt lat="42.93096" lon="0.17719">
        <ele>1600</ele>
        <time>2014-03-29T14:00:23Z</time>
      </trkpt>
      <trkpt lat="42.93093" lon="0.17727">
        <ele>1599</ele>
        <time>2014-03-29T14:00:28Z</time>
      </trkpt>
      <trkpt lat="42.93089" lon="0.17737">
        <ele>1599</ele>
        <time>2014-03-29T14:00:34Z</time>
      </trkpt>
      <trkpt lat="42.9308" lon="0.17749">
        <ele>1597</ele>
        <time>2014-03-29T14:00:44Z</time>
      </trkpt>
      <trkpt lat="42.93069" lon="0.17767">
        <ele>1597</ele>
        <time>2014-03-29T14:00:58Z</time>
      </trkpt>
      <trkpt lat="42.93067" lon="0.17769">
        <ele>1596</ele>
        <time>2014-03-29T14:01:00Z</time>
      </trkpt>
      <trkpt lat="42.93057" lon="0.17781">
        <ele>1597</ele>
        <time>2014-03-29T14:01:10Z</time>
      </trkpt>
      <trkpt lat="42.9305" lon="0.17793">
        <ele>1594</ele>
        <time>2014-03-29T14:01:21Z</time>
      </trkpt>
      <trkpt lat="42.93045" lon="0.17803">
        <ele>1591</ele>
        <time>2014-03-29T14:01:28Z</time>
      </trkpt>
      <trkpt lat="42.93045" lon="0.17805">
        <ele>1590</ele>
        <time>2014-03-29T14:01:29Z</time>
      </trkpt>
      <trkpt lat="42.9304" lon="0.17811">
        <ele>1589</ele>
        <time>2014-03-29T14:01:34Z</time>
      </trkpt>
      <trkpt lat="42.93028" lon="0.17831">
        <ele>1588</ele>
        <time>2014-03-29T14:01:48Z</time>
      </trkpt>
      <trkpt lat="42.93018" lon="0.17848">
        <ele>1590</ele>
        <time>2014-03-29T14:02:01Z</time>
      </trkpt>
      <trkpt lat="42.93011" lon="0.17861">
        <ele>1587</ele>
        <time>2014-03-29T14:02:11Z</time>
      </trkpt>
      <trkpt lat="42.93005" lon="0.17872">
        <ele>1585</ele>
        <time>2014-03-29T14:02:19Z</time>
      </trkpt>
      <trkpt lat="42.93004" lon="0.17875">
        <ele>1585</ele>
        <time>2014-03-29T14:02:21Z</time>
      </trkpt>
      <trkpt lat="42.92995" lon="0.17887">
        <ele>1585</ele>
        <time>2014-03-29T14:02:32Z</time>
      </trkpt>
      <trkpt lat="42.9299" lon="0.17896">
        <ele>1583</ele>
        <time>2014-03-29T14:02:38Z</time>
      </trkpt>
      <trkpt lat="42.92984" lon="0.17907">
        <ele>1581</ele>
        <time>2014-03-29T14:02:45Z</time>
      </trkpt>
      <trkpt lat="42.92983" lon="0.17914">
        <ele>1579</ele>
        <time>2014-03-29T14:02:49Z</time>
      </trkpt>
      <trkpt lat="42.92979" lon="0.1794">
        <ele>1578</ele>
        <time>2014-03-29T14:03:04Z</time>
      </trkpt>
      <trkpt lat="42.92978" lon="0.1795">
        <ele>1578</ele>
        <time>2014-03-29T14:03:09Z</time>
      </trkpt>
      <trkpt lat="42.92974" lon="0.17964">
        <ele>1576</ele>
        <time>2014-03-29T14:03:18Z</time>
      </trkpt>
      <trkpt lat="42.92971" lon="0.1797">
        <ele>1576</ele>
        <time>2014-03-29T14:03:22Z</time>
      </trkpt>
      <trkpt lat="42.92959" lon="0.17981">
        <ele>1574</ele>
        <time>2014-03-29T14:03:37Z</time>
      </trkpt>
      <trkpt lat="42.92957" lon="0.17983">
        <ele>1573</ele>
        <time>2014-03-29T14:03:54Z</time>
      </trkpt>
      <trkpt lat="42.92955" lon="0.17983">
        <ele>1573</ele>
        <time>2014-03-29T14:04:09Z</time>
      </trkpt>
      <trkpt lat="42.92954" lon="0.17992">
        <ele>1572</ele>
        <time>2014-03-29T14:04:23Z</time>
      </trkpt>
      <trkpt lat="42.92952" lon="0.17996">
        <ele>1572</ele>
        <time>2014-03-29T14:04:27Z</time>
      </trkpt>
      <trkpt lat="42.9295" lon="0.18007">
        <ele>1572</ele>
        <time>2014-03-29T14:04:35Z</time>
      </trkpt>
      <trkpt lat="42.92952" lon="0.18013">
        <ele>1571</ele>
        <time>2014-03-29T14:04:39Z</time>
      </trkpt>
      <trkpt lat="42.92954" lon="0.18029">
        <ele>1571</ele>
        <time>2014-03-29T14:04:48Z</time>
      </trkpt>
      <trkpt lat="42.92955" lon="0.18035">
        <ele>1571</ele>
        <time>2014-03-29T14:04:57Z</time>
      </trkpt>
      <trkpt lat="42.92951" lon="0.18046">
        <ele>1570</ele>
        <time>2014-03-29T14:05:05Z</time>
      </trkpt>
      <trkpt lat="42.92939" lon="0.1806">
        <ele>1569</ele>
        <time>2014-03-29T14:05:18Z</time>
      </trkpt>
      <trkpt lat="42.92931" lon="0.18071">
        <ele>1568</ele>
        <time>2014-03-29T14:05:30Z</time>
      </trkpt>
      <trkpt lat="42.9293" lon="0.1808">
        <ele>1567</ele>
        <time>2014-03-29T14:05:42Z</time>
      </trkpt>
      <trkpt lat="42.92932" lon="0.18077">
        <ele>1567</ele>
        <time>2014-03-29T14:06:04Z</time>
      </trkpt>
      <trkpt lat="42.92938" lon="0.18084">
        <ele>1568</ele>
        <time>2014-03-29T14:06:19Z</time>
      </trkpt>
      <trkpt lat="42.92944" lon="0.18083">
        <ele>1569</ele>
        <time>2014-03-29T14:06:41Z</time>
      </trkpt>
      <trkpt lat="42.92937" lon="0.18087">
        <ele>1570</ele>
        <time>2014-03-29T14:07:01Z</time>
      </trkpt>
      <trkpt lat="42.92933" lon="0.18089">
        <ele>1569</ele>
        <time>2014-03-29T14:07:18Z</time>
      </trkpt>
      <trkpt lat="42.92933" lon="0.18089">
        <ele>1570</ele>
        <time>2014-03-29T14:07:21Z</time>
      </trkpt>
      <trkpt lat="42.92932" lon="0.18091">
        <ele>1570</ele>
        <time>2014-03-29T14:07:24Z</time>
      </trkpt>
      <trkpt lat="42.92923" lon="0.18101">
        <ele>1569</ele>
        <time>2014-03-29T14:07:35Z</time>
      </trkpt>
      <trkpt lat="42.92921" lon="0.18104">
        <ele>1568</ele>
        <time>2014-03-29T14:07:37Z</time>
      </trkpt>
      <trkpt lat="42.92919" lon="0.18106">
        <ele>1569</ele>
        <time>2014-03-29T14:07:39Z</time>
      </trkpt>
      <trkpt lat="42.92911" lon="0.18114">
        <ele>1567</ele>
        <time>2014-03-29T14:07:46Z</time>
      </trkpt>
      <trkpt lat="42.92899" lon="0.18127">
        <ele>1566</ele>
        <time>2014-03-29T14:07:58Z</time>
      </trkpt>
      <trkpt lat="42.92897" lon="0.1813">
        <ele>1565</ele>
        <time>2014-03-29T14:08:01Z</time>
      </trkpt>
      <trkpt lat="42.92884" lon="0.18145">
        <ele>1564</ele>
        <time>2014-03-29T14:08:17Z</time>
      </trkpt>
      <trkpt lat="42.92881" lon="0.1815">
        <ele>1565</ele>
        <time>2014-03-29T14:08:22Z</time>
      </trkpt>
      <trkpt lat="42.92874" lon="0.18161">
        <ele>1564</ele>
        <time>2014-03-29T14:08:35Z</time>
      </trkpt>
      <trkpt lat="42.92869" lon="0.18166">
        <ele>1563</ele>
        <time>2014-03-29T14:08:40Z</time>
      </trkpt>
      <trkpt lat="42.92858" lon="0.18172">
        <ele>1563</ele>
        <time>2014-03-29T14:08:54Z</time>
      </trkpt>
      <trkpt lat="42.92853" lon="0.18178">
        <ele>1563</ele>
        <time>2014-03-29T14:09:02Z</time>
      </trkpt>
      <trkpt lat="42.92852" lon="0.18179">
        <ele>1564</ele>
        <time>2014-03-29T14:09:04Z</time>
      </trkpt>
      <trkpt lat="42.92848" lon="0.18185">
        <ele>1564</ele>
        <time>2014-03-29T14:09:17Z</time>
      </trkpt>
      <trkpt lat="42.92849" lon="0.18185">
        <ele>1565</ele>
        <time>2014-03-29T14:09:47Z</time>
      </trkpt>
      <trkpt lat="42.92849" lon="0.18186">
        <ele>1565</ele>
        <time>2014-03-29T14:10:16Z</time>
      </trkpt>
      <trkpt lat="42.92844" lon="0.18183">
        <ele>1563</ele>
        <time>2014-03-29T14:10:49Z</time>
      </trkpt>
      <trkpt lat="42.92842" lon="0.18184">
        <ele>1562</ele>
        <time>2014-03-29T14:11:15Z</time>
      </trkpt>
      <trkpt lat="42.92851" lon="0.18189">
        <ele>1563</ele>
        <time>2014-03-29T14:11:46Z</time>
      </trkpt>
      <trkpt lat="42.92854" lon="0.18194">
        <ele>1565</ele>
        <time>2014-03-29T14:12:14Z</time>
      </trkpt>
      <trkpt lat="42.92854" lon="0.18192">
        <ele>1564</ele>
        <time>2014-03-29T14:12:49Z</time>
      </trkpt>
      <trkpt lat="42.9285" lon="0.18183">
        <ele>1564</ele>
        <time>2014-03-29T14:13:18Z</time>
      </trkpt>
      <trkpt lat="42.92853" lon="0.18186">
        <ele>1563</ele>
        <time>2014-03-29T14:13:44Z</time>
      </trkpt>
      <trkpt lat="42.92848" lon="0.18185">
        <ele>1562</ele>
        <time>2014-03-29T14:14:15Z</time>
      </trkpt>
      <trkpt lat="42.92849" lon="0.18187">
        <ele>1561</ele>
        <time>2014-03-29T14:14:33Z</time>
      </trkpt>
      <trkpt lat="42.92847" lon="0.1819">
        <ele>1559</ele>
        <time>2014-03-29T14:14:37Z</time>
      </trkpt>
      <trkpt lat="42.92838" lon="0.18202">
        <ele>1562</ele>
        <time>2014-03-29T14:14:45Z</time>
      </trkpt>
      <trkpt lat="42.92837" lon="0.18205">
        <ele>1562</ele>
        <time>2014-03-29T14:14:49Z</time>
      </trkpt>
      <trkpt lat="42.92837" lon="0.18209">
        <ele>1562</ele>
        <time>2014-03-29T14:14:54Z</time>
      </trkpt>
      <trkpt lat="42.92836" lon="0.18225">
        <ele>1563</ele>
        <time>2014-03-29T14:15:09Z</time>
      </trkpt>
      <trkpt lat="42.92836" lon="0.18228">
        <ele>1563</ele>
        <time>2014-03-29T14:15:13Z</time>
      </trkpt>
      <trkpt lat="42.92832" lon="0.18247">
        <ele>1562</ele>
        <time>2014-03-29T14:15:26Z</time>
      </trkpt>
      <trkpt lat="42.92832" lon="0.18249">
        <ele>1563</ele>
        <time>2014-03-29T14:15:28Z</time>
      </trkpt>
      <trkpt lat="42.92826" lon="0.18256">
        <ele>1562</ele>
        <time>2014-03-29T14:15:34Z</time>
      </trkpt>
      <trkpt lat="42.92825" lon="0.18259">
        <ele>1562</ele>
        <time>2014-03-29T14:15:37Z</time>
      </trkpt>
      <trkpt lat="42.92821" lon="0.18272">
        <ele>1563</ele>
        <time>2014-03-29T14:15:48Z</time>
      </trkpt>
      <trkpt lat="42.92819" lon="0.18287">
        <ele>1563</ele>
        <time>2014-03-29T14:15:59Z</time>
      </trkpt>
      <trkpt lat="42.92818" lon="0.1829">
        <ele>1563</ele>
        <time>2014-03-29T14:16:01Z</time>
      </trkpt>
      <trkpt lat="42.92812" lon="0.18309">
        <ele>1563</ele>
        <time>2014-03-29T14:16:16Z</time>
      </trkpt>
      <trkpt lat="42.92812" lon="0.18316">
        <ele>1562</ele>
        <time>2014-03-29T14:16:22Z</time>
      </trkpt>
      <trkpt lat="42.9281" lon="0.18324">
        <ele>1561</ele>
        <time>2014-03-29T14:16:29Z</time>
      </trkpt>
      <trkpt lat="42.9281" lon="0.18337">
        <ele>1557</ele>
        <time>2014-03-29T14:16:41Z</time>
      </trkpt>
      <trkpt lat="42.9281" lon="0.18338">
        <ele>1557</ele>
        <time>2014-03-29T14:16:42Z</time>
      </trkpt>
      <trkpt lat="42.92808" lon="0.18344">
        <ele>1555</ele>
        <time>2014-03-29T14:16:47Z</time>
      </trkpt>
      <trkpt lat="42.92803" lon="0.18355">
        <ele>1551</ele>
        <time>2014-03-29T14:16:55Z</time>
      </trkpt>
      <trkpt lat="42.92803" lon="0.18356">
        <ele>1552</ele>
        <time>2014-03-29T14:16:56Z</time>
      </trkpt>
      <trkpt lat="42.92802" lon="0.18357">
        <ele>1551</ele>
        <time>2014-03-29T14:16:57Z</time>
      </trkpt>
      <trkpt lat="42.92803" lon="0.18364">
        <ele>1550</ele>
        <time>2014-03-29T14:17:02Z</time>
      </trkpt>
      <trkpt lat="42.92803" lon="0.18366">
        <ele>1551</ele>
        <time>2014-03-29T14:17:03Z</time>
      </trkpt>
      <trkpt lat="42.92797" lon="0.18379">
        <ele>1550</ele>
        <time>2014-03-29T14:17:13Z</time>
      </trkpt>
      <trkpt lat="42.92791" lon="0.18394">
        <ele>1548</ele>
        <time>2014-03-29T14:17:26Z</time>
      </trkpt>
      <trkpt lat="42.92786" lon="0.18404">
        <ele>1547</ele>
        <time>2014-03-29T14:17:37Z</time>
      </trkpt>
      <trkpt lat="42.92772" lon="0.18418">
        <ele>1546</ele>
        <time>2014-03-29T14:17:53Z</time>
      </trkpt>
      <trkpt lat="42.9277" lon="0.18422">
        <ele>1544</ele>
        <time>2014-03-29T14:17:56Z</time>
      </trkpt>
      <trkpt lat="42.9276" lon="0.18438">
        <ele>1543</ele>
        <time>2014-03-29T14:18:10Z</time>
      </trkpt>
      <trkpt lat="42.92749" lon="0.18447">
        <ele>1543</ele>
        <time>2014-03-29T14:18:19Z</time>
      </trkpt>
      <trkpt lat="42.9274" lon="0.18449">
        <ele>1542</ele>
        <time>2014-03-29T14:18:26Z</time>
      </trkpt>
      <trkpt lat="42.92731" lon="0.18453">
        <ele>1540</ele>
        <time>2014-03-29T14:18:34Z</time>
      </trkpt>
      <trkpt lat="42.92714" lon="0.18466">
        <ele>1536</ele>
        <time>2014-03-29T14:18:50Z</time>
      </trkpt>
      <trkpt lat="42.92704" lon="0.18477">
        <ele>1533</ele>
        <time>2014-03-29T14:19:00Z</time>
      </trkpt>
      <trkpt lat="42.92702" lon="0.1848">
        <ele>1533</ele>
        <time>2014-03-29T14:19:03Z</time>
      </trkpt>
      <trkpt lat="42.92692" lon="0.185">
        <ele>1531</ele>
        <time>2014-03-29T14:19:18Z</time>
      </trkpt>
      <trkpt lat="42.9269" lon="0.18504">
        <ele>1531</ele>
        <time>2014-03-29T14:19:22Z</time>
      </trkpt>
      <trkpt lat="42.92684" lon="0.18512">
        <ele>1529</ele>
        <time>2014-03-29T14:19:28Z</time>
      </trkpt>
      <trkpt lat="42.92676" lon="0.18524">
        <ele>1527</ele>
        <time>2014-03-29T14:19:44Z</time>
      </trkpt>
      <trkpt lat="42.92672" lon="0.18532">
        <ele>1524</ele>
        <time>2014-03-29T14:19:54Z</time>
      </trkpt>
      <trkpt lat="42.92664" lon="0.1855">
        <ele>1522</ele>
        <time>2014-03-29T14:20:08Z</time>
      </trkpt>
      <trkpt lat="42.92658" lon="0.18563">
        <ele>1521</ele>
        <time>2014-03-29T14:20:18Z</time>
      </trkpt>
      <trkpt lat="42.92649" lon="0.18575">
        <ele>1519</ele>
        <time>2014-03-29T14:20:29Z</time>
      </trkpt>
      <trkpt lat="42.92642" lon="0.18587">
        <ele>1516</ele>
        <time>2014-03-29T14:20:40Z</time>
      </trkpt>
      <trkpt lat="42.9264" lon="0.18593">
        <ele>1514</ele>
        <time>2014-03-29T14:20:45Z</time>
      </trkpt>
      <trkpt lat="42.92637" lon="0.186">
        <ele>1514</ele>
        <time>2014-03-29T14:20:50Z</time>
      </trkpt>
      <trkpt lat="42.92634" lon="0.18611">
        <ele>1512</ele>
        <time>2014-03-29T14:20:58Z</time>
      </trkpt>
      <trkpt lat="42.92632" lon="0.18619">
        <ele>1510</ele>
        <time>2014-03-29T14:21:06Z</time>
      </trkpt>
      <trkpt lat="42.92628" lon="0.18628">
        <ele>1509</ele>
        <time>2014-03-29T14:21:18Z</time>
      </trkpt>
      <trkpt lat="42.92622" lon="0.18629">
        <ele>1508</ele>
        <time>2014-03-29T14:21:38Z</time>
      </trkpt>
      <trkpt lat="42.92619" lon="0.18632">
        <ele>1508</ele>
        <time>2014-03-29T14:21:55Z</time>
      </trkpt>
      <trkpt lat="42.92612" lon="0.18633">
        <ele>1508</ele>
        <time>2014-03-29T14:22:13Z</time>
      </trkpt>
      <trkpt lat="42.92611" lon="0.18628">
        <ele>1508</ele>
        <time>2014-03-29T14:22:32Z</time>
      </trkpt>
      <trkpt lat="42.9261" lon="0.18629">
        <ele>1508</ele>
        <time>2014-03-29T14:22:49Z</time>
      </trkpt>
      <trkpt lat="42.92613" lon="0.1863">
        <ele>1507</ele>
        <time>2014-03-29T14:23:09Z</time>
      </trkpt>
      <trkpt lat="42.92615" lon="0.18631">
        <ele>1507</ele>
        <time>2014-03-29T14:23:28Z</time>
      </trkpt>
      <trkpt lat="42.92611" lon="0.1863">
        <ele>1508</ele>
        <time>2014-03-29T14:23:46Z</time>
      </trkpt>
      <trkpt lat="42.92612" lon="0.18632">
        <ele>1509</ele>
        <time>2014-03-29T14:24:03Z</time>
      </trkpt>
      <trkpt lat="42.92618" lon="0.18633">
        <ele>1506</ele>
        <time>2014-03-29T14:24:18Z</time>
      </trkpt>
      <trkpt lat="42.92616" lon="0.18633">
        <ele>1505</ele>
        <time>2014-03-29T14:24:26Z</time>
      </trkpt>
      <trkpt lat="42.92616" lon="0.1863">
        <ele>1508</ele>
        <time>2014-03-29T14:24:50Z</time>
      </trkpt>
      <trkpt lat="42.92605" lon="0.18624">
        <ele>1509</ele>
        <time>2014-03-29T14:25:12Z</time>
      </trkpt>
      <trkpt lat="42.92617" lon="0.18627">
        <ele>1509</ele>
        <time>2014-03-29T14:25:31Z</time>
      </trkpt>
      <trkpt lat="42.9262" lon="0.18629">
        <ele>1508</ele>
        <time>2014-03-29T14:25:52Z</time>
      </trkpt>
      <trkpt lat="42.92621" lon="0.18632">
        <ele>1508</ele>
        <time>2014-03-29T14:26:13Z</time>
      </trkpt>
      <trkpt lat="42.92626" lon="0.18629">
        <ele>1507</ele>
        <time>2014-03-29T14:26:37Z</time>
      </trkpt>
      <trkpt lat="42.92624" lon="0.18632">
        <ele>1508</ele>
        <time>2014-03-29T14:26:57Z</time>
      </trkpt>
      <trkpt lat="42.92625" lon="0.18633">
        <ele>1509</ele>
        <time>2014-03-29T14:27:13Z</time>
      </trkpt>
      <trkpt lat="42.92622" lon="0.18635">
        <ele>1508</ele>
        <time>2014-03-29T14:27:20Z</time>
      </trkpt>
      <trkpt lat="42.92622" lon="0.18637">
        <ele>1507</ele>
        <time>2014-03-29T14:27:22Z</time>
      </trkpt>
      <trkpt lat="42.92618" lon="0.18644">
        <ele>1504</ele>
        <time>2014-03-29T14:27:33Z</time>
      </trkpt>
      <trkpt lat="42.92613" lon="0.18649">
        <ele>1505</ele>
        <time>2014-03-29T14:27:43Z</time>
      </trkpt>
      <trkpt lat="42.92612" lon="0.18655">
        <ele>1503</ele>
        <time>2014-03-29T14:27:56Z</time>
      </trkpt>
      <trkpt lat="42.9261" lon="0.1866">
        <ele>1502</ele>
        <time>2014-03-29T14:28:08Z</time>
      </trkpt>
      <trkpt lat="42.92606" lon="0.18665">
        <ele>1500</ele>
        <time>2014-03-29T14:28:20Z</time>
      </trkpt>
      <trkpt lat="42.92606" lon="0.1867">
        <ele>1500</ele>
        <time>2014-03-29T14:28:24Z</time>
      </trkpt>
      <trkpt lat="42.92611" lon="0.18677">
        <ele>1499</ele>
        <time>2014-03-29T14:28:30Z</time>
      </trkpt>
      <trkpt lat="42.92612" lon="0.18679">
        <ele>1498</ele>
        <time>2014-03-29T14:28:32Z</time>
      </trkpt>
      <trkpt lat="42.92611" lon="0.18686">
        <ele>1498</ele>
        <time>2014-03-29T14:28:37Z</time>
      </trkpt>
      <trkpt lat="42.9261" lon="0.187">
        <ele>1496</ele>
        <time>2014-03-29T14:28:48Z</time>
      </trkpt>
      <trkpt lat="42.92609" lon="0.18709">
        <ele>1495</ele>
        <time>2014-03-29T14:28:56Z</time>
      </trkpt>
      <trkpt lat="42.92609" lon="0.1872">
        <ele>1493</ele>
        <time>2014-03-29T14:29:08Z</time>
      </trkpt>
      <trkpt lat="42.92605" lon="0.18731">
        <ele>1493</ele>
        <time>2014-03-29T14:29:20Z</time>
      </trkpt>
      <trkpt lat="42.926" lon="0.18739">
        <ele>1492</ele>
        <time>2014-03-29T14:29:29Z</time>
      </trkpt>
      <trkpt lat="42.92599" lon="0.1874">
        <ele>1492</ele>
        <time>2014-03-29T14:29:30Z</time>
      </trkpt>
      <trkpt lat="42.92596" lon="0.18744">
        <ele>1492</ele>
        <time>2014-03-29T14:29:36Z</time>
      </trkpt>
      <trkpt lat="42.92597" lon="0.18752">
        <ele>1492</ele>
        <time>2014-03-29T14:29:44Z</time>
      </trkpt>
      <trkpt lat="42.92595" lon="0.18758">
        <ele>1492</ele>
        <time>2014-03-29T14:29:49Z</time>
      </trkpt>
      <trkpt lat="42.92593" lon="0.1876">
        <ele>1492</ele>
        <time>2014-03-29T14:29:51Z</time>
      </trkpt>
      <trkpt lat="42.9259" lon="0.18765">
        <ele>1490</ele>
        <time>2014-03-29T14:29:54Z</time>
      </trkpt>
      <trkpt lat="42.92586" lon="0.18767">
        <ele>1488</ele>
        <time>2014-03-29T14:29:57Z</time>
      </trkpt>
      <trkpt lat="42.92583" lon="0.18773">
        <ele>1487</ele>
        <time>2014-03-29T14:30:05Z</time>
      </trkpt>
      <trkpt lat="42.92587" lon="0.18778">
        <ele>1485</ele>
        <time>2014-03-29T14:30:11Z</time>
      </trkpt>
      <trkpt lat="42.9258" lon="0.1878">
        <ele>1481</ele>
        <time>2014-03-29T14:30:16Z</time>
      </trkpt>
      <trkpt lat="42.92579" lon="0.18781">
        <ele>1481</ele>
        <time>2014-03-29T14:30:17Z</time>
      </trkpt>
      <trkpt lat="42.9259" lon="0.18796">
        <ele>1477</ele>
        <time>2014-03-29T14:30:26Z</time>
      </trkpt>
      <trkpt lat="42.92591" lon="0.18803">
        <ele>1474</ele>
        <time>2014-03-29T14:30:30Z</time>
      </trkpt>
      <trkpt lat="42.92604" lon="0.18816">
        <ele>1472</ele>
        <time>2014-03-29T14:30:36Z</time>
      </trkpt>
      <trkpt lat="42.92605" lon="0.18835">
        <ele>1474</ele>
        <time>2014-03-29T14:30:49Z</time>
      </trkpt>
      <trkpt lat="42.92604" lon="0.18844">
        <ele>1475</ele>
        <time>2014-03-29T14:31:06Z</time>
      </trkpt>
      <trkpt lat="42.92608" lon="0.18858">
        <ele>1473</ele>
        <time>2014-03-29T14:31:19Z</time>
      </trkpt>
      <trkpt lat="42.9261" lon="0.18865">
        <ele>1472</ele>
        <time>2014-03-29T14:31:25Z</time>
      </trkpt>
      <trkpt lat="42.92609" lon="0.1887">
        <ele>1471</ele>
        <time>2014-03-29T14:31:37Z</time>
      </trkpt>
      <trkpt lat="42.92613" lon="0.18879">
        <ele>1471</ele>
        <time>2014-03-29T14:31:49Z</time>
      </trkpt>
      <trkpt lat="42.92617" lon="0.18887">
        <ele>1470</ele>
        <time>2014-03-29T14:31:56Z</time>
      </trkpt>
      <trkpt lat="42.92618" lon="0.18894">
        <ele>1469</ele>
        <time>2014-03-29T14:32:00Z</time>
      </trkpt>
      <trkpt lat="42.92624" lon="0.18904">
        <ele>1468</ele>
        <time>2014-03-29T14:32:08Z</time>
      </trkpt>
      <trkpt lat="42.92625" lon="0.18907">
        <ele>1468</ele>
        <time>2014-03-29T14:32:11Z</time>
      </trkpt>
      <trkpt lat="42.92631" lon="0.18927">
        <ele>1466</ele>
        <time>2014-03-29T14:32:25Z</time>
      </trkpt>
      <trkpt lat="42.92629" lon="0.18944">
        <ele>1466</ele>
        <time>2014-03-29T14:32:39Z</time>
      </trkpt>
      <trkpt lat="42.92619" lon="0.18951">
        <ele>1467</ele>
        <time>2014-03-29T14:32:57Z</time>
      </trkpt>
      <trkpt lat="42.92618" lon="0.18958">
        <ele>1465</ele>
        <time>2014-03-29T14:33:15Z</time>
      </trkpt>
      <trkpt lat="42.92621" lon="0.18968">
        <ele>1464</ele>
        <time>2014-03-29T14:33:23Z</time>
      </trkpt>
      <trkpt lat="42.92621" lon="0.18982">
        <ele>1462</ele>
        <time>2014-03-29T14:33:32Z</time>
      </trkpt>
      <trkpt lat="42.92624" lon="0.19">
        <ele>1458</ele>
        <time>2014-03-29T14:33:44Z</time>
      </trkpt>
      <trkpt lat="42.92623" lon="0.19002">
        <ele>1458</ele>
        <time>2014-03-29T14:33:46Z</time>
      </trkpt>
      <trkpt lat="42.9262" lon="0.19024">
        <ele>1455</ele>
        <time>2014-03-29T14:33:59Z</time>
      </trkpt>
      <trkpt lat="42.92617" lon="0.19035">
        <ele>1453</ele>
        <time>2014-03-29T14:34:13Z</time>
      </trkpt>
      <trkpt lat="42.92614" lon="0.19042">
        <ele>1451</ele>
        <time>2014-03-29T14:34:28Z</time>
      </trkpt>
      <trkpt lat="42.92614" lon="0.19045">
        <ele>1451</ele>
        <time>2014-03-29T14:34:30Z</time>
      </trkpt>
      <trkpt lat="42.92613" lon="0.1905">
        <ele>1450</ele>
        <time>2014-03-29T14:34:34Z</time>
      </trkpt>
      <trkpt lat="42.92613" lon="0.19053">
        <ele>1450</ele>
        <time>2014-03-29T14:34:36Z</time>
      </trkpt>
      <trkpt lat="42.92612" lon="0.1906">
        <ele>1449</ele>
        <time>2014-03-29T14:34:42Z</time>
      </trkpt>
      <trkpt lat="42.92608" lon="0.19065">
        <ele>1449</ele>
        <time>2014-03-29T14:34:45Z</time>
      </trkpt>
      <trkpt lat="42.92606" lon="0.1907">
        <ele>1449</ele>
        <time>2014-03-29T14:34:49Z</time>
      </trkpt>
      <trkpt lat="42.926" lon="0.19088">
        <ele>1448</ele>
        <time>2014-03-29T14:35:03Z</time>
      </trkpt>
      <trkpt lat="42.92599" lon="0.19094">
        <ele>1446</ele>
        <time>2014-03-29T14:35:08Z</time>
      </trkpt>
      <trkpt lat="42.92595" lon="0.19105">
        <ele>1445</ele>
        <time>2014-03-29T14:35:16Z</time>
      </trkpt>
      <trkpt lat="42.92591" lon="0.19116">
        <ele>1445</ele>
        <time>2014-03-29T14:35:25Z</time>
      </trkpt>
      <trkpt lat="42.92582" lon="0.19132">
        <ele>1442</ele>
        <time>2014-03-29T14:35:37Z</time>
      </trkpt>
      <trkpt lat="42.92578" lon="0.1914">
        <ele>1441</ele>
        <time>2014-03-29T14:35:42Z</time>
      </trkpt>
      <trkpt lat="42.92571" lon="0.19159">
        <ele>1439</ele>
        <time>2014-03-29T14:35:54Z</time>
      </trkpt>
      <trkpt lat="42.92567" lon="0.19169">
        <ele>1438</ele>
        <time>2014-03-29T14:36:02Z</time>
      </trkpt>
      <trkpt lat="42.92566" lon="0.1917">
        <ele>1439</ele>
        <time>2014-03-29T14:36:03Z</time>
      </trkpt>
      <trkpt lat="42.92561" lon="0.19192">
        <ele>1437</ele>
        <time>2014-03-29T14:36:17Z</time>
      </trkpt>
      <trkpt lat="42.92559" lon="0.192">
        <ele>1435</ele>
        <time>2014-03-29T14:36:23Z</time>
      </trkpt>
      <trkpt lat="42.92558" lon="0.19207">
        <ele>1435</ele>
        <time>2014-03-29T14:36:28Z</time>
      </trkpt>
      <trkpt lat="42.92555" lon="0.19225">
        <ele>1433</ele>
        <time>2014-03-29T14:36:42Z</time>
      </trkpt>
      <trkpt lat="42.92554" lon="0.19232">
        <ele>1432</ele>
        <time>2014-03-29T14:36:46Z</time>
      </trkpt>
      <trkpt lat="42.92555" lon="0.19236">
        <ele>1432</ele>
        <time>2014-03-29T14:36:49Z</time>
      </trkpt>
      <trkpt lat="42.92553" lon="0.19256">
        <ele>1431</ele>
        <time>2014-03-29T14:37:03Z</time>
      </trkpt>
      <trkpt lat="42.92548" lon="0.19275">
        <ele>1430</ele>
        <time>2014-03-29T14:37:16Z</time>
      </trkpt>
      <trkpt lat="42.92547" lon="0.1928">
        <ele>1430</ele>
        <time>2014-03-29T14:37:20Z</time>
      </trkpt>
      <trkpt lat="42.92549" lon="0.19286">
        <ele>1429</ele>
        <time>2014-03-29T14:37:25Z</time>
      </trkpt>
      <trkpt lat="42.92554" lon="0.19301">
        <ele>1427</ele>
        <time>2014-03-29T14:37:38Z</time>
      </trkpt>
      <trkpt lat="42.9256" lon="0.19309">
        <ele>1426</ele>
        <time>2014-03-29T14:37:47Z</time>
      </trkpt>
      <trkpt lat="42.92569" lon="0.19314">
        <ele>1424</ele>
        <time>2014-03-29T14:37:58Z</time>
      </trkpt>
      <trkpt lat="42.92576" lon="0.19319">
        <ele>1422</ele>
        <time>2014-03-29T14:38:07Z</time>
      </trkpt>
      <trkpt lat="42.92577" lon="0.1932">
        <ele>1422</ele>
        <time>2014-03-29T14:38:09Z</time>
      </trkpt>
      <trkpt lat="42.92592" lon="0.19324">
        <ele>1420</ele>
        <time>2014-03-29T14:38:22Z</time>
      </trkpt>
      <trkpt lat="42.92594" lon="0.19324">
        <ele>1420</ele>
        <time>2014-03-29T14:38:24Z</time>
      </trkpt>
      <trkpt lat="42.92608" lon="0.19326">
        <ele>1418</ele>
        <time>2014-03-29T14:38:39Z</time>
      </trkpt>
      <trkpt lat="42.92612" lon="0.19327">
        <ele>1419</ele>
        <time>2014-03-29T14:38:51Z</time>
      </trkpt>
      <trkpt lat="42.92624" lon="0.19331">
        <ele>1419</ele>
        <time>2014-03-29T14:39:20Z</time>
      </trkpt>
      <trkpt lat="42.92629" lon="0.1933">
        <ele>1420</ele>
        <time>2014-03-29T14:39:52Z</time>
      </trkpt>
      <trkpt lat="42.92618" lon="0.1933">
        <ele>1420</ele>
        <time>2014-03-29T14:40:09Z</time>
      </trkpt>
      <trkpt lat="42.92617" lon="0.1933">
        <ele>1419</ele>
        <time>2014-03-29T14:40:20Z</time>
      </trkpt>
      <trkpt lat="42.92624" lon="0.1934">
        <ele>1416</ele>
        <time>2014-03-29T14:40:32Z</time>
      </trkpt>
      <trkpt lat="42.92625" lon="0.1934">
        <ele>1416</ele>
        <time>2014-03-29T14:40:33Z</time>
      </trkpt>
      <trkpt lat="42.92631" lon="0.19346">
        <ele>1415</ele>
        <time>2014-03-29T14:40:38Z</time>
      </trkpt>
      <trkpt lat="42.92634" lon="0.19351">
        <ele>1414</ele>
        <time>2014-03-29T14:40:42Z</time>
      </trkpt>
      <trkpt lat="42.92636" lon="0.19362">
        <ele>1412</ele>
        <time>2014-03-29T14:40:50Z</time>
      </trkpt>
      <trkpt lat="42.92645" lon="0.19379">
        <ele>1410</ele>
        <time>2014-03-29T14:41:01Z</time>
      </trkpt>
      <trkpt lat="42.9265" lon="0.19384">
        <ele>1410</ele>
        <time>2014-03-29T14:41:03Z</time>
      </trkpt>
      <trkpt lat="42.92656" lon="0.19394">
        <ele>1409</ele>
        <time>2014-03-29T14:41:09Z</time>
      </trkpt>
      <trkpt lat="42.92659" lon="0.19402">
        <ele>1408</ele>
        <time>2014-03-29T14:41:13Z</time>
      </trkpt>
      <trkpt lat="42.9266" lon="0.19407">
        <ele>1408</ele>
        <time>2014-03-29T14:41:16Z</time>
      </trkpt>
      <trkpt lat="42.92669" lon="0.19419">
        <ele>1407</ele>
        <time>2014-03-29T14:41:29Z</time>
      </trkpt>
      <trkpt lat="42.92667" lon="0.19425">
        <ele>1403</ele>
        <time>2014-03-29T14:41:42Z</time>
      </trkpt>
      <trkpt lat="42.92666" lon="0.19425">
        <ele>1404</ele>
        <time>2014-03-29T14:41:43Z</time>
      </trkpt>
      <trkpt lat="42.92659" lon="0.19431">
        <ele>1401</ele>
        <time>2014-03-29T14:41:56Z</time>
      </trkpt>
      <trkpt lat="42.92662" lon="0.1944">
        <ele>1399</ele>
        <time>2014-03-29T14:42:01Z</time>
      </trkpt>
      <trkpt lat="42.92658" lon="0.19448">
        <ele>1398</ele>
        <time>2014-03-29T14:42:13Z</time>
      </trkpt>
      <trkpt lat="42.92656" lon="0.19455">
        <ele>1399</ele>
        <time>2014-03-29T14:42:26Z</time>
      </trkpt>
      <trkpt lat="42.92659" lon="0.19466">
        <ele>1395</ele>
        <time>2014-03-29T14:42:35Z</time>
      </trkpt>
      <trkpt lat="42.9266" lon="0.19467">
        <ele>1395</ele>
        <time>2014-03-29T14:42:36Z</time>
      </trkpt>
      <trkpt lat="42.92667" lon="0.19481">
        <ele>1393</ele>
        <time>2014-03-29T14:42:48Z</time>
      </trkpt>
      <trkpt lat="42.92656" lon="0.19488">
        <ele>1393</ele>
        <time>2014-03-29T14:43:02Z</time>
      </trkpt>
      <trkpt lat="42.92652" lon="0.19499">
        <ele>1389</ele>
        <time>2014-03-29T14:43:16Z</time>
      </trkpt>
      <trkpt lat="42.92653" lon="0.19508">
        <ele>1386</ele>
        <time>2014-03-29T14:43:28Z</time>
      </trkpt>
      <trkpt lat="42.92657" lon="0.19519">
        <ele>1385</ele>
        <time>2014-03-29T14:43:36Z</time>
      </trkpt>
      <trkpt lat="42.92657" lon="0.19522">
        <ele>1383</ele>
        <time>2014-03-29T14:43:38Z</time>
      </trkpt>
      <trkpt lat="42.92655" lon="0.19526">
        <ele>1383</ele>
        <time>2014-03-29T14:43:42Z</time>
      </trkpt>
      <trkpt lat="42.9266" lon="0.19534">
        <ele>1380</ele>
        <time>2014-03-29T14:43:56Z</time>
      </trkpt>
      <trkpt lat="42.92658" lon="0.19544">
        <ele>1378</ele>
        <time>2014-03-29T14:44:08Z</time>
      </trkpt>
      <trkpt lat="42.92653" lon="0.19545">
        <ele>1376</ele>
        <time>2014-03-29T14:44:21Z</time>
      </trkpt>
      <trkpt lat="42.92657" lon="0.19553">
        <ele>1373</ele>
        <time>2014-03-29T14:44:33Z</time>
      </trkpt>
      <trkpt lat="42.92659" lon="0.1956">
        <ele>1371</ele>
        <time>2014-03-29T14:44:45Z</time>
      </trkpt>
      <trkpt lat="42.92662" lon="0.19569">
        <ele>1369</ele>
        <time>2014-03-29T14:44:53Z</time>
      </trkpt>
      <trkpt lat="42.92654" lon="0.19581">
        <ele>1367</ele>
        <time>2014-03-29T14:45:05Z</time>
      </trkpt>
      <trkpt lat="42.92648" lon="0.19594">
        <ele>1365</ele>
        <time>2014-03-29T14:45:16Z</time>
      </trkpt>
      <trkpt lat="42.92656" lon="0.19602">
        <ele>1363</ele>
        <time>2014-03-29T14:45:29Z</time>
      </trkpt>
      <trkpt lat="42.92665" lon="0.19605">
        <ele>1360</ele>
        <time>2014-03-29T14:45:43Z</time>
      </trkpt>
      <trkpt lat="42.92669" lon="0.19613">
        <ele>1358</ele>
        <time>2014-03-29T14:45:52Z</time>
      </trkpt>
      <trkpt lat="42.92676" lon="0.19621">
        <ele>1355</ele>
        <time>2014-03-29T14:46:04Z</time>
      </trkpt>
      <trkpt lat="42.9268" lon="0.19629">
        <ele>1354</ele>
        <time>2014-03-29T14:46:17Z</time>
      </trkpt>
      <trkpt lat="42.92689" lon="0.19633">
        <ele>1352</ele>
        <time>2014-03-29T14:46:38Z</time>
      </trkpt>
      <trkpt lat="42.92696" lon="0.19636">
        <ele>1350</ele>
        <time>2014-03-29T14:46:50Z</time>
      </trkpt>
      <trkpt lat="42.92699" lon="0.19641">
        <ele>1349</ele>
        <time>2014-03-29T14:47:00Z</time>
      </trkpt>
      <trkpt lat="42.92703" lon="0.19648">
        <ele>1346</ele>
        <time>2014-03-29T14:47:13Z</time>
      </trkpt>
      <trkpt lat="42.92706" lon="0.19661">
        <ele>1343</ele>
        <time>2014-03-29T14:47:23Z</time>
      </trkpt>
      <trkpt lat="42.92711" lon="0.19672">
        <ele>1341</ele>
        <time>2014-03-29T14:47:38Z</time>
      </trkpt>
      <trkpt lat="42.92707" lon="0.19685">
        <ele>1339</ele>
        <time>2014-03-29T14:47:50Z</time>
      </trkpt>
      <trkpt lat="42.9271" lon="0.19698">
        <ele>1337</ele>
        <time>2014-03-29T14:48:02Z</time>
      </trkpt>
      <trkpt lat="42.92711" lon="0.197">
        <ele>1336</ele>
        <time>2014-03-29T14:48:03Z</time>
      </trkpt>
      <trkpt lat="42.92717" lon="0.19709">
        <ele>1335</ele>
        <time>2014-03-29T14:48:08Z</time>
      </trkpt>
      <trkpt lat="42.92728" lon="0.19724">
        <ele>1333</ele>
        <time>2014-03-29T14:48:20Z</time>
      </trkpt>
      <trkpt lat="42.92729" lon="0.19725">
        <ele>1332</ele>
        <time>2014-03-29T14:48:21Z</time>
      </trkpt>
      <trkpt lat="42.92734" lon="0.19735">
        <ele>1331</ele>
        <time>2014-03-29T14:48:31Z</time>
      </trkpt>
      <trkpt lat="42.92735" lon="0.19736">
        <ele>1331</ele>
        <time>2014-03-29T14:48:33Z</time>
      </trkpt>
      <trkpt lat="42.9273" lon="0.19748">
        <ele>1327</ele>
        <time>2014-03-29T14:48:47Z</time>
      </trkpt>
      <trkpt lat="42.92725" lon="0.19756">
        <ele>1325</ele>
        <time>2014-03-29T14:49:00Z</time>
      </trkpt>
      <trkpt lat="42.92719" lon="0.1976">
        <ele>1322</ele>
        <time>2014-03-29T14:49:10Z</time>
      </trkpt>
      <trkpt lat="42.92715" lon="0.19767">
        <ele>1319</ele>
        <time>2014-03-29T14:49:22Z</time>
      </trkpt>
      <trkpt lat="42.9271" lon="0.19774">
        <ele>1316</ele>
        <time>2014-03-29T14:49:32Z</time>
      </trkpt>
      <trkpt lat="42.92709" lon="0.19776">
        <ele>1315</ele>
        <time>2014-03-29T14:49:33Z</time>
      </trkpt>
      <trkpt lat="42.92707" lon="0.19777">
        <ele>1313</ele>
        <time>2014-03-29T14:49:42Z</time>
      </trkpt>
      <trkpt lat="42.92709" lon="0.1978">
        <ele>1312</ele>
        <time>2014-03-29T14:49:45Z</time>
      </trkpt>
      <trkpt lat="42.92714" lon="0.198">
        <ele>1310</ele>
        <time>2014-03-29T14:50:01Z</time>
      </trkpt>
      <trkpt lat="42.92714" lon="0.19801">
        <ele>1310</ele>
        <time>2014-03-29T14:50:03Z</time>
      </trkpt>
      <trkpt lat="42.92719" lon="0.19815">
        <ele>1308</ele>
        <time>2014-03-29T14:50:19Z</time>
      </trkpt>
      <trkpt lat="42.92725" lon="0.19818">
        <ele>1307</ele>
        <time>2014-03-29T14:50:32Z</time>
      </trkpt>
      <trkpt lat="42.92731" lon="0.19823">
        <ele>1306</ele>
        <time>2014-03-29T14:50:44Z</time>
      </trkpt>
      <trkpt lat="42.9273" lon="0.19823">
        <ele>1303</ele>
        <time>2014-03-29T14:50:56Z</time>
      </trkpt>
      <trkpt lat="42.92728" lon="0.19824">
        <ele>1300</ele>
        <time>2014-03-29T14:51:05Z</time>
      </trkpt>
      <trkpt lat="42.9272" lon="0.19827">
        <ele>1297</ele>
        <time>2014-03-29T14:51:16Z</time>
      </trkpt>
      <trkpt lat="42.92715" lon="0.19828">
        <ele>1297</ele>
        <time>2014-03-29T14:51:22Z</time>
      </trkpt>
      <trkpt lat="42.92711" lon="0.19832">
        <ele>1294</ele>
        <time>2014-03-29T14:51:28Z</time>
      </trkpt>
      <trkpt lat="42.92709" lon="0.19852">
        <ele>1293</ele>
        <time>2014-03-29T14:51:43Z</time>
      </trkpt>
      <trkpt lat="42.92695" lon="0.19849">
        <ele>1293</ele>
        <time>2014-03-29T14:51:56Z</time>
      </trkpt>
      <trkpt lat="42.92697" lon="0.19858">
        <ele>1292</ele>
        <time>2014-03-29T14:52:08Z</time>
      </trkpt>
      <trkpt lat="42.92699" lon="0.19855">
        <ele>1293</ele>
        <time>2014-03-29T14:52:23Z</time>
      </trkpt>
      <trkpt lat="42.92699" lon="0.19853">
        <ele>1294</ele>
        <time>2014-03-29T14:52:36Z</time>
      </trkpt>
      <trkpt lat="42.92691" lon="0.19852">
        <ele>1293</ele>
        <time>2014-03-29T14:53:03Z</time>
      </trkpt>
      <trkpt lat="42.9269" lon="0.19855">
        <ele>1294</ele>
        <time>2014-03-29T14:53:29Z</time>
      </trkpt>
      <trkpt lat="42.92698" lon="0.19853">
        <ele>1294</ele>
        <time>2014-03-29T14:53:57Z</time>
      </trkpt>
      <trkpt lat="42.92698" lon="0.19853">
        <ele>1294</ele>
        <time>2014-03-29T14:54:20Z</time>
      </trkpt>
      <trkpt lat="42.92697" lon="0.19859">
        <ele>1294</ele>
        <time>2014-03-29T14:54:45Z</time>
      </trkpt>
      <trkpt lat="42.92692" lon="0.19863">
        <ele>1294</ele>
        <time>2014-03-29T14:55:15Z</time>
      </trkpt>
      <trkpt lat="42.92695" lon="0.19862">
        <ele>1293</ele>
        <time>2014-03-29T14:55:40Z</time>
      </trkpt>
      <trkpt lat="42.92702" lon="0.19866">
        <ele>1292</ele>
        <time>2014-03-29T14:56:11Z</time>
      </trkpt>
      <trkpt lat="42.92694" lon="0.19865">
        <ele>1292</ele>
        <time>2014-03-29T14:56:35Z</time>
      </trkpt>
      <trkpt lat="42.927" lon="0.19861">
        <ele>1292</ele>
        <time>2014-03-29T14:57:05Z</time>
      </trkpt>
      <trkpt lat="42.92696" lon="0.19858">
        <ele>1291</ele>
        <time>2014-03-29T14:57:29Z</time>
      </trkpt>
      <trkpt lat="42.92698" lon="0.19857">
        <ele>1292</ele>
        <time>2014-03-29T14:57:54Z</time>
      </trkpt>
      <trkpt lat="42.92691" lon="0.19861">
        <ele>1291</ele>
        <time>2014-03-29T14:58:19Z</time>
      </trkpt>
      <trkpt lat="42.92694" lon="0.19861">
        <ele>1292</ele>
        <time>2014-03-29T14:58:48Z</time>
      </trkpt>
      <trkpt lat="42.92696" lon="0.19856">
        <ele>1292</ele>
        <time>2014-03-29T14:59:15Z</time>
      </trkpt>
      <trkpt lat="42.92701" lon="0.19853">
        <ele>1293</ele>
        <time>2014-03-29T14:59:47Z</time>
      </trkpt>
      <trkpt lat="42.92701" lon="0.19853">
        <ele>1293</ele>
        <time>2014-03-29T15:00:08Z</time>
      </trkpt>
      <trkpt lat="42.92701" lon="0.19853">
        <ele>1293</ele>
        <time>2014-03-29T15:00:09Z</time>
      </trkpt>
      <trkpt lat="42.927" lon="0.19859">
        <ele>1292</ele>
        <time>2014-03-29T15:00:38Z</time>
      </trkpt>
      <trkpt lat="42.92699" lon="0.19855">
        <ele>1292</ele>
        <time>2014-03-29T15:00:56Z</time>
      </trkpt>
      <trkpt lat="42.92705" lon="0.19851">
        <ele>1292</ele>
        <time>2014-03-29T15:01:19Z</time>
      </trkpt>
      <trkpt lat="42.92711" lon="0.19855">
        <ele>1292</ele>
        <time>2014-03-29T15:01:49Z</time>
      </trkpt>
      <trkpt lat="42.92709" lon="0.19855">
        <ele>1292</ele>
        <time>2014-03-29T15:02:02Z</time>
      </trkpt>
      <trkpt lat="42.92706" lon="0.19851">
        <ele>1291</ele>
        <time>2014-03-29T15:02:18Z</time>
      </trkpt>
      <trkpt lat="42.927" lon="0.19858">
        <ele>1291</ele>
        <time>2014-03-29T15:02:23Z</time>
      </trkpt>
      <trkpt lat="42.92703" lon="0.19865">
        <ele>1291</ele>
        <time>2014-03-29T15:02:25Z</time>
      </trkpt>
    </trkseg>
  </trk>
</gpx>